[[{"header":{"parameterUnit":"m.s-1","parameterCategory":1,"la1":30.6,"la2":29.2853,"lo1":-89.7004,"lo2":-87.6739,"dy":0.0162,"dx":0.0183,"nx":112,"ny":82,"refTime":"2023-08-17T12:00:00:Z","depth":0,"parameterNumber":2,"parameterNumberName":"U-component_of_WINDS"},"data":[0.0,0.0,0.0,0.0,0.0,0.0,0.0,0.0,0.0,0.0,0.0,0.0,0.0,0.0,0.0,0.0,0.0,0.0,0.0,0.0,0.0,0.0,0.0,0.0,0.0,0.0,0.0,0.0,0.0,0.0,0.0,0.0,0.0,0.0,0.0,0.0,0.0,0.0,0.0,0.0,0.0,0.0,0.0,0.0,0.0,0.0,0.0,0.0,0.0,0.0,0.0,0.0,0.0,0.0,0.0,0.0,0.0,0.0,0.0,0.0,0.0,0.0,0.0,0.0,0.0,0.0,0.0,0.0,0.0,0.0,0.0,0.0,0.0,0.0,0.0,0.0,0.0,0.0,0.0,0.0,0.0,0.0,0.0,0.0,0.0,0.0,0.0,0.0,0.0,0.0,-2.9385,-3.1685,-3.6483,-3.9691,-4.0188,-3.9641,-3.7001,-3.1828,0.0,0.0,0.0,0.0,0.0,0.0,0.0,0.0,0.0,0.0,0.0,0.0,0.0,0.0,0.0,0.0,0.0,0.0,0.0,0.0,0.0,0.0,0.0,0.0,0.0,0.0,0.0,0.0,0.0,0.0,0.0,0.0,0.0,0.0,0.0,0.0,0.0,0.0,0.0,0.0,0.0,0.0,0.0,0.0,0.0,0.0,0.0,0.0,0.0,0.0,0.0,0.0,0.0,0.0,0.0,0.0,0.0,0.0,0.0,0.0,0.0,0.0,0.0,0.0,0.0,0.0,0.0,0.0,0.0,0.0,0.0,0.0,0.0,0.0,0.0,0.0,0.0,0.0,0.0,0.0,0.0,0.0,0.0,0.0,0.0,0.0,0.0,0.0,0.0,0.0,0.0,0.0,0.0,0.0,0.0,0.0,0.0,0.0,0.0,0.0,0.0,0.0,0.0,0.0,-3.1348,-3.5299,-3.7443,-3.8832,-3.9455,-3.7978,-3.5413,-3.1715,0.0,0.0,0.0,0.0,0.0,0.0,0.0,0.0,0.0,0.0,0.0,0.0,0.0,0.0,0.0,0.0,0.0,0.0,0.0,0.0,0.0,0.0,0.0,0.0,0.0,0.0,0.0,0.0,0.0,0.0,0.0,0.0,0.0,0.0,0.0,0.0,0.0,0.0,0.0,0.0,0.0,0.0,0.0,0.0,0.0,0.0,0.0,0.0,0.0,0.0,0.0,0.0,0.0,0.0,0.0,0.0,0.0,0.0,0.0,0.0,0.0,0.0,0.0,0.0,0.0,0.0,0.0,0.0,0.0,0.0,0.0,0.0,0.0,0.0,0.0,0.0,0.0,0.0,0.0,0.0,0.0,0.0,0.0,0.0,0.0,0.0,0.0,0.0,0.0,0.0,0.0,0.0,0.0,0.0,0.0,0.0,0.0,0.0,0.0,0.0,0.0,0.0,0.0,-2.9841,-3.2221,-3.5579,-3.7404,-3.8661,-3.9349,-3.7285,-3.4681,-3.1661,-2.9894,0.0,0.0,0.0,0.0,0.0,0.0,0.0,0.0,0.0,0.0,0.0,0.0,0.0,0.0,0.0,0.0,0.0,0.0,0.0,0.0,0.0,0.0,0.0,0.0,0.0,0.0,0.0,0.0,0.0,0.0,0.0,0.0,0.0,0.0,0.0,0.0,0.0,0.0,0.0,0.0,0.0,0.0,0.0,0.0,0.0,0.0,0.0,0.0,0.0,0.0,0.0,0.0,0.0,0.0,0.0,0.0,0.0,0.0,0.0,0.0,0.0,0.0,0.0,0.0,0.0,0.0,0.0,0.0,0.0,0.0,0.0,0.0,0.0,0.0,0.0,0.0,0.0,0.0,0.0,0.0,0.0,0.0,0.0,0.0,0.0,0.0,0.0,0.0,0.0,0.0,0.0,0.0,0.0,0.0,0.0,0.0,0.0,0.0,0.0,0.0,0.0,0.0,-3.139,-3.2946,-3.5459,-3.7315,-3.8601,-3.914,-3.6626,-3.4023,-3.1631,-2.8757,0.0,0.0,0.0,0.0,0.0,0.0,0.0,0.0,0.0,0.0,0.0,0.0,0.0,0.0,0.0,0.0,0.0,0.0,0.0,0.0,0.0,0.0,0.0,0.0,0.0,0.0,0.0,0.0,0.0,0.0,0.0,0.0,0.0,0.0,0.0,0.0,0.0,0.0,0.0,0.0,0.0,0.0,0.0,0.0,0.0,0.0,0.0,0.0,0.0,0.0,0.0,0.0,0.0,0.0,0.0,0.0,0.0,0.0,0.0,0.0,0.0,0.0,0.0,0.0,0.0,0.0,0.0,0.0,0.0,0.0,0.0,0.0,0.0,0.0,0.0,0.0,0.0,0.0,0.0,0.0,0.0,0.0,0.0,0.0,0.0,0.0,0.0,0.0,0.0,0.0,0.0,0.0,0.0,0.0,0.0,0.0,0.0,0.0,0.0,0.0,0.0,0.0,-3.2168,-3.4143,-3.6207,-3.7614,-3.8422,-3.8452,-3.5489,-3.3036,-3.1571,-2.7889,0.0,0.0,0.0,0.0,0.0,0.0,0.0,0.0,0.0,0.0,0.0,0.0,0.0,0.0,0.0,0.0,0.0,0.0,0.0,0.0,0.0,0.0,0.0,0.0,0.0,0.0,0.0,0.0,0.0,0.0,0.0,0.0,0.0,0.0,0.0,0.0,0.0,0.0,0.0,0.0,0.0,0.0,0.0,0.0,0.0,0.0,0.0,0.0,0.0,0.0,0.0,0.0,0.0,0.0,0.0,0.0,0.0,0.0,0.0,0.0,0.0,0.0,0.0,0.0,0.0,0.0,0.0,0.0,0.0,0.0,0.0,0.0,0.0,0.0,0.0,0.0,0.0,0.0,0.0,0.0,0.0,0.0,0.0,0.0,0.0,0.0,0.0,0.0,0.0,0.0,0.0,0.0,0.0,0.0,0.0,0.0,0.0,0.0,0.0,0.0,0.0,0.0,-3.2018,-3.3933,0.0,-3.7135,-3.8063,-3.7255,-3.4921,-3.2736,-3.1001,0.0,0.0,0.0,0.0,0.0,0.0,0.0,0.0,0.0,0.0,0.0,0.0,0.0,0.0,0.0,0.0,0.0,0.0,0.0,0.0,0.0,0.0,0.0,0.0,0.0,0.0,0.0,0.0,0.0,0.0,0.0,0.0,0.0,0.0,0.0,0.0,0.0,0.0,0.0,0.0,0.0,0.0,0.0,0.0,0.0,0.0,0.0,0.0,0.0,0.0,0.0,0.0,0.0,0.0,0.0,0.0,0.0,0.0,0.0,0.0,0.0,0.0,0.0,0.0,0.0,0.0,0.0,0.0,0.0,0.0,0.0,0.0,0.0,0.0,0.0,0.0,0.0,0.0,0.0,0.0,0.0,0.0,0.0,0.0,0.0,0.0,0.0,0.0,0.0,0.0,0.0,0.0,0.0,0.0,0.0,0.0,0.0,0.0,0.0,0.0,0.0,0.0,-2.9355,-3.1869,-3.3754,0.0,-3.6477,-3.7345,-3.6267,-3.3754,-3.1749,-3.0582,0.0,0.0,0.0,0.0,0.0,0.0,0.0,0.0,0.0,0.0,0.0,0.0,0.0,0.0,0.0,0.0,0.0,0.0,0.0,0.0,0.0,0.0,0.0,0.0,0.0,0.0,0.0,0.0,0.0,0.0,0.0,0.0,0.0,0.0,0.0,0.0,0.0,0.0,0.0,0.0,0.0,0.0,0.0,0.0,0.0,0.0,0.0,0.0,0.0,0.0,0.0,0.0,0.0,0.0,0.0,0.0,0.0,0.0,0.0,0.0,0.0,0.0,0.0,0.0,0.0,0.0,0.0,0.0,0.0,0.0,0.0,0.0,0.0,0.0,0.0,0.0,0.0,0.0,0.0,0.0,0.0,0.0,0.0,0.0,0.0,0.0,0.0,0.0,0.0,0.0,0.0,0.0,0.0,0.0,0.0,0.0,0.0,0.0,0.0,0.0,0.0,0.0,-2.9415,-3.1869,-3.3724,-3.4382,-3.5669,-3.6207,-3.5549,-3.1869,-2.9834,0.0,0.0,0.0,0.0,0.0,0.0,0.0,0.0,0.0,0.0,0.0,0.0,0.0,0.0,0.0,0.0,0.0,0.0,0.0,0.0,0.0,0.0,0.0,0.0,0.0,0.0,0.0,0.0,0.0,0.0,0.0,0.0,0.0,0.0,0.0,0.0,0.0,0.0,0.0,0.0,0.0,0.0,0.0,0.0,0.0,0.0,0.0,0.0,0.0,0.0,0.0,0.0,0.0,0.0,0.0,0.0,0.0,0.0,0.0,0.0,0.0,0.0,0.0,0.0,0.0,0.0,0.0,0.0,0.0,0.0,0.0,0.0,0.0,0.0,0.0,0.0,0.0,0.0,0.0,0.0,0.0,0.0,0.0,0.0,0.0,0.0,0.0,0.0,0.0,0.0,0.0,0.0,0.0,0.0,0.0,0.0,0.0,0.0,0.0,0.0,0.0,0.0,0.0,-2.9415,-3.1061,-3.2527,-3.3664,-3.4562,-3.4801,-3.4143,-3.1719,-3.0133,-2.9864,0.0,0.0,0.0,0.0,0.0,0.0,0.0,0.0,0.0,0.0,0.0,0.0,0.0,0.0,0.0,0.0,0.0,0.0,0.0,0.0,0.0,0.0,0.0,0.0,0.0,0.0,0.0,0.0,0.0,0.0,0.0,0.0,0.0,0.0,0.0,0.0,0.0,0.0,0.0,0.0,0.0,0.0,0.0,0.0,0.0,0.0,0.0,0.0,0.0,0.0,0.0,0.0,0.0,0.0,0.0,0.0,0.0,0.0,0.0,0.0,0.0,0.0,0.0,0.0,0.0,0.0,0.0,0.0,0.0,0.0,0.0,0.0,0.0,0.0,0.0,0.0,0.0,0.0,0.0,0.0,0.0,0.0,0.0,0.0,0.0,0.0,0.0,0.0,0.0,0.0,0.0,0.0,0.0,0.0,0.0,0.0,0.0,0.0,0.0,0.0,0.0,0.0,-2.9385,-3.0731,-3.2048,-3.3365,-3.4083,-3.4203,-3.3544,-3.142,-2.9744,-2.8846,0.0,0.0,0.0,0.0,0.0,0.0,0.0,0.0,0.0,0.0,0.0,0.0,0.0,0.0,0.0,0.0,0.0,0.0,0.0,0.0,0.0,0.0,0.0,0.0,0.0,0.0,0.0,0.0,0.0,0.0,0.0,0.0,0.0,0.0,0.0,0.0,0.0,0.0,0.0,0.0,0.0,0.0,0.0,0.0,0.0,0.0,0.0,0.0,0.0,0.0,0.0,0.0,0.0,0.0,0.0,0.0,0.0,0.0,0.0,0.0,0.0,0.0,0.0,0.0,0.0,0.0,0.0,0.0,0.0,0.0,0.0,0.0,0.0,0.0,0.0,0.0,0.0,0.0,0.0,0.0,0.0,0.0,0.0,0.0,0.0,0.0,0.0,0.0,0.0,0.0,0.0,0.0,0.0,0.0,0.0,0.0,0.0,0.0,0.0,0.0,0.0,0.0,-2.9415,-3.0702,-3.1958,-3.3335,-3.3963,-3.4053,-3.3455,-3.112,-2.9086,-2.7769,0.0,0.0,0.0,0.0,0.0,0.0,0.0,0.0,0.0,0.0,0.0,0.0,0.0,0.0,0.0,0.0,0.0,0.0,0.0,0.0,0.0,0.0,0.0,0.0,0.0,0.0,0.0,0.0,0.0,0.0,0.0,0.0,0.0,0.0,0.0,0.0,0.0,0.0,0.0,0.0,0.0,0.0,0.0,0.0,0.0,0.0,0.0,0.0,0.0,0.0,0.0,0.0,0.0,0.0,0.0,0.0,0.0,0.0,0.0,0.0,-4.4947,0.0,0.0,0.0,0.0,0.0,0.0,0.0,0.0,0.0,0.0,0.0,0.0,0.0,0.0,0.0,0.0,0.0,0.0,0.0,0.0,0.0,0.0,0.0,0.0,0.0,0.0,0.0,0.0,0.0,0.0,0.0,0.0,0.0,0.0,0.0,0.0,0.0,0.0,0.0,0.0,0.0,-3.0043,-3.0552,-3.142,-3.3305,-3.3155,-3.2886,-3.2736,-3.124,-2.9774,-2.8457,-2.7859,0.0,0.0,0.0,0.0,0.0,0.0,0.0,0.0,0.0,0.0,0.0,0.0,0.0,0.0,0.0,0.0,0.0,0.0,0.0,0.0,0.0,0.0,0.0,0.0,0.0,0.0,0.0,0.0,0.0,0.0,0.0,0.0,0.0,0.0,0.0,0.0,0.0,0.0,0.0,0.0,0.0,0.0,0.0,0.0,0.0,0.0,0.0,0.0,0.0,0.0,0.0,0.0,0.0,0.0,0.0,0.0,0.0,0.0,0.0,0.0,-4.6178,0.0,0.0,0.0,0.0,0.0,0.0,0.0,0.0,0.0,0.0,0.0,0.0,0.0,0.0,0.0,0.0,0.0,0.0,0.0,0.0,0.0,0.0,0.0,0.0,0.0,0.0,0.0,0.0,0.0,0.0,0.0,0.0,0.0,0.0,0.0,0.0,0.0,0.0,0.0,0.0,-3.0223,-3.0492,-3.115,-3.2856,-3.3006,-3.2856,-3.2527,-3.127,-2.9834,-2.8218,-2.7769,0.0,0.0,0.0,0.0,0.0,0.0,0.0,0.0,0.0,0.0,0.0,0.0,0.0,0.0,0.0,0.0,0.0,0.0,0.0,0.0,0.0,0.0,0.0,0.0,0.0,0.0,0.0,0.0,0.0,0.0,0.0,0.0,0.0,0.0,0.0,0.0,0.0,0.0,0.0,0.0,0.0,0.0,0.0,0.0,0.0,0.0,0.0,0.0,0.0,0.0,0.0,0.0,0.0,-5.5522,-5.5848,-5.5921,-5.5377,-5.545,-5.574,-5.2444,-5.0343,-4.922,0.0,0.0,0.0,0.0,0.0,0.0,0.0,0.0,0.0,0.0,0.0,0.0,0.0,0.0,0.0,0.0,0.0,0.0,0.0,0.0,0.0,0.0,0.0,0.0,0.0,-3.7425,-3.6585,0.0,0.0,0.0,0.0,0.0,0.0,0.0,0.0,0.0,0.0,0.0,0.0,-3.0402,-3.0881,-3.148,-3.2736,-3.3245,-3.3215,-3.2587,-3.139,-2.9894,-2.8038,-2.7829,-2.6531,0.0,0.0,0.0,0.0,0.0,0.0,0.0,0.0,0.0,0.0,0.0,0.0,0.0,0.0,0.0,0.0,0.0,0.0,0.0,0.0,0.0,0.0,0.0,0.0,0.0,0.0,0.0,0.0,0.0,0.0,0.0,0.0,-4.3885,-4.5281,0.0,0.0,0.0,0.0,0.0,0.0,0.0,0.0,0.0,0.0,0.0,0.0,0.0,-5.5558,-5.7297,-6.0158,-6.1027,-5.9905,-6.2693,-6.2621,-6.005,-6.0665,-6.0593,-6.0013,-5.947,0.0,-5.0959,-5.0741,0.0,0.0,0.0,0.0,0.0,0.0,0.0,0.0,0.0,0.0,0.0,0.0,0.0,0.0,0.0,0.0,0.0,0.0,0.0,0.0,0.0,0.0,-3.8875,-3.8384,-3.781,-3.6998,0.0,-3.4175,-3.2766,-3.0761,-3.0073,0.0,0.0,0.0,0.0,0.0,0.0,0.0,-3.1213,-3.2377,-3.3395,-3.4143,-3.3784,-3.3215,-3.2587,-3.1839,-3.0791,-2.9415,-2.8786,-2.8008,-2.701,-2.5435,0.0,0.0,0.0,0.0,0.0,0.0,0.0,0.0,0.0,0.0,0.0,0.0,0.0,0.0,0.0,0.0,0.0,0.0,0.0,0.0,0.0,0.0,0.0,0.0,0.0,0.0,0.0,0.0,0.0,-4.371,-4.7036,-4.4787,-4.7387,-4.8627,0.0,0.0,0.0,0.0,0.0,0.0,0.0,0.0,0.0,-5.7768,-5.9253,-6.1027,-6.3092,-6.4975,-6.5772,-6.5518,-6.6931,-6.6858,-6.5482,-6.4939,-6.4758,-6.4794,-6.3889,-6.1172,-5.7152,-5.487,-5.1864,-4.8532,0.0,0.0,0.0,0.0,-4.4506,-4.398,-4.4783,-4.4579,0.0,0.0,0.0,0.0,0.0,0.0,0.0,0.0,0.0,0.0,0.0,0.0,0.0,-3.969,-3.9628,-3.911,-3.7044,-3.5848,-3.4592,0.0,-3.2587,-3.2467,-3.1061,0.0,0.0,0.0,0.0,-3.0492,-3.1898,-3.2916,-3.3604,-3.3903,-3.3664,-3.3215,-3.2587,-3.1928,-3.0971,-2.9654,-2.8966,-2.7949,-2.6512,-2.6004,-2.5794,0.0,0.0,0.0,0.0,0.0,0.0,0.0,0.0,0.0,0.0,0.0,0.0,0.0,0.0,0.0,0.0,0.0,0.0,0.0,0.0,0.0,0.0,0.0,0.0,0.0,0.0,0.0,0.0,-4.6414,-4.9344,-4.4858,-4.9052,-5.1102,0.0,0.0,0.0,0.0,0.0,0.0,-5.7333,-5.8673,-6.0738,-6.3744,-6.5011,-6.6677,-6.8923,-6.9539,-7.0009,-7.0372,-7.0191,-6.9756,-6.914,-6.7945,-6.751,-6.7619,-6.6207,-6.4468,-6.2331,-5.8709,-5.5124,-5.1756,-5.0379,-4.8611,-4.6843,-4.7264,-4.683,-4.622,-4.7135,-4.6912,-4.6052,-4.5611,0.0,-4.2309,-4.0113,0.0,0.0,0.0,0.0,-3.9189,-3.9918,-4.0767,-4.1318,-4.1023,-4.102,-4.0462,-3.8402,-3.7181,-3.5908,0.0,-3.4173,-3.4262,-3.2766,0.0,0.0,0.0,0.0,-3.13,-3.2587,-3.3484,-3.3993,-3.3993,-3.3844,-3.3484,-3.2826,-3.2018,-3.1031,-2.9894,-2.9056,-2.7919,-2.6422,-2.6183,-2.5794,-2.5136,0.0,0.0,0.0,0.0,0.0,0.0,0.0,0.0,0.0,0.0,0.0,0.0,0.0,0.0,0.0,0.0,0.0,0.0,0.0,0.0,0.0,0.0,0.0,0.0,0.0,0.0,0.0,0.0,0.0,-4.7124,-5.304,0.0,0.0,0.0,0.0,-5.452,-5.6717,-5.9072,-6.1571,-6.3925,-6.6279,-6.8742,-7.1024,-7.3016,-7.4682,-7.4754,-7.4392,-7.3667,-7.2907,-7.135,-6.9176,-6.9104,-6.8271,-6.6822,-6.5953,-6.5084,-6.407,-6.1607,-5.7804,-5.3494,-5.2661,-5.0868,-4.8848,-4.9281,-4.8802,-4.8031,-4.8552,-4.7554,-4.6329,-4.8394,-4.7467,-4.5152,-4.2965,-4.1773,0.0,0.0,-4.121,-4.1442,-4.217,-4.1901,-4.1646,-4.2359,-4.0988,-3.956,-3.9431,-3.7886,-3.5908,0.0,-3.3036,-3.2647,-3.2527,0.0,-3.2407,-3.2467,-3.3484,-3.4053,-3.3514,-3.4592,-3.54,-3.54,-3.4831,-3.4173,-3.3514,-3.2258,-3.121,-3.0492,-2.9295,-2.8547,-2.8457,-2.6063,-2.5285,-2.6482,-2.4687,0.0,0.0,0.0,0.0,0.0,0.0,0.0,0.0,0.0,0.0,0.0,0.0,0.0,0.0,0.0,0.0,0.0,0.0,0.0,0.0,0.0,0.0,0.0,0.0,0.0,0.0,0.0,0.0,-5.4183,-5.8343,0.0,-5.8289,-5.7554,-5.8282,-6.081,-6.2766,-6.5301,-6.8706,-7.0191,-7.182,-7.3704,-7.4573,-7.5297,-7.5877,-7.5877,-7.5225,-7.3921,-7.3631,-7.2255,-6.9937,-6.943,-6.8597,-6.751,-6.617,-6.512,-6.4287,-6.2911,-6.0122,-5.6609,-5.5269,-5.3698,-5.2177,-5.2243,-5.171,-5.1083,-5.1268,-5.0202,-4.8497,-4.7403,-4.5844,-4.4158,-4.2899,-4.2336,-4.2038,-4.1541,-4.1773,-4.2204,-4.2435,-4.269,-4.2594,-4.1532,-4.0705,-3.9648,-3.7922,-3.7007,-3.6148,-3.5011,-3.4592,-3.4292,-3.3844,-3.3425,-3.3155,-3.3155,-3.3544,-3.3903,-3.4113,-3.4951,-3.5519,-3.5519,-3.4891,-3.4023,-3.2946,-3.2048,-3.0881,-2.9385,-2.8427,-2.7739,-2.732,-2.6004,-2.5285,-2.5315,-2.4627,-2.4717,0.0,0.0,0.0,0.0,0.0,0.0,0.0,0.0,0.0,0.0,0.0,0.0,0.0,0.0,0.0,0.0,0.0,0.0,0.0,0.0,0.0,0.0,0.0,0.0,0.0,0.0,-5.8428,-5.8502,-6.2364,-6.4456,-6.2936,-6.2662,-6.3802,-6.6569,-6.8307,-7.0589,-7.374,-7.4428,-7.5189,-7.6275,-7.6275,-7.6275,-7.6275,-7.6275,-7.5478,-7.3921,-7.3631,-7.2255,-6.9937,-6.914,-6.8343,-6.751,-6.5881,-6.4903,-6.4251,-6.2657,-6.0738,-5.8709,-5.7623,-5.6284,-5.49,-5.4794,-5.3985,-5.2838,-5.1915,-5.0892,-4.9492,-4.6974,-4.5516,-4.4556,-4.3562,-4.3264,-4.3098,-4.2369,-4.2502,-4.2833,-4.2568,-4.2866,-4.2736,-4.0922,-4.0165,-3.9251,-3.7258,-3.6496,-3.6028,-3.5579,-3.5519,-3.537,-3.4891,-3.4472,-3.4173,-3.4173,-3.4173,-3.4322,-3.4771,-3.522,-3.5519,-3.5519,-3.4891,-3.3933,-3.2617,-3.2108,-3.0941,-2.8757,-2.8158,-2.753,-2.6632,-2.6183,-2.5644,-2.4986,-2.4701,-2.4837,-2.5285,0.0,0.0,0.0,0.0,0.0,0.0,0.0,0.0,0.0,0.0,0.0,0.0,0.0,0.0,0.0,0.0,0.0,0.0,0.0,0.0,0.0,0.0,0.0,-4.994,-5.6557,-6.1035,-5.9891,-6.5111,-6.7725,-6.4918,-6.7156,-6.9522,-7.1458,-7.3088,-7.4682,-7.6203,-7.6275,-7.6275,-7.6275,-7.6275,-7.6275,-7.6275,-7.6275,-7.5478,-7.3921,-7.3088,-7.1458,-6.914,-6.838,-6.7547,-6.6677,-6.5084,-6.4396,-6.4106,-6.0955,-5.9651,-5.9615,-5.9542,-5.8408,-5.6776,-5.6776,-5.539,-5.3134,-5.0318,-4.9326,-4.906,-4.7469,-4.6941,-4.6643,-4.5185,-4.4721,-4.4556,-4.3827,-4.3595,-4.3429,-4.2734,-4.2535,-4.2129,-4.0788,-3.9482,-3.8275,-3.7559,-3.6429,-3.5519,-3.5519,-3.5519,-3.5519,-3.5519,-3.5519,-3.5519,-3.5519,-3.5519,0.0,-3.5519,-3.5519,-3.5519,-3.5519,-3.4921,-3.3963,-3.2617,-3.2497,-3.136,-2.8757,-2.8577,-2.7949,-2.6632,-2.6572,-2.6243,-2.5585,-2.4986,-2.4612,-2.4612,0.0,0.0,0.0,0.0,0.0,0.0,0.0,0.0,0.0,0.0,0.0,0.0,0.0,0.0,0.0,0.0,0.0,0.0,0.0,0.0,0.0,0.0,-5.6145,-5.7377,-6.2028,-6.6491,-6.9729,-7.1883,-7.3127,-7.3148,-7.3523,-7.3847,-7.4066,-7.508,-7.5841,-7.6275,-7.6275,-7.6275,-7.6275,-7.6275,-7.6275,-7.6275,-7.5732,-7.4935,-7.3885,-7.2509,-7.0915,-6.914,-6.838,-6.7257,-6.5881,-6.483,-6.407,-6.3418,-6.1969,-6.0665,-5.947,-5.8311,-5.7536,-5.7087,-5.7087,-5.5776,-5.3624,-5.1183,-4.9958,-4.9291,-4.8227,-4.7768,-4.7404,-4.5947,-4.5483,-4.5218,-4.3992,-4.323,-4.2899,-4.323,-4.2535,-4.1354,-4.0087,-3.9086,-3.8026,-3.6402,-3.5739,-3.5519,-3.5519,-3.5519,-3.5519,-3.5519,-3.5519,-3.5519,-3.5519,-3.5519,0.0,-3.5519,-3.5519,-3.5519,-3.5519,-3.534,-3.4502,-3.2677,-3.2078,-3.0881,-2.8727,-2.7679,-2.6961,-2.6602,-2.6123,-2.5585,-2.4926,-2.5196,-2.5345,0.0,0.0,0.0,0.0,0.0,0.0,0.0,0.0,0.0,0.0,0.0,0.0,0.0,0.0,0.0,0.0,0.0,0.0,0.0,0.0,0.0,0.0,-5.6893,-6.1534,-6.4769,-6.7198,-7.0159,-7.4235,-7.506,-7.5618,-7.6437,-7.608,-7.5771,-7.5653,-7.6022,-7.6275,-7.6275,-7.6275,-7.6275,-7.6275,-7.6275,-7.6275,-7.6275,-7.5841,-7.5044,-7.3885,-7.2291,-7.0698,-6.914,-6.8017,-6.6786,0.0,-6.4758,-6.3925,-6.3092,-6.1607,-6.0448,0.0,0.0,0.0,0.0,0.0,-5.4937,-5.3427,-5.1076,-4.9776,-4.9053,-4.8425,-4.8098,-4.7736,-4.6245,-4.5781,-4.5483,-4.4026,-4.3098,-4.2535,-4.2667,-4.1839,-4.0654,-3.928,-3.8718,-3.7979,-3.6224,-3.5846,-3.5782,-3.5554,-3.5519,0.0,-3.5519,-3.5519,-3.5519,-3.5519,-3.5519,-3.5519,-3.5519,-3.5519,-3.5519,-3.5519,-3.5011,-3.4083,-3.2647,-3.2168,0.0,0.0,0.0,-2.759,-2.7021,-2.6363,0.0,0.0,0.0,-2.5884,-2.5615,0.0,0.0,0.0,-2.6255,-2.6336,0.0,0.0,0.0,0.0,0.0,0.0,0.0,0.0,0.0,0.0,0.0,0.0,0.0,0.0,0.0,0.0,-6.12,-6.6312,-7.1306,-7.179,-7.2715,-7.5464,-7.6119,-7.6415,-7.6659,-7.6287,-7.6089,-7.6306,-7.6275,-7.6275,-7.6275,0.0,0.0,0.0,0.0,-7.6275,-7.6275,-7.6094,-7.5297,-7.3885,-7.2183,-7.0661,-6.9249,-6.7583,-6.6351,-6.5555,-6.4758,-6.3889,-6.2875,-6.0738,-5.9724,-5.947,-5.9361,-5.8456,-5.6957,-5.4792,-5.3618,-5.2748,-5.0528,0.0,0.0,-4.8392,-4.8196,-4.7668,-4.6275,-4.581,-4.5384,-4.4026,-4.3098,-4.2369,-4.1707,-4.0945,-4.0073,-3.8739,-3.8343,-3.7937,-3.6662,-3.6415,-3.6196,-3.5619,-3.5519,-3.5519,-3.5519,-3.5519,-3.5519,-3.5519,-3.5519,-3.5519,-3.5519,-3.5519,-3.5519,-3.5519,0.0,0.0,-3.2796,-3.2587,-3.148,-2.9086,-2.9355,-2.8996,-2.779,-2.7051,-2.6931,-2.749,-2.6871,-2.6303,-2.5704,-2.5794,-2.6123,-2.6722,-2.723,-2.7101,0.0,0.0,0.0,0.0,0.0,0.0,0.0,0.0,0.0,0.0,0.0,0.0,0.0,0.0,0.0,-5.9065,-6.3456,-6.8039,-7.3033,-7.4226,-7.5539,-7.8102,-7.8466,-7.8223,-7.7546,-7.7371,-7.7084,-7.6342,-7.6275,-7.6275,-7.6275,-7.6275,0.0,-7.6275,-7.6275,-7.6275,-7.6275,-7.5008,-7.4211,-7.3885,0.0,0.0,-7.0082,-6.7836,-6.6351,-6.5555,-6.4758,-6.3563,-6.2223,-6.1752,-6.0412,-5.8565,-5.7913,-5.7478,-5.6978,-5.4934,-5.3746,-5.2866,-5.1377,-4.9936,-4.8807,-4.9413,-4.8681,-4.7321,-4.6329,-4.5568,0.0,-4.386,-4.3098,-4.2502,-4.2336,-4.1342,-4.0205,-3.939,-3.8699,-3.7937,-3.6662,-3.6415,-3.6196,-3.5619,-3.5519,-3.5519,-3.5519,-3.5519,-3.5519,-3.5519,-3.5519,-3.5519,-3.5519,-3.5519,-3.5519,-3.5519,-3.528,-3.4831,-3.4143,-3.3125,-3.2078,-3.1031,-3.0103,-2.9235,-2.8427,-2.7739,-2.72,-2.6782,-2.6662,-2.6542,-2.6393,-2.6931,-2.726,-2.738,-2.6892,-2.6822,0.0,0.0,0.0,0.0,0.0,0.0,0.0,0.0,0.0,0.0,0.0,-4.9459,0.0,0.0,-5.7714,-6.2096,-6.5741,-6.9316,-7.3033,-7.461,-7.6,-7.7689,-7.8253,-7.8139,-7.7176,-7.7488,-7.7292,-7.6342,-7.6275,-7.6275,-7.6275,-7.6275,-7.6275,-7.6275,-7.6275,-7.6275,-7.6275,-7.5116,-7.4319,-7.3885,-7.1893,-7.0734,-7.0299,-6.8307,-6.6967,-6.6134,-6.4903,-6.3708,-6.2512,-6.1317,-5.9615,-5.7768,-5.7369,-5.7188,-5.6993,-5.5203,-5.3956,-5.2909,-5.1453,-4.9991,-4.8769,-4.8769,-4.8077,-4.7087,-4.5863,-4.5169,-4.4616,-4.3827,-4.3098,-4.2435,-4.2071,-4.1177,-4.0326,-3.9982,-3.9313,-3.8632,-3.8034,-3.7649,-3.7188,-3.6587,-3.623,-3.5998,-3.5998,-3.5729,-3.5519,-3.5519,-3.5519,-3.5519,-3.5519,-3.5519,-3.5519,-3.5519,-3.519,-3.4861,-3.4502,-3.2976,-3.1898,-3.1511,-3.0313,-2.9445,-2.9116,-2.8757,-2.8278,-2.7619,-2.759,-2.759,-2.759,-2.759,-2.797,-2.8547,-2.7867,-2.7467,0.0,0.0,0.0,0.0,0.0,0.0,0.0,0.0,-4.7875,-4.9527,-5.133,-5.3515,-5.6332,-5.8241,-6.0641,-6.4662,-6.7529,-7.0067,-7.2545,-7.4047,-7.5173,-7.5887,-7.7089,-7.7615,-7.6807,-7.734,-7.7365,-7.656,-7.6384,-7.6275,-7.6275,-7.6275,-7.6275,-7.6275,-7.6456,-7.6384,-7.6058,-7.5442,-7.4645,-7.3667,-7.2183,-7.1096,-7.0335,-6.8742,-6.7583,-6.6677,-6.4758,-6.3563,-6.2766,-6.0375,-5.8528,-5.7188,-5.7188,-5.7188,-5.7043,-5.5532,-5.4151,-5.2895,-5.1465,-5.0056,-4.8765,-4.8293,-4.767,-4.6853,-4.559,-4.4963,-4.4477,-4.3853,-4.3197,-4.2568,-4.1839,-4.121,-4.0713,-4.0448,-3.9918,-3.9457,-3.9422,-3.885,-3.8246,-3.7743,-3.7091,-3.6656,-3.6656,-3.6237,-3.5789,-3.5549,-3.5519,-3.5519,-3.5519,-3.5519,-3.5519,-3.5519,-3.5011,-3.4622,-3.4472,-3.3006,-3.1988,-3.1691,-3.0731,-3.0043,-2.9774,-2.9774,-2.9445,-2.8816,-2.8786,-2.8786,-2.8786,-2.8248,-2.8517,-2.9564,-2.9056,-2.8465,-4.0703,-4.183,-4.3745,-4.6749,-4.7575,-4.8814,0.0,0.0,-5.3883,-5.5573,-5.7826,-5.9403,-5.9028,-6.1543,-6.4247,-6.627,-6.8034,-7.0067,-7.2545,-7.3071,-7.3221,-7.3296,-7.6037,-7.784,-7.7583,-7.7673,-7.7623,-7.7357,-7.671,-7.6275,-7.6275,-7.6275,-7.6275,-7.6275,-7.7,-7.6674,-7.5261,-7.5152,-7.4356,-7.2834,-7.1929,-7.1096,-7.0335,-6.8742,-6.7583,-6.6641,-6.3599,-6.2223,-6.1969,-5.9542,-5.8021,-5.7188,-5.7188,-5.7188,-5.7029,-5.5666,-5.4313,-5.3015,-5.2264,-5.0651,-4.9086,-4.9661,-4.845,-4.6768,-4.6447,-4.5295,-4.414,-4.3898,-4.3713,-4.333,-4.2601,-4.2336,-4.1972,-4.068,-4.0315,-4.0139,-3.952,-3.885,-3.8372,-3.8361,-3.7825,-3.7315,-3.7315,-3.7255,-3.6806,-3.5669,-3.5519,-3.5519,-3.5519,-3.5519,-3.5519,-3.5519,-3.5429,-3.513,-3.4532,-3.4262,-3.3634,-3.2467,-3.2258,-3.1659,-3.0462,-3.0402,-3.0103,-2.9475,-2.9475,-2.9475,-2.9475,-2.9385,-2.9445,-2.9594,-2.9505,-2.9445,-4.2693,-4.5247,-4.795,0.0,-5.1104,-5.3057,-5.516,-5.6099,-5.7037,-5.8727,-6.0642,-6.1956,-6.1581,-6.3045,-6.466,0.0,-6.7814,-6.9917,-7.1944,-7.262,-7.2545,-7.1606,-7.3146,-7.456,-7.5176,-7.5865,-7.6346,-7.651,-7.5901,-7.5804,-7.6275,-7.6275,-7.6275,-7.6275,-7.6167,-7.6022,-7.5804,-7.4428,-7.3631,-7.3378,-7.211,-7.1096,-7.0335,-6.9213,-6.7474,-6.5301,-6.349,-6.1897,-6.0484,-5.8999,-5.7913,-5.7188,-5.7188,-5.7188,-5.7116,-5.6031,-5.4756,-5.3477,-5.2411,-5.0945,-4.9368,-4.8463,-4.747,-4.6406,-4.5505,-4.4624,-4.3956,-4.3898,-4.378,-4.3462,-4.27,-4.2535,-4.227,-4.1388,-4.1067,-4.0776,-4.0228,-3.9838,-3.9471,-3.9102,-3.8455,-3.7973,-3.7973,-3.7674,-3.7105,-3.6207,-3.6088,-3.5938,-3.5549,-3.5519,-3.5519,-3.5519,-3.5519,-3.54,-3.51,-3.4711,-3.4233,-3.3694,-3.3305,-3.2677,-3.1719,-3.1659,-3.118,-3.0133,-2.9774,-2.9744,-3.0103,-2.9385,-2.9594,-3.0702,-3.0313,-3.0342,-4.5322,-4.8401,0.0,-5.2456,-5.5047,-5.7375,-5.7638,-5.869,-6.0002,-6.1317,-6.2328,-6.2963,-6.3083,-6.3571,-6.4322,-6.5336,-6.7589,-6.9729,-7.1156,-7.1681,-7.1343,-6.9992,-6.9917,-7.0384,-7.138,-7.3162,-7.4564,-7.5223,-7.495,-7.5225,-7.6239,-7.6275,-7.6275,-7.6275,-7.5949,-7.5623,-7.5297,-7.403,-7.3342,-7.3233,-7.1857,-7.0806,-7.0009,-6.8995,-6.7257,-6.4975,-6.349,-6.1897,-6.0158,-5.8673,-5.7732,-5.7188,-5.7188,-5.7043,-5.679,-5.621,-5.505,-5.3602,-5.2357,-5.0815,-4.9076,-4.7607,-4.676,-4.6069,-4.499,-4.438,-4.3981,-4.3956,-4.3805,-4.3555,-4.3024,-4.2891,-4.2783,-4.2166,-4.191,-4.165,-4.1271,-4.0945,-4.0546,-4.008,-3.9467,-3.8943,-3.8732,-3.8272,-3.7734,-3.7105,-3.6866,-3.6447,-3.5609,-3.5519,-3.5519,-3.5519,-3.5519,-3.5519,-3.5519,-3.504,-3.4681,-3.4472,-3.4023,-3.3395,-3.2557,-3.2527,-3.1958,-3.0821,-3.0342,-3.0342,-3.0791,-2.9864,-3.0133,-3.1452,-3.1031,-3.1061,-4.8438,0.0,-5.2832,-5.6887,-5.9778,-6.1844,-6.267,-6.3215,-6.3686,-6.4131,-6.3289,-6.2641,-6.3043,-6.312,-6.3646,-6.5261,-6.7589,-6.9504,-7.0405,-6.9842,-6.9015,-6.8152,-6.665,-6.5886,0.0,-6.9605,-7.2333,-7.3841,-7.3957,-7.4645,-7.6203,-7.6275,-7.6275,-7.6275,-7.7036,-7.5949,-7.2834,-7.4283,-7.3885,-7.1567,-7.0806,-7.0009,-6.9176,-6.7583,-6.6822,-6.6569,-6.3418,-6.2005,-6.1679,-5.8528,-5.7224,-5.7188,-5.7188,-5.6717,-5.6029,-5.5993,-5.4809,-5.3021,-5.2192,-5.0184,-4.7936,-4.7902,-4.6921,-4.5737,-4.5669,-4.5014,-4.4236,-4.4155,-4.4015,-4.3898,-4.3864,-4.3864,-4.3723,-4.3069,-4.2846,-4.2765,-4.2765,-4.2058,-4.1464,-4.1433,-4.0894,-4.017,-3.9523,-3.9379,-3.911,-3.8422,-3.7793,-3.6926,-3.5669,-3.5519,-3.5519,-3.5519,-3.5519,-3.5519,-3.5519,-3.5489,-3.519,-3.4532,-3.4442,-3.3873,-3.2557,-3.2527,-3.2198,-3.1452,-3.1422,-3.1422,-3.1452,-3.1392,-3.1422,-3.1482,-3.1452,-3.1452,-5.118,0.0,-5.7676,-6.1318,-6.3233,-6.4622,-6.6049,-6.5421,-6.4271,-6.3397,-6.18,-5.9993,-5.8198,-5.9211,-6.0748,-6.203,-6.5261,-6.8264,-7.0217,-7.0705,-6.9729,-6.6687,-6.6838,0.0,0.0,0.0,0.0,-7.1829,-7.2699,-7.3812,-7.5442,-7.6529,-7.6855,-7.6311,-7.6058,-7.5406,-7.4319,-7.3776,-7.3124,-7.2291,-7.0444,-6.9176,-6.8343,-6.675,-6.541,-6.4287,-6.215,-6.0629,-5.9506,-5.7876,-5.7188,-5.7152,-5.6609,-5.6247,-5.5884,-5.4834,-5.354,-5.2263,-5.1981,-5.0724,-4.911,-4.8192,-4.7564,-4.6989,-4.6007,-4.5385,-4.4875,-4.4289,-4.4039,-4.4015,-4.3898,-4.3956,-4.3872,-4.3306,-4.3337,-4.3307,-4.2393,-4.2239,-4.1948,-4.1028,-4.0684,-4.027,-3.9553,-3.9409,-3.902,-3.7913,-3.7195,-3.6477,-3.5609,-3.5519,-3.5519,-3.5519,-3.5519,-3.5519,-3.5519,-3.5519,-3.54,-3.519,-3.516,-3.4562,-3.3215,-3.3155,-3.2647,-3.1511,-3.1091,-3.1091,-3.1482,-3.1061,-3.1091,-3.1482,-3.1482,-3.1482,-5.4934,-5.8389,-6.1956,-6.5598,-6.6913,-6.7358,-6.7679,-6.5993,-6.3758,-6.1571,-5.9042,-5.6657,-5.4726,-5.5361,-5.6893,-5.8953,-6.1994,-6.5298,-6.8677,-6.9091,-6.8377,-6.6612,-6.6673,-6.5807,0.0,0.0,0.0,-6.9347,-7.1246,-7.2979,-7.4609,-7.6203,-7.6818,-7.6311,-7.5515,-7.4971,-7.4682,-7.3378,-7.2291,-7.1422,-6.9901,-6.8452,-6.7112,-6.5772,-6.4432,-6.3092,-6.1498,-6.005,-5.8782,-5.7949,-5.7442,-5.7116,-5.6319,-5.5848,-5.545,-5.4182,-5.2888,-5.1794,-5.1544,-5.048,-4.8983,-4.7853,-4.7327,-4.6887,-4.5669,-4.524,-4.499,-4.4347,-4.4155,-4.4155,-4.4039,-4.4097,-4.4078,-4.3811,-4.382,-4.3731,-4.2932,-4.307,-4.294,-4.1557,-4.1247,-4.0962,-3.998,-3.9553,-3.905,-3.7913,-3.7434,-3.6776,-3.5639,-3.5519,-3.5519,-3.5519,-3.5519,-3.5519,-3.5519,-3.5519,-3.5519,-3.5519,-3.5519,-3.5011,-3.3903,-3.3634,-3.2976,-3.1898,-3.121,-3.1091,-3.1482,-3.1091,-3.1091,-3.1482,-3.1482,-3.1482,-5.9515,-6.2707,-6.5636,-6.9616,-7.0592,-7.0016,-6.7933,-6.519,-6.2142,-5.8887,-5.53,-5.2679,0.0,0.0,-5.2597,-5.6176,-5.8314,-6.1243,-6.6199,-6.5636,-6.5523,0.0,0.0,0.0,0.0,0.0,0.0,-6.6881,0.0,-7.2183,-7.3812,-7.5478,-7.6311,-7.6239,-7.5515,-7.4718,-7.3849,-7.3052,-7.1494,-6.9176,-6.9176,-6.7909,-6.5518,-6.4722,-6.3852,-6.2983,-6.1426,-6.0303,-5.947,-5.8673,-5.7876,-5.7043,-5.621,-5.545,-5.4762,-5.4001,-5.2834,-5.1571,-5.107,-4.963,-4.7868,-4.7192,-4.6447,-4.5669,-4.4925,-4.4654,-4.4621,-4.4384,-4.4293,-4.4293,-4.4293,-4.4293,-4.4384,-4.4553,-4.436,-4.4188,-4.427,-4.4549,-4.4401,-4.3059,-4.2589,-4.2045,-4.067,-3.9849,-3.914,-3.8482,-3.8362,-3.7674,-3.5848,-3.5579,-3.5549,-3.5549,-3.5519,-3.5519,-3.5519,-3.5519,-3.5519,-3.5519,-3.5519,-3.519,-3.4502,-3.3844,-3.3185,-3.2527,-3.1869,-3.1482,-3.1482,-3.1482,-3.1482,-3.1482,-3.1482,-3.1482,-6.3233,-6.6988,-7.0217,-7.1869,-7.1832,-7.0841,-6.8838,-6.4791,-6.033,-5.6362,-5.2238,-4.8708,0.0,0.0,0.0,-5.4562,-5.9027,0.0,-6.8002,-6.9316,0.0,-6.9842,0.0,-6.9732,-6.8107,-6.8409,0.0,0.0,-7.0227,-7.1603,-7.3776,-7.5985,-7.6637,-7.5442,-7.5225,-7.4464,-7.3016,-7.2219,-7.0915,-6.9176,-6.9176,-6.7619,-6.4685,-6.3852,-6.273,-6.1353,-6.0339,-5.947,-5.8637,-5.784,-5.7043,-5.6174,-5.4834,-5.4182,-5.4001,-5.3784,-5.3194,-5.2564,-5.3032,-5.152,-4.9409,-4.9304,-4.8376,-4.7225,-4.6447,-4.5838,-4.524,-4.4518,-4.444,-4.4497,-4.4384,-4.444,-4.4497,-4.4587,-4.4764,-4.4825,-4.437,-4.495,-4.494,-4.3105,-4.1797,-4.0667,-3.9858,-3.9133,-3.8601,-3.8422,-3.7973,-3.7494,-3.6985,-3.6507,-3.6237,-3.6237,-3.5789,-3.5519,-3.5519,-3.5519,-3.5519,-3.5519,-3.5519,-3.519,-3.4502,-3.3844,-3.3185,-3.2527,-3.1869,-3.1482,-3.1482,-3.1482,-3.1482,-3.1482,-3.1482,-3.1482,-6.7213,-7.0179,-7.2507,-7.3709,-7.2583,-7.0428,-6.7718,-6.3096,-5.8132,-5.3407,-4.926,0.0,-4.3754,0.0,0.0,0.0,0.0,0.0,-6.68,-6.8715,-7.0179,0.0,-7.2507,0.0,-7.0486,-7.0729,-7.0937,0.0,-7.1391,-7.2362,-7.3812,-7.5515,-7.6058,-7.5152,-7.4428,-7.345,-7.2183,-7.1748,-7.0734,-6.9176,-6.8452,-6.6641,-6.3816,-6.2657,-6.1462,-6.0231,0.0,-5.8818,-5.8347,-5.7514,-5.6935,-5.6355,-5.4834,-5.4436,-5.4653,-5.4363,-5.3989,-5.3764,-5.4311,-5.2854,-5.0702,-5.0198,-4.93,-4.808,-4.6733,-4.5805,-4.5128,-4.4575,-4.4497,-4.4553,-4.444,-4.4767,-4.4993,-4.4654,-4.4956,-4.5219,-4.4956,-4.541,-4.5365,-4.3515,-4.193,-4.0492,-3.9601,-3.911,-3.8841,-3.8841,-3.8542,-3.8302,-3.8302,-3.7225,-3.6387,-3.6088,-3.5729,-3.5519,-3.5519,-3.5519,-3.5519,-3.5519,-3.5519,-3.534,-3.4951,-3.4292,-3.3604,-3.2946,-3.2287,-3.175,-3.1482,-3.1482,-3.1482,-3.1482,-3.1482,-3.1482,-7.0968,-7.2883,-7.3972,-7.4986,-7.2996,-6.9716,-6.5627,-6.0766,-5.5655,-5.0453,0.0,-4.3683,-4.2437,-4.3093,-4.5004,-4.8684,0.0,-5.7152,-6.4691,-6.642,-6.8828,-7.3804,-7.4076,-7.3461,-7.2664,-7.2334,-7.2169,-7.2227,-7.2972,-7.3556,-7.3849,-7.4682,-7.5008,-7.479,-7.3233,-7.2074,-7.135,-7.1241,-7.0408,-6.885,-6.7366,-6.5337,-6.2838,-6.1317,-6.0194,-5.9398,0.0,0.0,-5.8166,-5.7369,-5.6971,-5.6754,-5.5305,-5.5196,-5.5776,-5.5269,-5.4979,-5.4967,-5.5147,-5.3868,-5.1981,-5.0679,-4.9528,-4.8346,-4.6418,-4.5331,-4.4722,-4.4621,-4.4587,-4.4587,-4.4587,-4.506,-4.5432,-4.4857,-4.5183,-4.5572,-4.5781,-4.5845,-4.5436,-4.4058,-4.2521,-4.0985,-3.9673,-3.9409,-3.9409,-3.9409,-3.9409,-3.9379,-3.929,-3.7734,-3.6387,-3.5818,-3.5609,-3.5519,-3.5519,-3.5519,-3.5519,-3.5519,-3.5519,-3.5519,-3.5519,-3.4831,-3.4203,-3.3634,-3.2886,-3.2228,-3.1601,-3.1511,-3.1482,-3.1482,-3.1482,-3.1482,-7.3033,-7.5849,-7.7426,-7.5023,-7.3446,-7.0804,-6.4395,-5.8604,0.0,0.0,-4.4586,-4.1625,-4.0903,-4.2446,-4.5254,-4.9696,0.0,0.0,0.0,0.0,-6.9746,0.0,0.0,0.0,0.0,0.0,0.0,0.0,0.0,-7.3556,-7.3849,-7.4682,-7.45,-7.316,-7.1603,-7.0734,-7.0589,-6.9901,-6.8778,-6.7184,-6.6243,-6.4215,-6.1172,-6.0231,-5.9361,-5.8601,-5.8456,0.0,-5.7333,-5.6536,-5.5848,-5.5233,-5.4291,-5.4399,-5.516,-5.5631,-5.5414,-5.5015,-5.5641,-5.4891,-5.3442,-5.2184,-5.0129,-4.7853,-4.6912,-4.6075,-4.5365,-4.4756,-4.4587,-4.4587,-4.4587,-4.4688,-4.4891,-4.5399,-4.5925,-4.6312,-4.6312,-4.5763,-4.5002,-4.4221,-4.2785,-4.123,-3.9907,-3.9481,-3.9409,-3.9409,-3.9409,-3.92,-3.8631,-3.7793,-3.7195,-3.7075,-3.6148,-3.5519,-3.5519,-3.5519,-3.5519,-3.5519,-3.5519,-3.5519,-3.5519,-3.4831,-3.4412,-3.4292,-3.3125,-3.2467,-3.2347,-3.175,-3.1482,-3.1482,-3.1482,-3.1482,-7.4685,-7.66,-7.7314,-7.5324,-7.2583,-6.8672,-6.2283,0.0,0.0,0.0,-4.3441,-4.1095,-4.037,-4.1459,0.0,0.0,0.0,0.0,0.0,0.0,0.0,0.0,0.0,0.0,0.0,0.0,0.0,0.0,0.0,-7.3946,-7.4464,-7.4102,-7.306,-7.124,-7.0482,-6.9805,-6.9182,-6.8218,-6.7089,-6.5898,-6.4447,-6.2476,-6.0158,-5.9361,-5.8746,-5.8383,-5.7949,0.0,-5.7152,-5.6319,-5.5776,-5.5414,-5.5051,-5.5377,-5.6138,-5.65,-5.6391,-5.6102,-5.6029,-5.5152,-5.3744,-5.2446,-5.0679,-4.8719,-4.7242,-4.6278,-4.5635,-4.5263,-4.4891,-4.4688,-4.506,-4.5432,-4.5737,-4.5703,-4.649,-4.7241,-4.7087,-4.6454,-4.5709,-4.5437,-4.3623,-4.1912,-4.0944,-4.0375,-3.9809,-3.9481,-3.911,-3.8751,-3.8422,-3.7524,-3.6926,-3.6926,-3.6058,-3.5519,-3.5519,-3.5519,-3.5519,-3.5519,-3.5519,-3.5519,-3.5519,-3.519,-3.4831,-3.4472,-3.3844,-3.3365,-3.3036,-3.2377,-3.2048,-3.2048,-3.1631,-3.1482,-7.5474,-7.6751,-7.6826,-7.5474,-7.1531,-6.6425,-6.0417,-5.5085,0.0,0.0,-4.2739,-4.1065,-4.0251,-4.0529,-4.1788,0.0,-4.6776,0.0,0.0,0.0,0.0,0.0,0.0,0.0,0.0,0.0,0.0,0.0,0.0,0.0,-7.45,-7.2842,-7.1232,-6.9829,-6.9225,-6.8522,-6.7653,-6.6433,-6.5298,-6.4291,-6.2562,-6.0991,-5.9579,-5.8782,-5.8383,-5.8347,-5.7369,0.0,0.0,-5.6102,-5.5848,-5.5993,-5.5993,-5.6464,-5.7188,-5.7188,-5.708,-5.6826,-5.6029,-5.49,-5.3511,-5.2075,-5.0893,-4.9574,-4.7461,-4.6515,-4.6109,-4.5805,-4.5399,-4.5196,-4.5771,-4.638,-4.6684,-4.6278,-4.7132,-4.8017,-4.7922,-4.7309,-4.6738,-4.6553,-4.4537,-4.2692,-4.2046,-4.1048,-4.0161,-3.9553,-3.896,-3.8601,-3.8601,-3.7614,-3.6836,-3.6686,-3.5968,-3.5519,-3.5519,-3.5519,-3.5519,-3.5519,-3.5519,-3.5519,-3.5519,-3.5519,-3.525,-3.4711,-3.4562,-3.4233,-3.3694,-3.3036,-3.2647,-3.2497,-3.1988,-3.1601,-7.461,-7.7164,-7.814,-7.5061,-7.1118,-6.6274,-5.9703,0.0,0.0,-4.4909,-4.2619,-4.1065,-4.0228,-3.9808,-4.0771,-4.4432,0.0,-4.8049,0.0,0.0,0.0,0.0,0.0,0.0,0.0,0.0,0.0,0.0,0.0,0.0,-7.2871,-7.0482,-6.9281,-6.9757,-6.7454,-6.6117,-6.6046,-6.4757,-6.3356,-6.181,-6.119,-6.0448,-5.9579,-5.8782,-5.8383,-5.8311,-5.679,0.0,0.0,-5.5305,-5.5414,-5.5993,-5.5993,-5.6464,-5.7188,-5.7188,-5.6717,-5.5993,-5.5269,-5.4093,-5.264,-5.1264,-5.0384,-4.9481,-4.7461,-4.7225,-4.7428,-4.6075,-4.6143,-4.6616,-4.6684,-4.6752,-4.6955,-4.7564,-4.8219,-4.8731,-4.8855,-4.8127,-4.7342,-4.6941,-4.4943,-4.3113,-4.2422,-4.094,-3.9768,-3.9696,-3.9421,-3.932,-3.932,-3.8661,-3.7973,-3.7375,-3.6237,-3.5519,-3.5519,-3.5519,-3.5519,-3.5519,-3.5519,-3.5519,-3.5519,-3.5519,-3.5459,-3.54,-3.4801,-3.4442,-3.4382,-3.3724,-3.3095,-3.2527,-3.2467,-3.2108,-7.2132,-7.4986,-7.63,-7.4009,-6.9203,-6.3683,-5.8539,0.0,-4.6352,-4.3274,-4.1579,-4.0265,-3.9338,-3.8972,-3.9703,-4.2364,0.0,0.0,0.0,0.0,0.0,0.0,0.0,0.0,0.0,0.0,0.0,0.0,0.0,0.0,-6.9865,-6.9307,-6.8605,-6.7707,-6.6182,-6.4777,-6.3663,-6.239,-6.1394,-6.0804,-5.9781,-5.918,-5.8854,-5.8058,-5.7406,-5.6899,-5.6283,0.0,0.0,-5.5486,-5.574,-5.6029,-5.6536,-5.6899,-5.7188,-5.7188,-5.6681,-5.5884,-5.516,-5.3986,-5.2533,-5.1158,-5.0349,-4.9584,-4.7946,-4.7665,-4.78,-4.7192,-4.6921,-4.6887,-4.7361,-4.7462,-4.7665,-4.8409,-4.9058,-4.9497,-4.9086,-4.8721,-4.8266,-4.7603,-4.5958,-4.4299,-4.3189,-4.1907,-4.072,-3.9828,-3.9193,-3.8811,-3.8811,-3.8212,-3.7554,-3.6926,-3.6387,-3.5938,-3.5549,-3.5519,-3.5519,-3.5519,-3.5519,-3.5519,-3.5519,-3.5519,-3.5519,-3.5519,-3.525,-3.51,-3.51,-3.4412,-3.3754,-3.3095,-3.2706,-3.2168,-6.8828,-7.1681,-7.3296,-7.2094,-6.6838,-6.1017,0.0,0.0,-4.4665,-4.2277,-4.0903,-3.9785,-3.8793,-3.8528,-3.9008,0.0,0.0,-4.2221,-4.7947,0.0,0.0,0.0,0.0,0.0,0.0,0.0,0.0,0.0,0.0,0.0,0.0,-6.7615,-6.7329,-6.5945,-6.4842,-6.3478,-6.1854,-6.0597,-5.9813,-5.9598,-5.877,-5.8275,-5.8021,-5.7442,-5.6899,-5.6319,0.0,0.0,0.0,-5.5884,-5.6138,-5.6391,-5.6971,-5.7043,-5.6826,-5.6826,-5.6355,-5.5558,-5.4798,-5.3904,-5.2824,-5.1247,-5.0425,-4.9884,-4.8617,-4.824,-4.8206,-4.797,-4.7699,-4.7564,-4.8105,-4.824,-4.8376,-4.8883,-4.939,-4.9627,-4.912,-4.9013,-4.8859,-4.8325,-4.6782,-4.5194,-4.3913,-4.249,-4.1168,-3.9858,-3.9204,-3.8762,-3.8691,-3.8372,-3.7743,-3.6836,-3.6776,-3.6417,-3.5579,-3.5519,-3.5519,-3.5519,-3.5519,-3.5519,-3.5519,-3.5519,-3.5519,-3.5519,-3.5519,-3.5519,-3.5519,-3.5011,-3.4352,-3.3484,-3.3036,-3.2347,-6.466,-6.7401,-6.9278,-6.9241,-6.4247,-5.8689,0.0,0.0,-4.4045,-4.2329,-4.1017,-3.9845,-3.9039,-3.8533,-3.8717,-4.0274,-4.0492,0.0,0.0,0.0,0.0,0.0,0.0,0.0,0.0,0.0,0.0,0.0,0.0,0.0,0.0,-6.5038,-6.5039,-6.5143,-6.3238,-6.1843,-6.0998,-5.9716,-5.8735,-5.8071,-5.8264,-5.7985,-5.7224,-5.7188,-5.7188,0.0,0.0,0.0,0.0,-5.6319,-5.6464,-5.7188,-5.7188,-5.6717,-5.5993,-5.5993,-5.5558,-5.4798,-5.4001,-5.3711,-5.3339,-5.1352,-5.0697,-5.048,-4.9316,-4.8984,-4.8849,-4.8139,-4.8443,-4.8984,-4.8984,-4.8984,-4.8984,-4.9018,-4.9018,-4.9018,-4.9018,-4.9018,-4.9018,-4.9018,-4.724,-4.5532,-4.4623,-4.256,-4.0698,-3.9858,-3.9666,-3.9595,-3.9409,-3.9523,-3.9083,-3.7524,-3.7404,-3.6896,-3.5609,-3.5519,-3.5519,-3.5519,-3.5519,-3.5519,-3.5519,-3.5519,-3.5519,-3.5519,-3.5519,-3.5519,-3.5519,-3.5489,-3.4801,-3.3484,-3.3484,-3.2766,-5.8164,-6.0529,-6.2294,-6.1768,-5.7901,-5.377,-5.1855,0.0,-4.2415,-4.1156,-4.0048,-3.9158,-3.8719,-3.8368,-3.8749,-4.0479,-4.0769,0.0,0.0,0.0,0.0,0.0,0.0,0.0,0.0,0.0,0.0,0.0,0.0,0.0,0.0,-6.5064,-6.4888,-6.3812,-6.2145,-6.0899,-6.0015,-5.8536,-5.7939,-5.8264,-5.7789,-5.7732,-5.7985,-5.7442,0.0,0.0,0.0,0.0,0.0,-5.6102,-5.6138,-5.6355,-5.6355,-5.5921,-5.5269,-5.5269,-5.4762,-5.4037,-5.3784,-5.3075,-5.2158,-5.1521,-5.0786,-5.0102,-4.9698,-4.935,-4.8951,-4.8714,-4.8815,-4.9018,-4.9018,-4.9018,-4.9018,-4.9018,-4.939,-4.9593,-4.912,-4.939,-4.9468,-4.8453,-4.7308,-4.6108,-4.4851,-4.3469,-4.2328,-4.1584,-4.1346,-4.12,-4.0979,-4.0661,-3.9775,-3.8212,-3.7674,-3.6896,-3.5609,-3.5519,-3.5519,-3.5519,-3.5519,-3.5519,-3.5519,-3.5519,-3.5519,-3.5519,-3.5519,-3.5519,-3.5519,-3.5519,-3.4801,-3.3484,-3.2587,-3.1928,0.0,-5.5348,-5.6962,-5.6737,-5.3583,0.0,0.0,-4.5077,-4.122,-4.0523,-3.9526,-3.8713,-3.8523,-3.8336,-3.8676,-4.0081,-4.0552,0.0,0.0,0.0,0.0,0.0,0.0,0.0,0.0,0.0,0.0,0.0,0.0,0.0,0.0,0.0,-6.4168,-6.2741,-6.16,-6.057,-5.9615,-5.7985,-5.7442,-5.7949,-5.7442,-5.7297,-5.7478,-5.6971,0.0,0.0,0.0,0.0,0.0,-5.6138,-5.5993,-5.5957,-5.5703,-5.5124,-5.4436,-5.4436,-5.3929,-5.3241,-5.3241,-5.269,-5.1884,-5.1414,-5.046,-4.9555,-4.9555,-4.929,-4.9018,-4.9018,-4.9018,-4.9018,-4.9018,-4.9018,-4.9018,-4.9018,-4.9357,-4.956,-4.9086,-4.9357,-4.94,-4.8453,-4.7704,-4.6841,-4.5653,-4.4693,-4.379,-4.2602,-4.254,-4.2322,-4.173,-4.1157,-4.0341,-3.9043,-3.8012,-3.6985,-3.5968,-3.5639,-3.5519,-3.5519,-3.5519,-3.5519,-3.5519,-3.5519,-3.5519,-3.5519,-3.5519,-3.5519,-3.5519,-3.4981,-3.4203,-3.3095,-3.2287,-3.1898,0.0,-5.1367,0.0,0.0,0.0,0.0,0.0,0.0,0.0,-4.0309,-3.9342,-3.8528,-3.8564,-3.8372,-3.85,-3.9405,0.0,0.0,0.0,0.0,0.0,0.0,0.0,0.0,0.0,0.0,0.0,0.0,0.0,0.0,0.0,0.0,-6.3201,-6.1985,-6.1617,-6.082,-5.9595,-5.7985,-5.7188,-5.7188,-5.7188,-5.679,-5.6066,-5.6066,0.0,0.0,0.0,0.0,0.0,-5.621,-5.5884,-5.5776,-5.5088,-5.4327,-5.3603,-5.3603,-5.3132,-5.248,-5.2408,-5.2408,-5.2232,-5.0928,-4.9872,-4.9006,-4.8849,-4.8883,-4.8951,-4.8984,-4.8951,-4.8951,-4.8984,-4.9018,-4.9018,-4.9018,-4.9018,-4.9018,-4.9018,-4.9018,-4.9018,-4.9018,-4.8386,-4.7669,-4.6845,-4.6059,-4.492,-4.327,-4.3247,-4.3065,-4.2031,-4.1455,-4.0758,-3.9757,-3.8382,-3.7195,-3.6477,-3.5848,-3.5519,-3.5519,-3.5519,-3.5519,-3.5519,-3.5519,-3.5519,-3.5519,-3.5519,-3.5489,-3.5429,-3.4113,-3.3185,-3.2587,-3.2527,-3.2527,-4.4984,0.0,-4.7049,-4.5359,-4.4684,-4.412,0.0,0.0,0.0,0.0,0.0,0.0,0.0,-3.874,-3.8862,0.0,0.0,0.0,0.0,0.0,0.0,0.0,0.0,0.0,0.0,0.0,0.0,0.0,0.0,0.0,0.0,-6.4162,-6.3626,-6.2383,-6.1663,-6.0646,-5.9164,-5.7847,-5.7188,-5.7188,-5.7188,-5.708,-5.6899,-5.6899,0.0,0.0,0.0,0.0,-5.545,-5.5233,-5.4798,-5.4218,-5.4037,-5.3494,-5.277,-5.277,-5.2661,-5.2408,-5.1792,-5.1574,-5.1293,-4.9513,-4.9151,-4.9153,-4.7758,-4.7733,-4.8308,-4.8849,-4.8612,-4.8308,-4.8849,-4.9018,-4.9018,-4.9018,-4.9018,-4.9018,-4.9018,-4.9018,-4.9018,-4.9018,-4.8386,-4.7835,-4.7669,-4.6536,-4.5524,-4.5079,-4.4642,-4.4154,-4.3731,-4.3001,-4.1789,-3.9877,-3.8802,-3.7494,-3.5878,-3.5579,-3.5519,-3.5519,-3.5519,-3.5519,-3.5519,-3.5519,-3.5519,-3.5519,-3.5519,-3.525,-3.4711,-3.3903,-3.3425,-3.3245,-3.2736,-3.2766,-4.3031,-4.3895,-4.4759,-4.3031,-4.2656,-4.2468,-4.1567,0.0,0.0,0.0,0.0,0.0,0.0,0.0,0.0,0.0,0.0,0.0,0.0,0.0,0.0,0.0,0.0,0.0,0.0,0.0,0.0,0.0,0.0,0.0,0.0,-6.3266,-6.2666,-6.1681,-6.1069,-6.0246,-5.9218,-5.8032,-5.7486,-5.7486,-5.7289,-5.7188,-5.7188,-5.6826,-5.6391,0.0,0.0,0.0,-5.487,-5.4508,-5.411,-5.3675,-5.3277,-5.2878,-5.248,-5.248,-5.2263,-5.1864,-5.143,-5.0895,-5.0139,-4.8811,-4.8732,-4.891,-4.769,-4.7597,-4.8003,-4.8376,-4.8477,-4.8511,-4.8917,-4.9018,-4.9018,-4.9018,-4.9018,-4.9018,-4.9018,-4.9018,-4.9018,-4.9018,-4.8673,-4.8386,-4.8386,-4.777,-4.7069,-4.6657,-4.6308,-4.5881,-4.5258,-4.4268,-4.3065,-4.1845,-4.0059,-3.8604,-3.7621,-3.6658,-3.5973,-3.5489,-3.5519,-3.5519,-3.5519,-3.5519,-3.5519,-3.5519,-3.5519,-3.516,-3.4472,-3.4113,-3.3784,-3.3484,-3.3425,-3.3604,-4.2366,-4.3219,-4.4233,-4.3031,-4.2468,-4.2104,-4.1815,0.0,0.0,0.0,0.0,0.0,0.0,-3.9007,0.0,0.0,0.0,0.0,0.0,0.0,0.0,0.0,0.0,0.0,0.0,0.0,0.0,0.0,0.0,0.0,0.0,-6.1986,-6.143,-6.0642,-6.0182,-5.9748,-5.9301,-5.83,-5.7763,-5.7679,-5.7229,-5.7007,-5.6971,-5.6174,-5.5776,0.0,0.0,0.0,-5.4472,-5.3784,-5.353,-5.3422,-5.2625,-5.2371,-5.248,-5.2226,-5.1756,-5.1249,-5.0995,-5.0073,-4.8889,-4.8267,-4.8223,-4.8333,-4.7573,-4.7564,-4.7733,-4.7631,-4.8206,-4.8849,-4.8849,-4.8917,-4.9018,-4.9018,-4.9018,-4.9018,-4.9018,-4.9018,-4.9018,-4.9018,-4.9018,-4.9018,-4.9018,-4.8923,-4.8576,-4.7737,-4.7671,-4.7373,-4.6287,-4.5122,-4.4257,-4.3904,-4.1438,-3.9813,-3.962,-3.7899,-3.6477,-3.5619,-3.5554,-3.5489,-3.5519,-3.5519,-3.5519,-3.5519,-3.5519,-3.516,-3.4472,-3.4472,-3.4203,-3.3664,-3.4233,-3.4532,-4.2066,-4.3219,-4.382,-4.0891,-4.1642,-4.2677,-4.1026,-4.028,0.0,0.0,0.0,0.0,0.0,-3.9731,-4.0057,0.0,0.0,0.0,0.0,0.0,0.0,0.0,0.0,0.0,0.0,0.0,0.0,0.0,0.0,0.0,0.0,0.0,-6.143,-6.0642,-5.9853,-5.9065,-5.8316,-5.798,-5.7631,-5.7289,-5.655,-5.6174,-5.6138,-5.5414,-5.4689,0.0,0.0,-5.3494,-5.2842,-5.2733,-5.2661,-5.2589,-5.1792,-5.19,-5.2335,-5.0959,-5.0814,-5.1104,-4.9764,-4.8706,-4.7767,-4.6777,-4.6876,-4.7108,-4.5567,-4.5974,-4.6853,-4.621,-4.7022,-4.8071,-4.8071,-4.8545,-4.9018,-4.9018,-4.9018,-4.9018,-4.9018,-4.9018,-4.9018,-4.9018,-4.9018,-4.9018,-4.9018,-4.8513,-4.8032,-4.7901,-4.7339,-4.6669,-4.5918,-4.5423,-4.4519,-4.2784,-4.1501,-4.007,-3.8465,-3.725,-3.6384,-3.5688,-3.5688,-3.5589,-3.5489,-3.5519,-3.5519,-3.5519,-3.5519,-3.516,-3.4472,-3.4472,-3.4412,-3.4322,-3.4412,-3.4771,-4.1492,-4.2243,-4.2693,-4.0741,-4.2093,-4.3577,-4.2089,-4.1252,0.0,0.0,0.0,0.0,0.0,0.0,0.0,0.0,0.0,0.0,0.0,0.0,0.0,0.0,0.0,0.0,0.0,0.0,0.0,0.0,0.0,0.0,0.0,0.0,-5.9438,-5.929,-5.8427,-5.7715,-5.7117,-5.7019,-5.6823,-5.6502,-5.5905,-5.5571,-5.5377,-5.4617,-5.4037,-5.3639,0.0,-5.219,-5.1828,-5.1357,-5.1466,-5.1792,-5.143,-5.1792,-5.2299,-5.0669,-5.0307,-5.0416,-4.8822,-4.8025,-4.7493,-4.6472,-4.6625,-4.6984,-4.5623,-4.594,-4.665,-4.5906,-4.6786,-4.7936,-4.7936,-4.8477,-4.9018,-4.9018,-4.9018,-4.9018,-4.9018,-4.9018,-4.8883,-4.8477,-4.8409,-4.8274,-4.7868,-4.7524,-4.734,-4.734,-4.6995,-4.6609,-4.6182,-4.5692,-4.5065,-4.4042,-4.2532,-4.1114,-3.9962,-3.843,-3.6995,-3.5653,-3.5589,-3.5554,-3.5489,-3.5519,-3.5519,-3.5519,-3.5519,-3.534,-3.504,-3.504,-3.504,-3.504,-3.504,-3.519,-4.0966,-4.1417,-4.1841,-4.1229,0.0,-4.4074,-4.349,-4.2749,-4.2193,0.0,0.0,0.0,0.0,0.0,0.0,0.0,0.0,0.0,0.0,0.0,0.0,0.0,0.0,0.0,0.0,0.0,0.0,0.0,0.0,0.0,0.0,0.0,-5.749,-5.7826,-5.7037,-5.6367,-5.5846,-5.566,-5.5581,-5.5586,-5.5016,-5.4556,-5.4096,-5.3251,-5.2842,-5.277,-5.1538,-5.0995,-5.0959,-5.0343,-5.0452,-5.0995,-5.0814,-5.0995,-5.1249,-5.0198,-4.9691,-4.9365,-4.8134,-4.7699,-4.7493,-4.6472,-4.6484,-4.6774,-4.5738,-4.5838,-4.6143,-4.5602,-4.638,-4.7394,-4.7394,-4.7936,-4.8477,-4.8477,-4.8477,-4.8545,-4.8714,-4.8612,-4.8376,-4.8003,-4.7767,-4.7462,-4.6887,-4.6786,-4.6786,-4.6786,-4.6786,-4.6659,-4.6338,-4.5833,-4.5428,-4.526,-4.3429,-4.1733,-4.0713,-3.8875,-3.721,-3.5829,-3.5794,-3.5734,-3.5519,-3.5639,-3.5729,-3.5729,-3.5729,-3.5729,-3.5729,-3.5579,-3.5519,-3.5519,-3.5519,-3.5519,-4.0816,-4.1417,-4.1991,-4.1916,-4.2656,-4.3605,-4.4535,-4.4694,0.0,-4.6844,0.0,0.0,0.0,0.0,0.0,0.0,0.0,0.0,0.0,0.0,0.0,0.0,0.0,0.0,0.0,0.0,0.0,0.0,0.0,0.0,0.0,0.0,0.0,-5.7,-5.6174,-5.5313,-5.4525,-5.3774,-5.3868,-5.4695,-5.3622,-5.2761,-5.1871,-5.0846,-5.0343,-5.0343,-5.0234,-5.0162,-5.0162,-5.009,-5.0126,-5.009,-4.9365,-4.8677,-4.8134,-4.8749,-4.8532,-4.788,-4.7735,-4.7699,-4.7493,-4.6472,-4.6133,-4.6005,-4.5009,-4.4688,-4.4722,-4.4688,-4.5229,-4.5872,-4.5872,-4.6413,-4.6955,-4.6955,-4.6955,-4.7158,-4.7834,-4.7428,-4.7158,-4.78,-4.7361,-4.6853,-4.6819,-4.6786,-4.6786,-4.6786,-4.6786,-4.6549,-4.5872,-4.5737,-4.5432,-4.4722,-4.3304,-4.1285,-3.8586,-3.7033,-3.628,-3.6622,-3.6622,-3.6285,-3.5519,-3.6088,-3.6417,-3.6417,-3.6417,-3.6417,-3.6417,-3.5789,-3.5519,-3.5519,-3.5519,-3.5519,-4.0002,-4.0525,-4.1128,-4.1651,-4.2284,0.0,0.0,-4.555,-4.6322,-4.6839,-4.7011,0.0,0.0,0.0,0.0,0.0,0.0,0.0,0.0,0.0,0.0,0.0,0.0,0.0,0.0,0.0,0.0,0.0,0.0,0.0,0.0,0.0,0.0,-5.4276,-5.3631,-5.317,-5.2869,-5.2531,-5.2217,-5.1862,-5.1972,-5.1627,-5.0926,-5.0508,-5.0271,-5.0053,-4.9582,-4.9365,-4.9329,-4.8822,-4.8894,-4.9365,-4.9582,-4.9438,-4.9148,-4.8967,-4.8713,-4.8387,-4.788,-4.7699,-4.7493,-4.6472,-4.6098,-4.59,-4.4906,-4.4587,-4.4587,-4.4587,-4.479,-4.5128,-4.5568,-4.6244,-4.6786,-4.6786,-4.7158,-4.7428,-4.7259,-4.7361,-4.7293,-4.6684,-4.6312,-4.5974,-4.55,-4.5399,-4.5399,-4.5399,-4.5399,-4.5331,-4.5026,-4.4993,-4.4891,-4.4621,-4.3337,-4.1658,-3.9674,-3.9094,-3.8521,-3.7745,-3.702,-3.6603,-3.6686,-3.6926,-3.6866,-3.6507,-3.6477,-3.6297,-3.5878,-3.5639,-3.5519,-3.5519,-3.5519,-3.5519,-3.9037,-3.9293,-3.9751,-4.0568,0.0,0.0,-4.5331,-4.68,-4.7813,-4.8285,-4.8417,-4.8193,-4.7409,0.0,0.0,0.0,0.0,0.0,0.0,0.0,0.0,0.0,0.0,0.0,0.0,0.0,0.0,0.0,0.0,0.0,0.0,0.0,0.0,0.0,-5.2061,-5.178,-5.1518,-5.1518,-5.1007,-4.9982,-5.0546,-5.0416,-4.972,-4.9674,-4.9543,-4.9293,-4.8749,-4.8532,-4.8496,-4.7953,-4.8025,-4.8605,-4.9112,-4.9329,-4.9257,-4.8713,-4.8532,-4.846,-4.7916,-4.7699,-4.7572,-4.666,-4.6244,-4.595,-4.5089,-4.472,-4.4587,-4.4587,-4.4587,-4.4688,-4.5229,-4.5737,-4.6109,-4.6109,-4.6481,-4.6786,-4.6515,-4.6684,-4.665,-4.5872,-4.55,-4.5196,-4.4688,-4.4587,-4.4587,-4.4587,-4.4587,-4.4587,-4.4587,-4.4587,-4.4497,-4.4293,-4.2989,-4.1741,-4.0832,-4.0347,-3.9755,-3.8917,-3.7907,-3.7491,-3.7849,-3.7751,-3.7541,-3.711,-3.691,-3.6447,-3.5818,-3.5644,-3.5554,-3.5519,-3.5554,-3.5554,-3.7923,-3.7701,-3.7923,-3.8744,0.0,0.0,-4.7119,-4.8693,-4.9888,-5.2055,-4.9803,-4.7731,-4.8743,0.0,0.0,0.0,0.0,0.0,0.0,0.0,0.0,0.0,0.0,0.0,0.0,0.0,0.0,0.0,0.0,0.0,0.0,0.0,0.0,0.0,-5.1724,-5.148,-5.0691,-5.0691,-5.0278,-4.949,-4.949,-4.8993,-4.8114,-4.7829,-4.7699,-4.7699,-4.7699,-4.7699,-4.7699,-4.7699,-4.7699,-4.7699,-4.7699,-4.7699,-4.7699,-4.7699,-4.7699,-4.7699,-4.7699,-4.7699,-4.7615,-4.7062,-4.6566,-4.6,-4.5442,-4.4981,-4.4587,-4.4587,-4.4587,-4.4587,-4.4587,-4.4587,-4.4587,-4.4587,-4.4587,-4.479,-4.5534,-4.5128,-4.479,-4.5534,-4.5094,-4.4587,-4.4587,-4.4587,-4.4587,-4.4587,-4.4587,-4.4587,-4.4587,-4.4587,-4.4293,-4.3588,-4.2237,-4.1445,-4.1541,-4.0038,-3.9454,-4.0163,-3.9437,-3.8965,-3.8803,-3.8584,-3.8409,-3.8477,-3.7782,-3.7105,-3.6477,-3.5954,-3.5653,-3.5519,-3.5653,-3.5653,-3.8715,-3.8405,0.0,-4.0675,0.0,0.0,0.0,-4.8805,0.0,0.0,-5.1674,-5.0724,-4.9908,0.0,0.0,0.0,0.0,0.0,0.0,0.0,0.0,0.0,0.0,0.0,0.0,0.0,0.0,0.0,0.0,0.0,0.0,0.0,0.0,0.0,-4.97,-4.9861,-4.9865,-4.9865,-4.9621,-4.9127,-4.9127,-4.8925,-4.8458,-4.8382,-4.8111,-4.7699,-4.7699,-4.7699,-4.7699,-4.7699,-4.7699,-4.7699,-4.7699,-4.7699,-4.7699,-4.7699,-4.7699,-4.7699,-4.7699,-4.7699,-4.7615,-4.7062,-4.6566,-4.6,-4.5442,-4.4981,-4.4587,-4.4587,-4.4587,-4.4587,-4.4587,-4.4587,-4.4587,-4.4587,-4.4993,-4.5297,-4.4993,-4.5162,-4.5297,-4.4959,-4.4722,-4.4587,-4.4587,-4.4587,-4.4587,-4.4587,-4.4587,-4.4587,-4.4587,-4.4587,-4.4497,-4.4293,-4.3923,-4.3437,-4.2927,-4.2473,-4.1699,-4.0482,-4.0452,-4.0039,-3.8947,-3.8402,-3.7879,-3.744,-3.7213,-3.6844,-3.6148,-3.5872,-3.5688,-3.5653,-3.5589,-3.5554,-3.7754,-3.7765,0.0,-4.0883,-4.2668,-4.4765,-4.8315,0.0,0.0,0.0,0.0,-5.19,0.0,0.0,0.0,0.0,0.0,0.0,0.0,0.0,0.0,0.0,0.0,0.0,0.0,0.0,0.0,0.0,0.0,0.0,0.0,0.0,0.0,0.0,-4.7887,-4.8189,-4.8514,-4.8814,-4.8721,-4.8189,-4.8525,-4.8356,-4.7749,-4.82,-4.8151,-4.7699,-4.7699,-4.7699,-4.7699,-4.7699,-4.7699,-4.7699,-4.7699,-4.7699,-4.7699,-4.7699,-4.7699,-4.7699,-4.7699,-4.7699,-4.7615,-4.7062,-4.6566,-4.6,-4.5442,-4.4981,-4.4587,-4.4587,-4.4587,-4.4587,-4.4587,-4.4587,-4.4587,-4.4587,-4.4925,-4.5128,-4.4688,-4.4925,-4.5128,-4.4654,-4.4587,-4.4587,-4.4587,-4.4587,-4.4587,-4.4587,-4.4587,-4.4587,-4.4587,-4.4587,-4.4587,-4.4587,-4.4316,-4.3912,-4.3504,-4.2949,-4.2177,-4.0881,-4.0347,-3.9661,-3.8758,-3.8473,-3.8008,-3.7428,-3.7136,-3.6607,-3.591,-3.5879,-3.5816,-3.5688,-3.5718,-3.5683,-3.6001,-3.6508,0.0,-4.0202,-4.3353,0.0,-4.788,-5.1719,-5.5233,-5.6319,0.0,0.0,0.0,0.0,0.0,0.0,0.0,0.0,0.0,0.0,0.0,0.0,0.0,0.0,0.0,0.0,0.0,0.0,0.0,0.0,0.0,0.0,0.0,0.0,-4.6401,-4.6732,-4.7012,-4.7725,-4.7725,0.0,-4.7725,-4.7529,-4.6536,-4.75,-4.7773,-4.7482,-4.7482,-4.7482,-4.7482,-4.7482,-4.7482,-4.7482,-4.7482,-4.7482,-4.7482,-4.7554,-4.7591,-4.7627,-4.7663,-4.7699,-4.7615,-4.7107,-4.6613,-4.6049,-4.5545,-4.5035,-4.4665,-4.4643,-4.4587,-4.4587,-4.4587,-4.4587,-4.4587,-4.4587,-4.4587,-4.4587,-4.4587,-4.4587,-4.4587,-4.4587,-4.4587,-4.4587,-4.4587,-4.4587,-4.4587,-4.4587,-4.4587,-4.4587,-4.4587,-4.4587,-4.4553,-4.4485,-4.3842,-4.3403,-4.3335,-4.2167,-4.1399,-4.113,-3.9645,-3.8639,-3.8304,-3.8466,-3.8371,-3.7842,-3.7272,-3.6546,-3.5752,-3.607,-3.6006,-3.5752,-3.591,-3.591,-3.7486,-3.7341,0.0,0.0,-4.6685,-5.0416,-5.2045,-5.3711,-5.4291,-5.2082,0.0,0.0,0.0,0.0,0.0,0.0,0.0,0.0,0.0,0.0,0.0,0.0,0.0,0.0,0.0,0.0,0.0,0.0,0.0,0.0,0.0,0.0,0.0,-4.6059,-4.62,-4.6434,-4.7012,-4.7162,-4.7162,0.0,-4.7199,-4.7005,-4.6499,-4.6498,-4.6249,-4.5816,-4.5816,-4.5816,-4.5816,-4.5816,-4.5816,-4.5816,-4.5816,-4.5816,-4.5888,-4.654,-4.6757,-4.6866,-4.7482,-4.7699,-4.7657,-4.7572,-4.7151,-4.6613,-4.6098,-4.5545,-4.5089,-4.472,-4.4587,-4.4587,-4.4587,-4.4587,-4.4587,-4.4587,-4.4587,-4.4587,-4.4587,-4.4587,-4.4587,-4.4587,-4.4587,-4.4587,-4.4587,-4.4587,-4.4587,-4.4587,-4.4587,-4.4587,-4.4587,-4.4587,-4.435,-4.3741,-4.3504,-4.3166,-4.2591,-4.2281,-4.1476,-3.9928,-4.0293,-3.9742,-3.7729,-3.725,-3.694,-3.6816,-3.6692,-3.6505,-3.6352,-3.6226,-3.6133,-3.607,-3.5879,-3.5752,-3.6363,0.0,0.0,-4.3969,0.0,-5.0271,-5.0741,-5.1176,-5.0886,0.0,0.0,0.0,0.0,0.0,0.0,0.0,0.0,0.0,0.0,0.0,0.0,0.0,0.0,0.0,0.0,0.0,0.0,0.0,0.0,0.0,0.0,-4.4367,-4.4161,-4.4191,-4.4328,-4.4406,-4.4466,-4.534,-4.5622,-4.5247,-4.5998,-4.6031,-4.5345,-4.5727,-4.5773,-4.5469,-4.5388,-4.5309,-4.5309,-4.5309,-4.5309,-4.5309,-4.5309,-4.5309,-4.5345,-4.578,-4.5924,-4.5997,-4.6395,-4.654,-4.6571,-4.6722,-4.6534,-4.6255,-4.5845,-4.5494,-4.5214,-4.472,-4.4587,-4.4587,-4.4587,-4.4587,-4.4587,-4.4587,-4.4587,-4.4587,-4.4587,-4.4587,-4.4587,-4.4587,-4.4587,-4.4587,-4.4587,-4.4587,-4.4587,-4.4587,-4.4248,-4.4012,-4.4012,-4.3707,-4.3335,-4.2929,-4.2861,-4.2591,-4.1847,-4.1533,-4.0875,-3.9785,-3.9752,-3.9369,-3.8311,-3.7679,-3.7326,-3.7326,-3.7058,-3.6876,-3.6815,-3.6476,-3.6289,-3.6196,-3.6006,-3.5943,-3.4733,0.0,-3.9948,-4.4693,-4.7192,0.0,-4.7844,-4.7699,0.0,0.0,0.0,0.0,0.0,0.0,0.0,0.0,0.0,0.0,0.0,0.0,0.0,0.0,0.0,0.0,0.0,0.0,0.0,0.0,0.0,0.0,-4.3679,-4.3063,-4.245,-4.1894,-4.2161,-4.2119,-4.1688,-4.3297,-4.3745,-4.3106,-4.4421,-4.457,-4.3767,-4.4554,-4.5041,-4.5296,-4.4992,-4.4874,-4.4874,-4.4874,-4.4874,-4.4874,-4.4874,-4.4874,-4.491,-4.5055,-4.5091,-4.5091,-4.5236,-4.5309,-4.5377,-4.5538,-4.5579,-4.5498,-4.5281,-4.5165,-4.5042,-4.4686,-4.4587,-4.4587,-4.4587,-4.4587,-4.4587,-4.4587,-4.4587,-4.4587,-4.4587,-4.4587,-4.4587,-4.4587,-4.4587,-4.4587,-4.4587,-4.4451,-4.4384,-4.4384,-4.3707,-4.3234,-4.3234,-4.2692,-4.2252,-4.2117,-4.2117,-4.1813,-4.1068,-4.0548,-4.0174,-3.9935,-3.9135,-3.881,-3.9189,-3.881,-3.8525,-3.8284,-3.779,-3.7445,-3.7294,-3.6876,-3.66,-3.6383,-3.6258,-3.6196,0.0,0.0,-4.1578,0.0,-4.5091,-4.6975,0.0,0.0,0.0,0.0,0.0,0.0,0.0,0.0,0.0,0.0,0.0,0.0,0.0,0.0,0.0,0.0,0.0,0.0,0.0,0.0,0.0,0.0,0.0,0.0,-4.2085,-4.194,-4.1614,-4.1086,-4.1314,-4.1526,-4.1688,-4.2136,-4.2254,-4.2205,-4.2393,-4.2404,-4.2275,-4.2001,-4.25,-4.3578,-4.3359,-4.3208,-4.3208,-4.3208,-4.3208,-4.3208,-4.3208,-4.3208,-4.3281,-4.4005,-4.4258,-4.4367,-4.5055,-4.5309,-4.5309,-4.5337,-4.509,-4.4769,-4.4917,-4.4674,-4.4389,-4.455,-4.4587,-4.4587,-4.4587,-4.4587,-4.4587,-4.4587,-4.4587,-4.4587,-4.4587,-4.4587,-4.4587,-4.4587,-4.4587,-4.4587,-4.4587,-4.4012,-4.3572,-4.3572,-4.2929,-4.2455,-4.2455,-4.2354,-4.2049,-4.1407,-4.1339,-4.1035,-4.029,-4.0172,-3.99,-3.9382,-3.9644,-3.9696,-3.9189,-3.9644,-3.9343,-3.8209,-3.8209,-3.8165,-3.8108,-3.7562,-3.7298,-3.7238,-3.6507,-3.6196,-3.5385,-3.7413,-3.9478,0.0,-4.3027,-4.4584,0.0,0.0,0.0,0.0,0.0,0.0,0.0,0.0,0.0,0.0,0.0,0.0,0.0,0.0,0.0,0.0,0.0,0.0,0.0,0.0,0.0,0.0,0.0,-4.1397,-4.1071,-4.1035,-4.0744,-4.0084,-4.028,-4.0314,-4.014,-4.0775,-4.1397,-4.1991,-4.1991,-4.1991,-4.1991,-4.1651,-4.1724,-4.2169,-4.1723,-4.1578,-4.1578,-4.1578,-4.1578,-4.1578,-4.1578,-4.1578,-4.1651,-4.2448,-4.2774,-4.2882,-4.3679,-4.3969,-4.4041,-4.4476,-4.4502,-4.4324,-4.4294,-4.4432,-4.4505,-4.4082,-4.4248,-4.4587,-4.4587,-4.4587,-4.4485,-4.4045,-4.3944,-4.3809,-4.3403,-4.3978,-4.4451,-4.4012,-4.3572,-4.3301,-4.3301,-4.2997,-4.2794,-4.2794,-4.2151,-4.1677,-4.1677,-4.1305,-4.0933,-4.0595,-4.0561,-4.0426,-4.0121,-4.0087,-3.9986,-3.9696,-3.9952,-3.9784,-3.9126,-3.9345,-3.9007,-3.8069,-3.852,-3.8417,-3.7751,-3.789,-3.7911,-3.7911,-3.7531,-3.7207,0.0,0.0,-3.7051,-3.8608,-4.0347,-4.1687,0.0,0.0,0.0,0.0,0.0,0.0,0.0,0.0,0.0,0.0,0.0,0.0,0.0,0.0,0.0,0.0,0.0,0.0,0.0,0.0,0.0,0.0,0.0,-4.0419,-4.0238,-4.0238,-3.9876,-3.9115,-3.9312,-3.9208,-3.8803,-3.9649,-4.0531,-4.1417,-4.1417,-4.1417,-4.1353,-4.1101,-4.0874,-4.0671,-4.0623,-4.0527,-4.0528,-4.0528,-4.0528,-4.0528,-4.0528,-4.0528,-4.06,-4.118,-4.1397,-4.1506,-4.2085,-4.2411,-4.2701,-4.3281,-4.3529,-4.358,-4.3517,-4.3828,-4.4014,-4.3537,-4.3842,-4.4282,-4.4282,-4.4282,-4.4079,-4.3301,-4.3132,-4.3031,-4.2658,-4.3335,-4.3876,-4.3504,-4.2794,-4.2286,-4.2286,-4.2151,-4.2016,-4.2016,-4.1373,-4.0933,-4.0933,-4.0426,-4.002,-3.9817,-3.9986,-3.9986,-3.9817,-3.9986,-4.0087,-4.0087,-4.0087,-3.9749,-3.9039,-3.9005,-3.8516,-3.7427,-3.8388,-3.8394,-3.7465,-3.7829,-3.8079,-3.8241,-3.7963,-3.7662,0.0,-3.4661,0.0,-3.5059,0.0,0.0,0.0,0.0,0.0,0.0,0.0,0.0,0.0,0.0,0.0,0.0,0.0,0.0,0.0,0.0,0.0,0.0,0.0,0.0,0.0,0.0,0.0,0.0,0.0,-4.0202,-3.9478,-3.9441,-3.9079,-3.8282,-3.8474,-3.8528,-3.8523,-3.9007,-3.941,-3.9714,-3.9714,-3.9714,-3.9727,-3.9421,-3.9203,-3.9084,-4.0349,-4.0702,-4.0528,-4.0528,-4.0528,-4.0528,-4.0528,-4.0528,-4.0528,-4.0564,-4.0564,-4.06,-4.0637,-4.1144,-4.1796,-4.1832,-4.2037,-4.2311,-4.2617,-4.2358,-4.2221,-4.3158,-4.3436,-4.347,-4.347,-4.347,-4.3301,-4.2523,-4.2354,-4.2523,-4.32,-4.2861,-4.2591,-4.3301,-4.2794,-4.2286,-4.2286,-4.1711,-4.1271,-4.1271,-4.0629,-4.0155,-4.0155,-4.0087,-3.9817,-3.9106,-3.9648,-3.9817,-3.9106,-3.9681,-4.0087,-4.0087,-4.0087,-3.9749,-3.9039,-3.9005,-3.81,-3.614,-3.7345,-3.7942,-3.786,-3.7336,-3.7448,-3.811,-3.6942,-3.6785,0.0,0.0,0.0,-3.39,0.0,0.0,0.0,0.0,0.0,0.0,0.0,0.0,0.0,0.0,0.0,0.0,0.0,0.0,0.0,0.0,0.0,0.0,0.0,0.0,0.0,0.0,0.0,0.0,0.0,0.0,-3.716,-3.7558,-3.7703,-3.7413,-3.7511,-3.7858,-3.8491,-3.897,-3.9256,-3.9335,-3.9527,-3.9602,-3.9577,-3.9502,-3.9256,-3.8929,-3.9399,-3.9406,-3.9007,-3.9007,-3.9007,-3.9007,-3.9007,-3.9007,-3.9079,-3.9586,-3.9804,-3.9876,-4.0347,-4.0709,-4.1035,-4.1542,-4.1793,-4.1848,-4.1894,-4.21,-4.2298,-4.2074,-4.232,-4.2692,-4.2692,-4.2692,-4.2523,-4.1779,-4.1204,-4.1068,-4.1847,-4.1779,-4.1677,-4.1948,-4.1373,-4.0865,-4.0865,-4.0663,-4.0324,-3.9851,-3.9952,-3.9918,-3.9445,-3.9783,-3.9817,-3.9073,-3.9648,-3.958,-3.8396,-3.9377,-3.9884,-3.9411,-3.9377,-3.9039,-3.8328,-3.7821,-3.6983,-3.5753,-3.6207,-3.6531,-3.6668,-3.7282,-3.7552,-3.7433,-3.7019,-3.6561,-3.3393,0.0,0.0,0.0,0.0,0.0,0.0,0.0,0.0,0.0,0.0,0.0,0.0,0.0,0.0,0.0,0.0,0.0,0.0,0.0,0.0,0.0,0.0,0.0,0.0,0.0,0.0,0.0,0.0,0.0,-3.5856,-3.6544,-3.712,-3.7377,-3.7377,-3.7762,-3.8491,-3.8567,-3.8591,-3.8711,-3.8689,-3.879,-3.9089,-3.9139,-3.8925,-3.8485,-3.8485,-3.8365,-3.8174,-3.8174,-3.8174,-3.8174,-3.8174,-3.8174,-3.8246,-3.879,-3.9007,-3.9043,-3.955,-3.9912,-4.0238,-4.0745,-4.1289,-4.1647,-4.144,-4.1858,-4.2306,-4.1626,-4.1767,-4.2142,-4.1967,-4.1745,-4.1441,-4.0933,-4.046,-4.0223,-4.073,-4.0832,-4.0899,-4.117,-4.0392,-3.9715,-3.9715,-3.9512,-3.9174,-3.87,-3.9039,-3.9174,-3.87,-3.9039,-3.9073,-3.8328,-3.8903,-3.8937,-3.799,-3.9005,-3.9512,-3.9039,-3.9005,-3.8565,-3.7584,-3.7043,-3.64,-3.5656,-3.5622,-3.5677,-3.59,-3.6734,-3.7057,-3.7002,-3.6804,-3.6241,0.0,0.0,0.0,0.0,0.0,0.0,0.0,0.0,0.0,0.0,0.0,0.0,0.0,0.0,0.0,0.0,0.0,0.0,0.0,0.0,0.0,0.0,0.0,0.0,0.0,0.0,0.0,0.0,0.0,-3.5783,-3.5747,-3.6508,-3.7305,-3.8101,-3.8174,-3.8271,-3.8455,-3.7686,-3.7434,-3.7664,-3.7065,-3.7205,-3.7951,-3.819,-3.804,-3.7664,-3.7664,-3.7814,-3.8101,-3.8138,-3.8138,-3.8174,-3.8174,-3.8174,-3.8174,-3.8174,-3.8174,-3.8174,-3.8174,-3.8717,-3.9369,-3.9369,-4.0419,-4.1577,-4.1121,-4.1573,-4.2115,-4.1916,-4.1871,-4.1724,-4.1291,-4.0595,-4.0054,-4.0054,-4.0087,-4.0087,-4.0087,-4.0054,-4.0257,-4.1001,-3.9986,-3.8971,-3.8971,-3.8362,-3.7889,-3.7889,-3.7889,-3.7889,-3.7889,-3.7889,-3.7618,-3.6874,-3.7449,-3.7889,-3.7855,-3.8531,-3.8971,-3.8971,-3.8971,-3.8328,-3.6874,-3.6772,-3.64,-3.5656,-3.5622,-3.5622,-3.5622,-3.5622,-3.5994,-3.6738,-3.6137,-3.5616,-3.3393,0.0,0.0,0.0,0.0,0.0,0.0,0.0,0.0,0.0,0.0,0.0,0.0,0.0,0.0,0.0,0.0,0.0,0.0,0.0,0.0,0.0,0.0,0.0,0.0,0.0,0.0,0.0,-3.5494,-3.5313,-3.4117,-3.5385,-3.6218,-3.6472,-3.7594,-3.7917,-3.7435,-3.7369,-3.7051,-3.6552,-3.6716,-3.6907,-3.7131,-3.7328,-3.7206,-3.6777,-3.6777,-3.6641,-3.6508,-3.7087,-3.7305,-3.7377,-3.7957,-3.8174,-3.8174,-3.8174,-3.8174,-3.8174,-3.8174,-3.8355,-3.8608,-3.9188,-3.9695,-4.0167,-4.0799,-4.1181,-4.1298,-4.1152,-4.1112,-4.0968,-4.0544,-3.9851,-3.9411,-3.9952,-4.0087,-4.0087,-4.0087,-3.9648,-3.9343,-3.958,-3.9276,-3.8836,-3.8294,-3.8058,-3.7719,-3.7178,-3.755,-3.7719,-3.7178,-3.7584,-3.7618,-3.6874,-3.7449,-3.7449,-3.6332,-3.7922,-3.8768,-3.8227,-3.8193,-3.8024,-3.7618,-3.6535,-3.5825,-3.5622,-3.5622,-3.5622,-3.5622,-3.5622,-3.5542,-3.5338,-3.4775,-3.4272,0.0,0.0,0.0,0.0,0.0,0.0,-2.8974,-2.9083,0.0,0.0,0.0,0.0,0.0,0.0,0.0,0.0,0.0,0.0,0.0,0.0,0.0,0.0,0.0,0.0,0.0,0.0,0.0,-3.4117,-3.4552,-3.4552,-3.3936,-3.5131,-3.5965,-3.629,-3.7522,-3.7812,-3.7011,-3.6776,-3.6255,-3.5483,-3.5568,-3.5813,-3.6147,-3.6456,-3.6347,-3.59,-3.59,-3.5467,-3.4878,-3.5675,-3.6363,-3.7047,-3.7522,-3.7884,-3.8174,-3.8174,-3.8174,-3.8174,-3.8174,-3.8174,-3.8282,-3.8753,-3.9115,-3.9515,-4.0128,-4.0556,-4.0724,-4.0237,-3.9871,-3.9529,-3.9272,-3.887,-3.8633,-3.9073,-3.9174,-3.9174,-3.9174,-3.8836,-3.8633,-3.8937,-3.8497,-3.7922,-3.7516,-3.7178,-3.6806,-3.6366,-3.6671,-3.6806,-3.6332,-3.6671,-3.6772,-3.6332,-3.6671,-3.6705,-3.6163,-3.7313,-3.7889,-3.7449,-3.7449,-3.728,-3.6975,-3.6096,-3.5622,-3.5622,-3.5622,-3.5622,-3.5622,-3.5622,-3.5407,-3.5131,-3.4816,-3.4284,0.0,0.0,0.0,0.0,0.0,0.0,-2.9119,-2.825,-2.796,0.0,0.0,0.0,0.0,0.0,0.0,0.0,0.0,0.0,0.0,0.0,0.0,0.0,0.0,0.0,0.0,-3.3284,-3.3284,-3.3393,-3.3393,-3.3719,-3.4443,-3.5313,-3.6146,-3.6834,-3.7703,-3.7739,-3.687,-3.6146,-3.5349,-3.448,-3.4137,-3.4386,-3.5051,-3.5501,-3.5477,-3.5024,-3.5024,-3.4412,-3.3465,-3.419,-3.5421,-3.687,-3.6942,-3.7486,-3.8174,-3.8174,-3.8174,-3.8174,-3.8174,-3.8174,-3.8174,-3.8174,-3.8681,-3.926,-3.9369,-3.9876,-4.0239,-3.9509,-3.8624,-3.7929,-3.7984,-3.7916,-3.7835,-3.7889,-3.7922,-3.7922,-3.7922,-3.7855,-3.799,-3.8633,-3.7686,-3.6738,-3.6671,-3.6062,-3.5622,-3.5622,-3.5622,-3.5622,-3.5622,-3.5622,-3.5622,-3.5622,-3.5622,-3.5893,-3.6603,-3.6738,-3.6772,-3.6772,-3.6772,-3.6468,-3.5791,-3.5656,-3.5622,-3.5622,-3.5622,-3.5622,-3.5622,-3.5622,-3.5577,-3.5532,-3.5577,-3.5085,0.0,0.0,0.0,0.0,0.0,0.0,-2.9916,-2.9952,-2.9952,0.0,0.0,0.0,0.0,0.0,0.0,0.0,0.0,0.0,0.0,0.0,0.0,0.0,0.0,0.0,0.0,-3.2415,-3.2705,-3.3357,-3.3393,-3.3465,-3.3647,-3.5023,-3.5892,-3.6037,-3.7449,-3.7486,-3.6073,-3.5892,-3.5095,-3.3647,-3.388,-3.4013,-3.4,-3.4414,-3.4389,-3.3973,-3.3973,-3.3761,-3.3429,-3.3574,-3.4588,-3.6109,-3.6725,-3.7486,-3.8174,-3.8174,-3.8174,-3.8174,-3.8174,-3.8174,-3.8174,-3.8174,-3.8282,-3.8536,-3.9188,-3.9514,-3.9625,-3.9682,-3.8848,-3.8034,-3.8298,-3.7933,-3.7535,-3.7848,-3.7922,-3.7922,-3.7922,-3.7415,-3.7043,-3.7178,-3.6975,-3.6569,-3.596,-3.5723,-3.5622,-3.5622,-3.5622,-3.5622,-3.5622,-3.5622,-3.5622,-3.5622,-3.5622,-3.569,-3.5825,-3.6434,-3.6772,-3.6772,-3.6772,-3.6705,-3.6569,-3.596,-3.5622,-3.5622,-3.5622,-3.5622,-3.5622,-3.5622,-3.5362,-3.4991,-3.5407,-3.527,0.0,0.0,0.0,-3.2379,0.0,0.0,0.0,-2.9192,-2.9083,0.0,0.0,0.0,0.0,0.0,0.0,0.0,0.0,0.0,0.0,0.0,0.0,0.0,0.0,0.0,0.0,-3.1582,-3.1944,-3.2741,-3.2814,-3.2995,-3.3393,-3.4552,-3.5385,-3.5783,-3.658,-3.6616,-3.582,-3.5421,-3.4624,-3.3393,-3.3698,-3.3807,-3.3698,-3.4005,-3.4016,-3.3698,-3.3698,-3.3595,-3.3393,-3.3393,-3.4117,-3.5276,-3.6073,-3.687,-3.7631,-3.8029,-3.8174,-3.8174,-3.8174,-3.8174,-3.8174,-3.8174,-3.8174,-3.8282,-3.8681,-3.865,-3.8438,-3.8386,-3.7777,-3.7116,-3.7055,-3.6795,-3.6536,-3.6717,-3.6772,-3.6772,-3.6772,-3.6468,-3.6197,-3.6197,-3.6197,-3.6062,-3.569,-3.5622,-3.5622,-3.5622,-3.5622,-3.5622,-3.5622,-3.5622,-3.5622,-3.5622,-3.5622,-3.5622,-3.5622,-3.596,-3.6197,-3.6197,-3.6197,-3.6197,-3.6197,-3.5825,-3.5622,-3.5622,-3.5622,-3.5622,-3.5622,-3.525,-3.5116,-3.5224,-3.5487,-3.5115,0.0,0.0,0.0,0.0,0.0,-3.0858,0.0,0.0,0.0,0.0,0.0,0.0,0.0,0.0,0.0,0.0,0.0,0.0,0.0,0.0,0.0,0.0,0.0,0.0,0.0,-3.0894,-3.1256,-3.1908,-3.1981,-3.2234,-3.2886,-3.3864,-3.4661,-3.5313,-3.5639,-3.5747,-3.5566,-3.4914,-3.419,-3.3393,-3.3587,-3.3671,-3.3643,-3.386,-3.3834,-3.3643,-3.3643,-3.3567,-3.3393,-3.3393,-3.3791,-3.4443,-3.5276,-3.6146,-3.7084,-3.7703,-3.8065,-3.8174,-3.8174,-3.8174,-3.8174,-3.8174,-3.8101,-3.792,-3.7775,-3.7572,-3.7327,-3.7033,-3.6794,-3.6574,-3.6114,-3.5985,-3.5941,-3.58,-3.5654,-3.5474,-3.5419,-3.5419,-3.5351,-3.5216,-3.5318,-3.5453,-3.5588,-3.5622,-3.5622,-3.5622,-3.5622,-3.5554,-3.5419,-3.552,-3.5554,-3.5419,-3.5554,-3.5622,-3.5622,-3.5622,-3.5622,-3.5622,-3.5622,-3.5622,-3.5622,-3.5622,-3.5622,-3.5622,-3.5487,-3.5419,-3.5385,-3.4641,-3.4742,-3.5622,-3.5453,-3.4824,0.0,0.0,0.0,0.0,-3.2669,0.0,0.0,0.0,0.0,0.0,0.0,0.0,0.0,0.0,0.0,0.0,0.0,0.0,0.0,0.0,0.0,0.0,0.0,0.0,0.0,0.0,-3.1039,-3.1111,-3.1148,-3.1184,-3.1256,-3.2705,-3.3574,-3.3683,-3.5059,-3.5457,-3.4733,-3.4661,-3.419,-3.3393,-3.3587,-3.3587,-3.3452,-3.3643,-3.3615,-3.3422,-3.3422,-3.3422,-3.3393,-3.3393,-3.3465,-3.361,-3.4443,-3.5675,-3.7011,-3.712,-3.7558,-3.8174,-3.8174,-3.8174,-3.8174,-3.8174,-3.7703,-3.6979,-3.629,-3.6512,-3.7058,-3.6988,-3.746,-3.7863,-3.7395,-3.7248,-3.7097,-3.6409,-3.5725,-3.5118,-3.4694,-3.4607,-3.4438,-3.3795,-3.4167,-3.4844,-3.552,-3.5622,-3.5622,-3.5622,-3.5622,-3.5385,-3.4709,-3.5216,-3.5351,-3.4675,-3.5216,-3.5622,-3.5622,-3.5622,-3.5622,-3.5622,-3.5622,-3.5622,-3.5622,-3.5622,-3.5622,-3.5622,-3.4979,-3.4607,-3.4607,-3.3897,-3.4235,-3.5588,-3.4945,-3.453,0.0,0.0,0.0,0.0,0.0,0.0,-3.0351,0.0,-2.9156,0.0,0.0,0.0,0.0,0.0,0.0,0.0,0.0,0.0,0.0,0.0,0.0,0.0,0.0,0.0,0.0,0.0,0.0,0.0,0.0,-3.0496,-3.0966,-3.2089,-3.2922,-3.3393,-3.4516,-3.5168,-3.5313,-3.4842,-3.4443,-3.4081,-3.3698,-3.3481,-3.3393,-3.3481,-3.3481,-3.3393,-3.3393,-3.3393,-3.3393,-3.3393,-3.3393,-3.3465,-3.4298,-3.5023,-3.5675,-3.6146,-3.6508,-3.6798,-3.6798,-3.6798,-3.6798,-3.6798,-3.658,-3.6254,-3.5892,-3.6037,-3.6258,-3.5957,-3.6139,-3.6288,-3.5864,-3.5754,-3.5641,-3.5094,-3.4731,-3.4404,-3.3948,-3.3863,-3.3761,-3.3457,-3.366,-3.3964,-3.4269,-3.4336,-3.4336,-3.4336,-3.4336,-3.4235,-3.3897,-3.4134,-3.4201,-3.3897,-3.4134,-3.4506,-3.4945,-3.4979,-3.5148,-3.5588,-3.5622,-3.5419,-3.4979,-3.4979,-3.4776,-3.4336,-3.4032,-3.3863,-3.3863,-3.3119,-3.3288,-3.4336,-3.3998,-3.3626,-3.2306,0.0,0.0,0.0,0.0,0.0,0.0,0.0,0.0,0.0,0.0,0.0,0.0,0.0,0.0,0.0,0.0,0.0,0.0,0.0,0.0,0.0,0.0,0.0,0.0,0.0,0.0,0.0,-2.9119,-2.9409,-2.9989,-3.0966,-3.1908,-3.2705,-3.3538,-3.4443,-3.5457,-3.4661,-3.4371,-3.4588,-3.3791,-3.3393,-3.3393,-3.3393,-3.3393,-3.3393,-3.3393,-3.3393,-3.3393,-3.3393,-3.3393,-3.3465,-3.4045,-3.4262,-3.4407,-3.5421,-3.582,-3.582,-3.582,-3.582,-3.5783,-3.5566,-3.5494,-3.5457,-3.5204,-3.5313,-3.5395,-3.5065,-3.5142,-3.5218,-3.4907,-3.4836,-3.4764,-3.4394,-3.4178,-3.389,-3.3459,-3.3332,-3.3182,-3.2978,-3.3032,-3.3017,-3.2848,-3.3119,-3.3423,-3.3423,-3.3423,-3.3322,-3.3119,-3.3288,-3.3322,-3.3119,-3.3288,-3.3626,-3.4134,-3.4201,-3.4438,-3.4979,-3.5013,-3.4776,-3.4201,-3.4201,-3.3964,-3.3423,-3.3186,-3.3085,-3.3085,-3.2341,-3.2273,-3.2814,-3.3017,-3.2814,0.0,0.0,0.0,-3.1981,0.0,0.0,0.0,0.0,-2.8587,0.0,0.0,0.0,0.0,0.0,0.0,-2.7526,0.0,0.0,0.0,0.0,0.0,0.0,0.0,0.0,0.0,0.0,0.0,-2.7489,-2.7489,-2.7489,-2.7526,-2.9011,-3.0242,-3.1039,-3.1872,-3.3031,-3.4624,-3.3828,-3.3828,-3.4588,-3.3791,-3.3393,-3.3393,-3.3393,-3.3393,-3.3393,-3.3393,-3.3393,-3.3393,-3.3393,-3.3393,-3.3393,-3.3429,-3.3429,-3.3647,-3.524,-3.582,-3.582,-3.582,-3.582,-3.5675,-3.4914,-3.4661,-3.4516,-3.3719,-3.4009,-3.4661,-3.4594,-3.5173,-3.5752,-3.5788,-3.5788,-3.5656,-3.5184,-3.451,-3.3875,-3.3494,-3.313,-3.2693,-3.1901,-3.2076,-3.2104,-3.1393,-3.2442,-3.3423,-3.3423,-3.3423,-3.3152,-3.2408,-3.2949,-3.3119,-3.2408,-3.2983,-3.3423,-3.3423,-3.3457,-3.3457,-3.3491,-3.3491,-3.3457,-3.3457,-3.3457,-3.3423,-3.3423,-3.2679,-3.2347,-3.2307,-3.1596,-3.1258,-3.1292,-3.1968,-3.2347,0.0,0.0,-3.0133,-2.988,0.0,0.0,0.0,0.0,0.0,0.0,0.0,0.0,0.0,0.0,0.0,0.0,0.0,0.0,0.0,0.0,0.0,0.0,0.0,0.0,0.0,0.0,0.0,-2.6656,-2.7091,-2.7417,0.0,-2.8938,-2.9942,-3.0206,-3.151,-3.2705,-3.3791,-3.3538,-3.3791,-3.4588,-3.3791,-3.3393,-3.3393,-3.3393,-3.3393,-3.3393,-3.3393,-3.3393,-3.3393,-3.3393,-3.3393,-3.3465,-3.4009,-3.3864,-3.3465,-3.4009,-3.4226,-3.4226,-3.4226,-3.4226,-3.419,-3.39,-3.3828,-3.3755,-3.3465,-3.361,-3.3828,-3.3828,-3.4009,-3.4226,-3.4226,-3.4226,-3.4099,-3.3681,-3.3401,-3.309,-3.2756,-3.2581,-3.237,-3.1802,-3.1826,-3.1739,-3.1263,-3.1596,-3.1935,-3.1935,-3.1935,-3.1833,-3.1596,-3.1799,-3.1833,-3.1596,-3.1799,-3.2138,-3.2611,-3.3119,-3.3423,-3.3423,-3.3423,-3.3186,-3.2679,-3.2645,-3.2442,-3.1935,-3.1698,-3.1562,-3.1562,-3.1326,-3.119,-3.119,-3.1461,-3.1562,-3.0061,-2.959,0.0,-2.9083,-2.9047,0.0,-2.8659,0.0,0.0,0.0,0.0,0.0,0.0,0.0,0.0,0.0,0.0,0.0,0.0,-2.5932,0.0,0.0,0.0,0.0,0.0,0.0,-2.6656,-2.5823,-2.6512,-2.6982,0.0,0.0,-2.9481,-2.9771,-3.0785,-3.1872,-3.2958,-3.2958,-3.3393,-3.419,-3.3647,-3.3393,-3.3393,-3.3393,-3.3393,-3.3393,-3.3393,-3.3393,-3.3393,-3.3393,-3.3393,-3.3465,-3.3973,-3.3864,-3.3429,-3.3719,-3.3647,-3.3393,-3.3393,-3.3393,-3.3393,-3.3393,-3.3393,-3.3393,-3.3393,-3.3393,-3.3393,-3.3393,-3.3393,-3.3393,-3.3393,-3.3393,-3.3334,-3.3086,-3.3019,-3.2925,-3.2535,-3.2368,-3.2162,-3.1804,-3.162,-3.1466,-3.1274,-3.123,-3.119,-3.119,-3.123,-3.123,-3.119,-3.123,-3.123,-3.119,-3.119,-3.1393,-3.1867,-3.2341,-3.2611,-3.2611,-3.2611,-3.2408,-3.1901,-3.1901,-3.1664,-3.119,-3.119,-3.119,-3.119,-3.119,-3.119,-3.119,-3.119,-3.119]},{"header":{"parameterUnit":"m.s-1","parameterCategory":1,"la1":30.6,"la2":29.2853,"lo1":-89.7004,"lo2":-87.6739,"dy":0.0162,"dx":0.0183,"nx":112,"ny":82,"refTime":"2023-08-17T12:00:00:Z","depth":0,"parameterNumber":3,"parameterNumberName":"V-component_of_WINDS"},"data":[0.0,0.0,0.0,0.0,0.0,0.0,0.0,0.0,0.0,0.0,0.0,0.0,0.0,0.0,0.0,0.0,0.0,0.0,0.0,0.0,0.0,0.0,0.0,0.0,0.0,0.0,0.0,0.0,0.0,0.0,0.0,0.0,0.0,0.0,0.0,0.0,0.0,0.0,0.0,0.0,0.0,0.0,0.0,0.0,0.0,0.0,0.0,0.0,0.0,0.0,0.0,0.0,0.0,0.0,0.0,0.0,0.0,0.0,0.0,0.0,0.0,0.0,0.0,0.0,0.0,0.0,0.0,0.0,0.0,0.0,0.0,0.0,0.0,0.0,0.0,0.0,0.0,0.0,0.0,0.0,0.0,0.0,0.0,0.0,0.0,0.0,0.0,0.0,0.0,0.0,-2.2855,-2.3768,-2.6873,-2.9236,-3.001,-3.028,-2.8778,-2.4867,0.0,0.0,0.0,0.0,0.0,0.0,0.0,0.0,0.0,0.0,0.0,0.0,0.0,0.0,0.0,0.0,0.0,0.0,0.0,0.0,0.0,0.0,0.0,0.0,0.0,0.0,0.0,0.0,0.0,0.0,0.0,0.0,0.0,0.0,0.0,0.0,0.0,0.0,0.0,0.0,0.0,0.0,0.0,0.0,0.0,0.0,0.0,0.0,0.0,0.0,0.0,0.0,0.0,0.0,0.0,0.0,0.0,0.0,0.0,0.0,0.0,0.0,0.0,0.0,0.0,0.0,0.0,0.0,0.0,0.0,0.0,0.0,0.0,0.0,0.0,0.0,0.0,0.0,0.0,0.0,0.0,0.0,0.0,0.0,0.0,0.0,0.0,0.0,0.0,0.0,0.0,0.0,0.0,0.0,0.0,0.0,0.0,0.0,0.0,0.0,0.0,0.0,0.0,0.0,-2.5159,-2.8969,-3.0728,-3.1868,-3.2524,-3.1307,-2.9322,-2.6377,0.0,0.0,0.0,0.0,0.0,0.0,0.0,0.0,0.0,0.0,0.0,0.0,0.0,0.0,0.0,0.0,0.0,0.0,0.0,0.0,0.0,0.0,0.0,0.0,0.0,0.0,0.0,0.0,0.0,0.0,0.0,0.0,0.0,0.0,0.0,0.0,0.0,0.0,0.0,0.0,0.0,0.0,0.0,0.0,0.0,0.0,0.0,0.0,0.0,0.0,0.0,0.0,0.0,0.0,0.0,0.0,0.0,0.0,0.0,0.0,0.0,0.0,0.0,0.0,0.0,0.0,0.0,0.0,0.0,0.0,0.0,0.0,0.0,0.0,0.0,0.0,0.0,0.0,0.0,0.0,0.0,0.0,0.0,0.0,0.0,0.0,0.0,0.0,0.0,0.0,0.0,0.0,0.0,0.0,0.0,0.0,0.0,0.0,0.0,0.0,0.0,0.0,0.0,-2.4165,-2.6561,-2.9854,-3.1386,-3.2441,-3.3018,-3.1286,-2.9101,-2.6684,-2.5084,0.0,0.0,0.0,0.0,0.0,0.0,0.0,0.0,0.0,0.0,0.0,0.0,0.0,0.0,0.0,0.0,0.0,0.0,0.0,0.0,0.0,0.0,0.0,0.0,0.0,0.0,0.0,0.0,0.0,0.0,0.0,0.0,0.0,0.0,0.0,0.0,0.0,0.0,0.0,0.0,0.0,0.0,0.0,0.0,0.0,0.0,0.0,0.0,0.0,0.0,0.0,0.0,0.0,0.0,0.0,0.0,0.0,0.0,0.0,0.0,0.0,0.0,0.0,0.0,0.0,0.0,0.0,0.0,0.0,0.0,0.0,0.0,0.0,0.0,0.0,0.0,0.0,0.0,0.0,0.0,0.0,0.0,0.0,0.0,0.0,0.0,0.0,0.0,0.0,0.0,0.0,0.0,0.0,0.0,0.0,0.0,0.0,0.0,0.0,0.0,0.0,0.0,-2.6339,-2.7645,-2.9754,-3.1311,-3.239,-3.2842,-3.0733,-2.8549,-2.6659,-2.413,0.0,0.0,0.0,0.0,0.0,0.0,0.0,0.0,0.0,0.0,0.0,0.0,0.0,0.0,0.0,0.0,0.0,0.0,0.0,0.0,0.0,0.0,0.0,0.0,0.0,0.0,0.0,0.0,0.0,0.0,0.0,0.0,0.0,0.0,0.0,0.0,0.0,0.0,0.0,0.0,0.0,0.0,0.0,0.0,0.0,0.0,0.0,0.0,0.0,0.0,0.0,0.0,0.0,0.0,0.0,0.0,0.0,0.0,0.0,0.0,0.0,0.0,0.0,0.0,0.0,0.0,0.0,0.0,0.0,0.0,0.0,0.0,0.0,0.0,0.0,0.0,0.0,0.0,0.0,0.0,0.0,0.0,0.0,0.0,0.0,0.0,0.0,0.0,0.0,0.0,0.0,0.0,0.0,0.0,0.0,0.0,0.0,0.0,0.0,0.0,0.0,0.0,-2.6992,-2.8649,-3.0382,-3.1562,-3.224,-3.2265,-2.9779,-2.772,-2.6609,-2.3401,0.0,0.0,0.0,0.0,0.0,0.0,0.0,0.0,0.0,0.0,0.0,0.0,0.0,0.0,0.0,0.0,0.0,0.0,0.0,0.0,0.0,0.0,0.0,0.0,0.0,0.0,0.0,0.0,0.0,0.0,0.0,0.0,0.0,0.0,0.0,0.0,0.0,0.0,0.0,0.0,0.0,0.0,0.0,0.0,0.0,0.0,0.0,0.0,0.0,0.0,0.0,0.0,0.0,0.0,0.0,0.0,0.0,0.0,0.0,0.0,0.0,0.0,0.0,0.0,0.0,0.0,0.0,0.0,0.0,0.0,0.0,0.0,0.0,0.0,0.0,0.0,0.0,0.0,0.0,0.0,0.0,0.0,0.0,0.0,0.0,0.0,0.0,0.0,0.0,0.0,0.0,0.0,0.0,0.0,0.0,0.0,0.0,0.0,0.0,0.0,0.0,0.0,-2.6866,-2.8473,0.0,-3.116,-3.1938,-3.126,-2.9302,-2.7469,-2.6013,0.0,0.0,0.0,0.0,0.0,0.0,0.0,0.0,0.0,0.0,0.0,0.0,0.0,0.0,0.0,0.0,0.0,0.0,0.0,0.0,0.0,0.0,0.0,0.0,0.0,0.0,0.0,0.0,0.0,0.0,0.0,0.0,0.0,0.0,0.0,0.0,0.0,0.0,0.0,0.0,0.0,0.0,0.0,0.0,0.0,0.0,0.0,0.0,0.0,0.0,0.0,0.0,0.0,0.0,0.0,0.0,0.0,0.0,0.0,0.0,0.0,0.0,0.0,0.0,0.0,0.0,0.0,0.0,0.0,0.0,0.0,0.0,0.0,0.0,0.0,0.0,0.0,0.0,0.0,0.0,0.0,0.0,0.0,0.0,0.0,0.0,0.0,0.0,0.0,0.0,0.0,0.0,0.0,0.0,0.0,0.0,0.0,0.0,0.0,0.0,0.0,0.0,-2.4632,-2.6741,-2.8323,0.0,-3.0608,-3.1336,-3.0432,-2.8323,-2.664,-2.5661,0.0,0.0,0.0,0.0,0.0,0.0,0.0,0.0,0.0,0.0,0.0,0.0,0.0,0.0,0.0,0.0,0.0,0.0,0.0,0.0,0.0,0.0,0.0,0.0,0.0,0.0,0.0,0.0,0.0,0.0,0.0,0.0,0.0,0.0,0.0,0.0,0.0,0.0,0.0,0.0,0.0,0.0,0.0,0.0,0.0,0.0,0.0,0.0,0.0,0.0,0.0,0.0,0.0,0.0,0.0,0.0,0.0,0.0,0.0,0.0,0.0,0.0,0.0,0.0,0.0,0.0,0.0,0.0,0.0,0.0,0.0,0.0,0.0,0.0,0.0,0.0,0.0,0.0,0.0,0.0,0.0,0.0,0.0,0.0,0.0,0.0,0.0,0.0,0.0,0.0,0.0,0.0,0.0,0.0,0.0,0.0,0.0,0.0,0.0,0.0,0.0,0.0,-2.4682,-2.6741,-2.8298,-2.885,-2.993,-3.0382,-2.9829,-2.6741,-2.5034,0.0,0.0,0.0,0.0,0.0,0.0,0.0,0.0,0.0,0.0,0.0,0.0,0.0,0.0,0.0,0.0,0.0,0.0,0.0,0.0,0.0,0.0,0.0,0.0,0.0,0.0,0.0,0.0,0.0,0.0,0.0,0.0,0.0,0.0,0.0,0.0,0.0,0.0,0.0,0.0,0.0,0.0,0.0,0.0,0.0,0.0,0.0,0.0,0.0,0.0,0.0,0.0,0.0,0.0,0.0,0.0,0.0,0.0,0.0,0.0,0.0,0.0,0.0,0.0,0.0,0.0,0.0,0.0,0.0,0.0,0.0,0.0,0.0,0.0,0.0,0.0,0.0,0.0,0.0,0.0,0.0,0.0,0.0,0.0,0.0,0.0,0.0,0.0,0.0,0.0,0.0,0.0,0.0,0.0,0.0,0.0,0.0,0.0,0.0,0.0,0.0,0.0,0.0,-2.4682,-2.6063,-2.7293,-2.8247,-2.9001,-2.9202,-2.8649,-2.6615,-2.5285,-2.5059,0.0,0.0,0.0,0.0,0.0,0.0,0.0,0.0,0.0,0.0,0.0,0.0,0.0,0.0,0.0,0.0,0.0,0.0,0.0,0.0,0.0,0.0,0.0,0.0,0.0,0.0,0.0,0.0,0.0,0.0,0.0,0.0,0.0,0.0,0.0,0.0,0.0,0.0,0.0,0.0,0.0,0.0,0.0,0.0,0.0,0.0,0.0,0.0,0.0,0.0,0.0,0.0,0.0,0.0,0.0,0.0,0.0,0.0,0.0,0.0,0.0,0.0,0.0,0.0,0.0,0.0,0.0,0.0,0.0,0.0,0.0,0.0,0.0,0.0,0.0,0.0,0.0,0.0,0.0,0.0,0.0,0.0,0.0,0.0,0.0,0.0,0.0,0.0,0.0,0.0,0.0,0.0,0.0,0.0,0.0,0.0,0.0,0.0,0.0,0.0,0.0,0.0,-2.4657,-2.5787,-2.6892,-2.7996,-2.8599,-2.8699,-2.8147,-2.6364,-2.4958,-2.4205,0.0,0.0,0.0,0.0,0.0,0.0,0.0,0.0,0.0,0.0,0.0,0.0,0.0,0.0,0.0,0.0,0.0,0.0,0.0,0.0,0.0,0.0,0.0,0.0,0.0,0.0,0.0,0.0,0.0,0.0,0.0,0.0,0.0,0.0,0.0,0.0,0.0,0.0,0.0,0.0,0.0,0.0,0.0,0.0,0.0,0.0,0.0,0.0,0.0,0.0,0.0,0.0,0.0,0.0,0.0,0.0,0.0,0.0,0.0,0.0,0.0,0.0,0.0,0.0,0.0,0.0,0.0,0.0,0.0,0.0,0.0,0.0,0.0,0.0,0.0,0.0,0.0,0.0,0.0,0.0,0.0,0.0,0.0,0.0,0.0,0.0,0.0,0.0,0.0,0.0,0.0,0.0,0.0,0.0,0.0,0.0,0.0,0.0,0.0,0.0,0.0,0.0,-2.4682,-2.5762,-2.6816,-2.7971,-2.8499,-2.8574,-2.8072,-2.6113,-2.4406,-2.3301,0.0,0.0,0.0,0.0,0.0,0.0,0.0,0.0,0.0,0.0,0.0,0.0,0.0,0.0,0.0,0.0,0.0,0.0,0.0,0.0,0.0,0.0,0.0,0.0,0.0,0.0,0.0,0.0,0.0,0.0,0.0,0.0,0.0,0.0,0.0,0.0,0.0,0.0,0.0,0.0,0.0,0.0,0.0,0.0,0.0,0.0,0.0,0.0,0.0,0.0,0.0,0.0,0.0,0.0,0.0,0.0,0.0,0.0,0.0,0.0,-1.816,0.0,0.0,0.0,0.0,0.0,0.0,0.0,0.0,0.0,0.0,0.0,0.0,0.0,0.0,0.0,0.0,0.0,0.0,0.0,0.0,0.0,0.0,0.0,0.0,0.0,0.0,0.0,0.0,0.0,0.0,0.0,0.0,0.0,0.0,0.0,0.0,0.0,0.0,0.0,0.0,0.0,-2.5209,-2.5636,-2.6364,-2.7946,-2.7821,-2.7595,-2.7469,-2.6214,-2.4983,-2.3879,-2.3376,0.0,0.0,0.0,0.0,0.0,0.0,0.0,0.0,0.0,0.0,0.0,0.0,0.0,0.0,0.0,0.0,0.0,0.0,0.0,0.0,0.0,0.0,0.0,0.0,0.0,0.0,0.0,0.0,0.0,0.0,0.0,0.0,0.0,0.0,0.0,0.0,0.0,0.0,0.0,0.0,0.0,0.0,0.0,0.0,0.0,0.0,0.0,0.0,0.0,0.0,0.0,0.0,0.0,0.0,0.0,0.0,0.0,0.0,0.0,0.0,-1.8657,0.0,0.0,0.0,0.0,0.0,0.0,0.0,0.0,0.0,0.0,0.0,0.0,0.0,0.0,0.0,0.0,0.0,0.0,0.0,0.0,0.0,0.0,0.0,0.0,0.0,0.0,0.0,0.0,0.0,0.0,0.0,0.0,0.0,0.0,0.0,0.0,0.0,0.0,0.0,0.0,-2.536,-2.5586,-2.6138,-2.757,-2.7695,-2.757,-2.7293,-2.6239,-2.5034,-2.3678,-2.3301,0.0,0.0,0.0,0.0,0.0,0.0,0.0,0.0,0.0,0.0,0.0,0.0,0.0,0.0,0.0,0.0,0.0,0.0,0.0,0.0,0.0,0.0,0.0,0.0,0.0,0.0,0.0,0.0,0.0,0.0,0.0,0.0,0.0,0.0,0.0,0.0,0.0,0.0,0.0,0.0,0.0,0.0,0.0,0.0,0.0,0.0,0.0,0.0,0.0,0.0,0.0,0.0,0.0,-2.2432,-2.2564,-2.2593,-2.2374,-2.2403,-2.252,-2.1189,-2.034,-1.9886,0.0,0.0,0.0,0.0,0.0,0.0,0.0,0.0,0.0,0.0,0.0,0.0,0.0,0.0,0.0,0.0,0.0,0.0,0.0,0.0,0.0,0.0,0.0,0.0,0.0,-2.6572,-2.7195,0.0,0.0,0.0,0.0,0.0,0.0,0.0,0.0,0.0,0.0,0.0,0.0,-2.5511,-2.5912,-2.6414,-2.7469,-2.7896,-2.7871,-2.7344,-2.6339,-2.5084,-2.3527,-2.3351,-2.2163,0.0,0.0,0.0,0.0,0.0,0.0,0.0,0.0,0.0,0.0,0.0,0.0,0.0,0.0,0.0,0.0,0.0,0.0,0.0,0.0,0.0,0.0,0.0,0.0,0.0,0.0,0.0,0.0,0.0,0.0,0.0,0.0,-1.0132,-1.1816,0.0,0.0,0.0,0.0,0.0,0.0,0.0,0.0,0.0,0.0,0.0,0.0,0.0,-2.2447,-2.3149,-2.4305,-2.4657,-2.4203,-2.533,-2.5301,-2.4262,-2.451,-2.4481,-2.4247,-2.4027,0.0,-2.0589,-2.0501,0.0,0.0,0.0,0.0,0.0,0.0,0.0,0.0,0.0,0.0,0.0,0.0,0.0,0.0,0.0,0.0,0.0,0.0,0.0,0.0,0.0,0.0,-2.6469,-2.7379,-2.8363,-2.9036,0.0,-2.855,-2.7494,-2.5812,-2.5234,0.0,0.0,0.0,0.0,0.0,0.0,0.0,-2.6307,-2.7168,-2.8021,-2.8649,-2.8348,-2.7871,-2.7344,-2.6716,-2.5837,-2.4682,-2.4155,-2.3502,-2.2564,-2.1343,0.0,0.0,0.0,0.0,0.0,0.0,0.0,0.0,0.0,0.0,0.0,0.0,0.0,0.0,0.0,0.0,0.0,0.0,0.0,0.0,0.0,0.0,0.0,0.0,0.0,0.0,0.0,0.0,0.0,-1.0192,-1.1728,-1.2001,-1.3588,-1.4635,0.0,0.0,0.0,0.0,0.0,0.0,0.0,0.0,0.0,-2.334,-2.394,-2.4657,-2.5491,-2.6252,-2.6574,-2.6471,-2.7042,-2.7013,-2.6457,-2.6237,-2.6164,-2.6179,-2.5813,-2.4715,-2.3091,-2.2169,-2.0955,-1.9608,0.0,0.0,0.0,0.0,-2.1827,-2.4756,-2.4189,-2.4965,0.0,0.0,0.0,0.0,0.0,0.0,0.0,0.0,0.0,0.0,0.0,0.0,0.0,-2.8441,-2.9323,-3.001,-3.0537,-3.008,-2.9026,0.0,-2.7344,-2.7243,-2.6063,0.0,0.0,0.0,0.0,-2.5586,-2.6766,-2.762,-2.8197,-2.8448,-2.8247,-2.7871,-2.7344,-2.6791,-2.5988,-2.4883,-2.4305,-2.3452,-2.2246,-2.182,-2.1644,0.0,0.0,0.0,0.0,0.0,0.0,0.0,0.0,0.0,0.0,0.0,0.0,0.0,0.0,0.0,0.0,0.0,0.0,0.0,0.0,0.0,0.0,0.0,0.0,0.0,0.0,0.0,0.0,-1.2112,-1.3106,-1.2335,-1.4297,-1.5624,0.0,0.0,0.0,0.0,0.0,0.0,-2.3164,-2.3706,-2.454,-2.5754,-2.6266,-2.6939,-2.7847,-2.8095,-2.8286,-2.8432,-2.8359,-2.8183,-2.7934,-2.7452,-2.7276,-2.732,-2.6749,-2.6047,-2.5183,-2.372,-2.2271,-2.0911,-2.0355,-2.1137,-2.2469,-2.1664,-2.3732,-2.682,-2.6397,-2.6948,-2.7945,-2.7541,0.0,-2.6054,-2.4702,0.0,0.0,0.0,0.0,-2.4488,-2.4943,-2.5722,-2.696,-2.8858,-2.9802,-3.049,-3.1097,-3.0923,-3.0131,0.0,-2.8674,-2.875,-2.7494,0.0,0.0,0.0,0.0,-2.6264,-2.7344,-2.8097,-2.8524,-2.8524,-2.8398,-2.8097,-2.7544,-2.6866,-2.6038,-2.5084,-2.4381,-2.3427,-2.2171,-2.197,-2.1644,-2.1091,0.0,0.0,0.0,0.0,0.0,0.0,0.0,0.0,0.0,0.0,0.0,0.0,0.0,0.0,0.0,0.0,0.0,0.0,0.0,0.0,0.0,0.0,0.0,0.0,0.0,0.0,0.0,0.0,0.0,-1.3513,-1.5963,0.0,0.0,0.0,0.0,-2.1889,-2.2915,-2.3866,-2.4876,-2.5827,-2.6778,-2.7773,-2.8695,-2.95,-3.0173,-3.0203,-3.0056,-2.9764,-2.9456,-2.8827,-2.7949,-2.792,-2.7583,-2.6998,-2.6647,-2.6296,-2.5886,-2.4891,-2.3354,-2.1613,-2.1276,-2.1723,-2.2519,-2.1556,-2.3802,-2.7036,-2.6088,-2.6768,-2.839,-2.9656,-2.9373,-2.8214,-2.6848,-2.6103,0.0,0.0,-2.5751,-2.5896,-2.6351,-2.7211,-2.8091,-2.8571,-2.978,-3.0769,-3.0807,-3.0679,-3.0131,0.0,-2.772,-2.7394,-2.7293,0.0,-2.7193,-2.7243,-2.8097,-2.8574,-2.8122,-2.9026,-2.9704,-2.9704,-2.9227,-2.8674,-2.8122,-2.7067,-2.6189,-2.5586,-2.4582,-2.3954,-2.3879,-2.187,-2.1217,-2.2221,-2.0715,0.0,0.0,0.0,0.0,0.0,0.0,0.0,0.0,0.0,0.0,0.0,0.0,0.0,0.0,0.0,0.0,0.0,0.0,0.0,0.0,0.0,0.0,0.0,0.0,0.0,0.0,0.0,0.0,-1.5537,-1.8256,0.0,-1.9928,-2.1519,-2.3105,-2.4569,-2.5359,-2.6383,-2.7759,-2.8359,-2.9017,-2.9778,-3.0129,-3.0422,-3.0656,-3.0656,-3.0393,-2.9866,-2.9749,-2.9193,-2.8256,-2.8052,-2.7715,-2.7276,-2.6735,-2.631,-2.5974,-2.5418,-2.4291,-2.2871,-2.233,-2.2655,-2.3504,-2.326,-2.5501,-2.8461,-2.8127,-2.8984,-3.0158,-2.9477,-2.8507,-2.7593,-2.6806,-2.6455,-2.6268,-2.5958,-2.6103,-2.6372,-2.6517,-2.7066,-2.7793,-2.8811,-2.9438,-3.0013,-3.0572,-3.0642,-3.0331,-2.9377,-2.9026,-2.8775,-2.8398,-2.8047,-2.7821,-2.7821,-2.8147,-2.8448,-2.8624,-2.9327,-2.9804,-2.9804,-2.9277,-2.8549,-2.7645,-2.6892,-2.5912,-2.4657,-2.3853,-2.3276,-2.2924,-2.182,-2.1217,-2.1242,-2.0665,-2.074,0.0,0.0,0.0,0.0,0.0,0.0,0.0,0.0,0.0,0.0,0.0,0.0,0.0,0.0,0.0,0.0,0.0,0.0,0.0,0.0,0.0,0.0,0.0,0.0,0.0,0.0,-1.7169,-1.6775,-1.9663,-2.1567,-2.1671,-2.3584,-2.5293,-2.6896,-2.7598,-2.852,-2.9793,-3.0071,-3.0378,-3.0817,-3.0817,-3.0817,-3.0817,-3.0817,-3.0495,-2.9866,-2.9749,-2.9193,-2.8256,-2.7934,-2.7613,-2.7276,-2.6617,-2.6222,-2.5959,-2.5315,-2.454,-2.372,-2.3281,-2.3458,-2.4014,-2.4253,-2.6184,-2.8838,-2.9372,-3.0127,-3.0776,-2.9352,-2.8442,-2.7841,-2.722,-2.7034,-2.6931,-2.6475,-2.6558,-2.6765,-2.6599,-2.6786,-2.7357,-2.8388,-2.8649,-2.9044,-2.9902,-3.0219,-3.0231,-2.9854,-2.9804,-2.9679,-2.9277,-2.8925,-2.8674,-2.8674,-2.8674,-2.88,-2.9176,-2.9553,-2.9804,-2.9804,-2.9277,-2.8473,-2.7369,-2.6942,-2.5963,-2.413,-2.3627,-2.31,-2.2347,-2.197,-2.1518,-2.0966,-2.0819,-2.084,-2.1217,0.0,0.0,0.0,0.0,0.0,0.0,0.0,0.0,0.0,0.0,0.0,0.0,0.0,0.0,0.0,0.0,0.0,0.0,0.0,0.0,0.0,0.0,0.0,-1.432,-1.7156,-1.8806,-1.7315,-1.9906,-2.2005,-2.2512,-2.4609,-2.6861,-2.8871,-2.9529,-3.0173,-3.0788,-3.0817,-3.0817,-3.0817,-3.0817,-3.0817,-3.0817,-3.0817,-3.0495,-2.9866,-2.9529,-2.8871,-2.7934,-2.7627,-2.7291,-2.6939,-2.6296,-2.6018,-2.59,-2.4627,-2.4101,-2.4086,-2.4057,-2.4044,-2.41,-2.41,-2.5682,-2.7955,-2.9639,-3.0227,-3.0064,-2.9518,-2.9332,-2.9145,-2.8235,-2.7945,-2.7841,-2.7386,-2.7241,-2.7138,-2.6703,-2.6579,-2.671,-2.7125,-2.7517,-2.8064,-2.8951,-2.9499,-2.9804,-2.9804,-2.9804,-2.9804,-2.9804,-2.9804,-2.9804,-2.9804,-2.9804,0.0,-2.9804,-2.9804,-2.9804,-2.9804,-2.9302,-2.8499,-2.7369,-2.7268,-2.6314,-2.413,-2.3979,-2.3452,-2.2347,-2.2297,-2.202,-2.1468,-2.0966,-2.0743,-2.0743,0.0,0.0,0.0,0.0,0.0,0.0,0.0,0.0,0.0,0.0,0.0,0.0,0.0,0.0,0.0,0.0,0.0,0.0,0.0,0.0,0.0,0.0,-1.7032,-1.6588,-1.808,-1.938,-1.9994,-2.1805,-2.3584,-2.5008,-2.676,-2.8347,-2.9925,-3.0334,-3.0642,-3.0817,-3.0817,-3.0817,-3.0817,-3.0817,-3.0817,-3.0817,-3.0598,-3.0276,-2.9851,-2.9295,-2.8651,-2.7934,-2.7627,-2.7174,-2.6617,-2.6193,-2.5886,-2.5622,-2.5037,-2.451,-2.4027,-2.3559,-2.3392,-2.3355,-2.3355,-2.4833,-2.7176,-2.9551,-3.0166,-2.991,-2.9554,-2.9704,-2.9622,-2.8711,-2.8421,-2.8255,-2.7489,-2.7013,-2.6806,-2.7013,-2.6579,-2.6472,-2.781,-2.8009,-2.8138,-2.9346,-2.9724,-2.9804,-2.9804,-2.9804,-2.9804,-2.9804,-2.9804,-2.9804,-2.9804,-2.9804,0.0,-2.9804,-2.9804,-2.9804,-2.9804,-2.9654,-2.895,-2.7419,-2.6917,-2.5912,-2.4104,-2.3226,-2.2623,-2.2322,-2.192,-2.1468,-2.0916,-2.1142,-2.1267,0.0,0.0,0.0,0.0,0.0,0.0,0.0,0.0,0.0,0.0,0.0,0.0,0.0,0.0,0.0,0.0,0.0,0.0,0.0,0.0,0.0,0.0,-1.7123,-1.8373,-1.8725,-1.9746,-2.0616,-2.1286,-2.2769,-2.4387,-2.6133,-2.7503,-2.8896,-3.0374,-3.0715,-3.0817,-3.0817,-3.0817,-3.0817,-3.0817,-3.0817,-3.0817,-3.0817,-3.0642,-3.032,-2.9851,-2.9208,-2.8564,-2.7934,-2.7481,-2.6983,0.0,-2.6164,-2.5827,-2.5491,-2.4891,-2.4423,0.0,0.0,0.0,0.0,0.0,-2.4603,-2.6347,-2.8312,-2.9174,-2.9474,-2.953,-2.9764,-2.9829,-2.8897,-2.8607,-2.8421,-2.751,-2.6931,-2.6579,-2.6662,-2.6144,-2.5899,-2.7123,-2.711,-2.7341,-2.8943,-2.9287,-2.9365,-2.9702,-2.9804,0.0,-2.9804,-2.9804,-2.9804,-2.9804,-2.9804,-2.9804,-2.9804,-2.9804,-2.9804,-2.9804,-2.9377,-2.8599,-2.7394,-2.6992,0.0,0.0,0.0,-2.315,-2.2673,-2.2121,0.0,0.0,0.0,-2.1719,-2.1493,0.0,0.0,0.0,-2.2128,-2.2394,0.0,0.0,0.0,0.0,0.0,0.0,0.0,0.0,0.0,0.0,0.0,0.0,0.0,0.0,0.0,0.0,-1.8128,-1.9015,-2.0447,-2.1436,-2.1885,-2.1817,-2.2909,-2.4461,-2.6209,-2.739,-2.8828,-3.0636,-3.0817,-3.0817,-3.0817,0.0,0.0,0.0,0.0,-3.0817,-3.0817,-3.0744,-3.0422,-2.9851,-2.9164,-2.8549,-2.7978,-2.7305,-2.6808,-2.6486,-2.6164,-2.5813,-2.5403,-2.454,-2.413,-2.4027,-2.3984,-2.3618,-2.3157,-2.3967,-2.486,-2.5869,-2.6866,0.0,0.0,-2.9509,-2.9679,-2.9642,-2.8776,-2.8487,-2.8359,-2.751,-2.6931,-2.6475,-2.6061,-2.5585,-2.5284,-2.5763,-2.5863,-2.6318,-2.8131,-2.845,-2.8791,-2.9624,-2.9804,-2.9804,-2.9804,-2.9804,-2.9804,-2.9804,-2.9804,-2.9804,-2.9804,-2.9804,-2.9804,-2.9804,0.0,0.0,-2.7519,-2.7344,-2.6414,-2.4406,-2.4632,-2.433,-2.3215,-2.2698,-2.2598,-2.2965,-2.2548,-2.2071,-2.1568,-2.1644,-2.192,-2.2422,-2.2849,-2.2942,0.0,0.0,0.0,0.0,0.0,0.0,0.0,0.0,0.0,0.0,0.0,0.0,0.0,0.0,0.0,-1.7216,-1.8346,-1.951,-2.0942,-2.1459,-2.1839,-2.2395,-2.2685,-2.3915,-2.6512,-2.7019,-2.8056,-3.0651,-3.0817,-3.0817,-3.0817,-3.0817,0.0,-3.0817,-3.0817,-3.0817,-3.0817,-3.0305,-2.9983,-2.9851,0.0,0.0,-2.8315,-2.7408,-2.6808,-2.6486,-2.6164,-2.5681,-2.514,-2.4949,-2.4408,-2.3662,-2.3398,-2.3223,-2.3311,-2.518,-2.578,-2.6071,-2.8333,-2.8976,-2.8893,-2.9252,-2.9106,-2.8715,-2.839,-2.8061,0.0,-2.7407,-2.6931,-2.6558,-2.6455,-2.5834,-2.5367,-2.6195,-2.6103,-2.6318,-2.8131,-2.845,-2.8791,-2.9624,-2.9804,-2.9804,-2.9804,-2.9804,-2.9804,-2.9804,-2.9804,-2.9804,-2.9804,-2.9804,-2.9804,-2.9804,-2.9603,-2.9227,-2.8649,-2.7795,-2.6917,-2.6038,-2.5259,-2.4531,-2.3853,-2.3276,-2.2824,-2.2472,-2.2372,-2.2272,-2.2146,-2.2598,-2.2874,-2.2975,-2.2766,-2.2908,0.0,0.0,0.0,0.0,0.0,0.0,0.0,0.0,0.0,0.0,0.0,-1.4299,0.0,0.0,-1.6686,-1.8541,-1.9162,-1.9876,-2.0942,-2.1394,-2.1793,-2.2277,-2.2439,-2.3517,-2.6386,-2.6681,-2.7941,-3.0651,-3.0817,-3.0817,-3.0817,-3.0817,-3.0817,-3.0817,-3.0817,-3.0817,-3.0817,-3.0349,-3.0027,-2.9851,-2.9047,-2.8578,-2.8403,-2.7598,-2.7056,-2.672,-2.6222,-2.574,-2.5257,-2.4774,-2.4086,-2.334,-2.3179,-2.3106,-2.3171,-2.4003,-2.4874,-2.5806,-2.6785,-2.7853,-2.8727,-2.8727,-2.8745,-2.8573,-2.8105,-2.7815,-2.7744,-2.7386,-2.6931,-2.6517,-2.6289,-2.573,-2.5321,-2.5717,-2.553,-2.557,-2.713,-2.7859,-2.8536,-2.9365,-2.9866,-3.0206,-3.0206,-2.998,-2.9804,-2.9804,-2.9804,-2.9804,-2.9804,-2.9804,-2.9804,-2.9804,-2.9528,-2.9252,-2.895,-2.767,-2.6766,-2.6559,-2.5435,-2.4707,-2.4431,-2.413,-2.3728,-2.3175,-2.315,-2.315,-2.315,-2.315,-2.3366,-2.3954,-2.3487,-2.3356,0.0,0.0,0.0,0.0,0.0,0.0,0.0,0.0,-1.3728,-1.4202,-1.4719,-1.5598,-1.7357,-1.7252,-1.7675,-1.9769,-2.0003,-2.0091,-2.0802,-2.1233,-2.1556,-2.176,-2.2105,-2.336,-2.6259,-2.663,-2.7968,-3.0738,-3.0861,-3.0817,-3.0817,-3.0817,-3.0817,-3.0817,-3.089,-3.0861,-3.0729,-3.0481,-3.0159,-2.9764,-2.9164,-2.8725,-2.8417,-2.7773,-2.7305,-2.6939,-2.6164,-2.5681,-2.5359,-2.4393,-2.3647,-2.3106,-2.3106,-2.3106,-2.3047,-2.2719,-2.3968,-2.5656,-2.538,-2.6755,-2.8581,-2.8305,-2.8361,-2.8431,-2.7801,-2.7554,-2.7523,-2.727,-2.6993,-2.6599,-2.6144,-2.5751,-2.544,-2.5275,-2.4943,-2.5016,-2.6217,-2.733,-2.83,-2.9224,-3.017,-3.0758,-3.0758,-3.0407,-3.003,-2.9829,-2.9804,-2.9804,-2.9804,-2.9804,-2.9804,-2.9804,-2.9377,-2.9051,-2.8925,-2.7695,-2.6841,-2.671,-2.5787,-2.5209,-2.4983,-2.4983,-2.4707,-2.418,-2.4155,-2.4155,-2.4155,-2.3703,-2.3929,-2.4808,-2.4381,-2.3991,-1.1671,-1.1995,-1.2544,-1.3405,-1.3642,-1.3997,0.0,0.0,-1.5451,-1.5935,-1.6581,-1.7033,-1.7065,-1.7647,-1.8422,-1.9159,-1.9669,-2.0091,-2.0802,-2.0953,-2.0996,-2.1017,-2.1803,-2.3427,-2.6525,-2.6745,-2.8061,-3.1058,-3.0993,-3.0817,-3.0817,-3.0817,-3.0817,-3.0817,-3.111,-3.0978,-3.0407,-3.0364,-3.0042,-2.9427,-2.9061,-2.8725,-2.8417,-2.7773,-2.7305,-2.6925,-2.5696,-2.514,-2.5037,-2.4057,-2.3442,-2.3106,-2.3106,-2.3106,-2.3186,-2.3916,-2.4752,-2.5857,-2.6918,-2.7788,-2.834,-2.8672,-2.8114,-2.7275,-2.7359,-2.7082,-2.6653,-2.69,-2.7051,-2.7076,-2.662,-2.6455,-2.6227,-2.542,-2.5192,-2.5326,-2.6282,-2.733,-2.8393,-2.9702,-3.063,-3.1311,-3.1311,-3.126,-3.0884,-2.993,-2.9804,-2.9804,-2.9804,-2.9804,-2.9804,-2.9804,-2.9729,-2.9478,-2.8976,-2.875,-2.8222,-2.7243,-2.7067,-2.6565,-2.5561,-2.5511,-2.5259,-2.4732,-2.4732,-2.4732,-2.4732,-2.4657,-2.4707,-2.4833,-2.4757,-2.4707,-1.2242,-1.2974,-1.375,0.0,-1.4654,-1.5214,-1.5817,-1.6086,-1.6355,-1.684,-1.7389,-1.7766,-1.7658,-1.8078,-1.8541,0.0,-1.9445,-2.0048,-2.063,-2.0823,-2.0802,-2.0533,-2.0974,-2.2263,-2.4608,-2.5753,-2.7223,-2.9369,-3.0281,-3.0627,-3.0817,-3.0817,-3.0817,-3.0817,-3.0773,-3.0715,-3.0627,-3.0071,-2.9749,-2.9647,-2.9134,-2.8725,-2.8417,-2.7964,-2.7261,-2.6383,-2.5652,-2.5008,-2.4437,-2.3837,-2.3398,-2.3106,-2.3106,-2.3106,-2.3076,-2.3352,-2.3951,-2.4795,-2.5846,-2.6662,-2.7365,-2.7699,-2.7545,-2.7199,-2.6804,-2.6681,-2.6805,-2.69,-2.7092,-2.7158,-2.6682,-2.6579,-2.6413,-2.5612,-2.5537,-2.5853,-2.6627,-2.7895,-2.9207,-3.0276,-3.128,-3.1863,-3.1863,-3.1612,-3.1135,-3.0382,-3.0281,-3.0156,-2.9829,-2.9804,-2.9804,-2.9804,-2.9804,-2.9704,-2.9453,-2.9126,-2.8725,-2.8273,-2.7946,-2.7419,-2.6615,-2.6565,-2.6163,-2.5285,-2.4983,-2.4958,-2.5259,-2.4657,-2.4833,-2.5762,-2.5435,-2.546,-1.2996,-1.3879,0.0,-1.5042,-1.5785,-1.6452,-1.6527,-1.7107,-1.7631,-1.7727,-1.8167,-1.8501,-1.8089,-1.8229,-1.8444,-1.8735,-1.9381,-1.9994,-2.0404,-2.0554,-2.0457,-2.007,-2.0048,-2.0682,-2.2506,-2.448,-2.6405,-2.8687,-2.9713,-3.0393,-3.0803,-3.0817,-3.0817,-3.0817,-3.0685,-3.0554,-3.0422,-2.991,-2.9632,-2.9588,-2.9032,-2.8608,-2.8286,-2.7876,-2.7174,-2.6252,-2.5652,-2.5008,-2.4305,-2.3706,-2.3325,-2.3106,-2.3106,-2.3047,-2.2945,-2.271,-2.3367,-2.4428,-2.4973,-2.5892,-2.6924,-2.7072,-2.7133,-2.7001,-2.6369,-2.6403,-2.6688,-2.6805,-2.6976,-2.7084,-2.6754,-2.6671,-2.6475,-2.5839,-2.5808,-2.6152,-2.6674,-2.801,-2.9458,-3.0477,-3.1393,-3.2102,-3.2356,-3.2114,-3.1662,-3.1135,-3.0934,-3.0583,-2.988,-2.9804,-2.9804,-2.9804,-2.9804,-2.9804,-2.9804,-2.9402,-2.9101,-2.8925,-2.8549,-2.8021,-2.7318,-2.7293,-2.6816,-2.5862,-2.546,-2.546,-2.5837,-2.5059,-2.5285,-2.6508,-2.6038,-2.6063,-1.389,0.0,-1.5149,-1.6312,-1.7141,-1.7733,-1.797,-1.9025,-1.9623,-1.8541,-1.9048,-1.9301,-1.8226,-1.8099,-1.825,-1.8713,-1.9381,-1.993,-2.0188,-2.0027,-1.979,-1.9542,-1.9112,-1.936,0.0,-2.329,-2.6148,-2.9646,-2.9881,-3.0159,-3.0788,-3.0817,-3.0817,-3.0817,-3.1124,-3.0685,-2.9427,-3.0012,-2.9851,-2.8915,-2.8608,-2.8286,-2.7949,-2.7305,-2.6998,-2.6896,-2.5622,-2.5052,-2.492,-2.3647,-2.312,-2.3106,-2.3106,-2.2915,-2.2637,-2.2623,-2.3831,-2.5575,-2.5315,-2.6263,-2.7676,-2.7656,-2.709,-2.6406,-2.6367,-2.6251,-2.6187,-2.64,-2.6709,-2.69,-2.688,-2.688,-2.6662,-2.6007,-2.5999,-2.6207,-2.6207,-2.7183,-2.8497,-2.9965,-3.0956,-3.1952,-3.2871,-3.3043,-3.2817,-3.224,-3.1712,-3.0984,-2.993,-2.9804,-2.9804,-2.9804,-2.9804,-2.9804,-2.9804,-2.9779,-2.9528,-2.8976,-2.89,-2.8423,-2.7318,-2.7293,-2.7017,-2.6508,-2.6483,-2.6483,-2.6508,-2.6458,-2.6483,-2.6533,-2.6508,-2.6508,-1.4676,0.0,-1.6538,-1.7583,-1.8132,-1.853,-1.8939,-1.969,-2.011,-1.9231,-1.9634,-1.9638,-1.7932,-1.7961,-1.8139,-1.7933,-1.8713,-1.9575,-2.0134,-2.0274,-1.9994,-1.9122,-1.9165,0.0,0.0,0.0,0.0,-2.7393,-2.882,-2.9822,-3.0481,-3.092,-3.1051,-3.0832,-3.0729,-3.0466,-3.0027,-2.9807,-2.9544,-2.9208,-2.8461,-2.7949,-2.7613,-2.6969,-2.6427,-2.5974,-2.511,-2.4496,-2.4042,-2.3384,-2.3106,-2.3091,-2.2871,-2.2725,-2.2579,-2.2154,-2.3419,-2.5349,-2.5213,-2.5985,-2.6943,-2.7544,-2.7461,-2.7129,-2.6562,-2.6468,-2.6565,-2.648,-2.6592,-2.6709,-2.69,-2.6805,-2.6491,-2.5764,-2.6168,-2.6668,-2.6877,-2.7693,-2.8965,-3.0777,-3.1359,-3.1889,-3.2896,-3.3068,-3.2742,-3.1813,-3.121,-3.0608,-2.988,-2.9804,-2.9804,-2.9804,-2.9804,-2.9804,-2.9804,-2.9804,-2.9704,-2.9528,-2.9503,-2.9001,-2.7871,-2.7821,-2.7394,-2.6559,-2.6088,-2.6088,-2.6533,-2.6063,-2.6088,-2.6533,-2.6533,-2.6533,-1.5752,-1.6743,-1.7766,-1.881,-1.9187,-1.9474,-2.0047,-2.0491,-2.0563,-1.9709,-1.9898,-1.9509,-1.7386,-1.7323,-1.7394,-1.7044,-1.7776,-1.8724,-1.9693,-1.9811,-1.9607,-1.9101,-1.9591,-2.0434,0.0,0.0,0.0,-2.6446,-2.8244,-2.9486,-3.0144,-3.0788,-3.1037,-3.0832,-3.051,-3.029,-3.0173,-2.9647,-2.9208,-2.8856,-2.8242,-2.7656,-2.7115,-2.6574,-2.6032,-2.5491,-2.4847,-2.4262,-2.3749,-2.3413,-2.3208,-2.3076,-2.2754,-2.2564,-2.2403,-2.1891,-2.2859,-2.4428,-2.4862,-2.586,-2.7012,-2.735,-2.7324,-2.707,-2.6367,-2.6251,-2.6369,-2.6383,-2.64,-2.64,-2.6592,-2.6496,-2.6224,-2.5678,-2.62,-2.6798,-2.6827,-2.7704,-2.8827,-3.0193,-3.0941,-3.1574,-3.2376,-3.2896,-3.2767,-3.1813,-3.1411,-3.0859,-2.9905,-2.9804,-2.9804,-2.9804,-2.9804,-2.9804,-2.9804,-2.9804,-2.9804,-2.9804,-2.9804,-2.9377,-2.8448,-2.8222,-2.767,-2.6766,-2.6189,-2.6088,-2.6533,-2.6088,-2.6088,-2.6533,-2.6533,-2.6533,-1.7066,-1.7981,-1.8821,-1.9962,-2.0242,-2.0408,-2.1094,-2.1339,-2.1094,-1.9989,-1.9719,-1.9044,0.0,0.0,-1.608,-1.6241,-1.6721,-1.7561,-1.8982,-1.8821,-1.8789,0.0,0.0,0.0,0.0,0.0,0.0,-2.6852,0.0,-2.9164,-2.9822,-3.0495,-3.0832,-3.0803,-3.051,-3.0188,-2.9837,-2.9515,-2.8886,-2.7949,-2.7949,-2.7437,-2.6471,-2.6149,-2.5798,-2.5447,-2.4818,-2.4364,-2.4027,-2.3706,-2.3384,-2.3047,-2.271,-2.2403,-2.2125,-2.1818,-2.2291,-2.3231,-2.4223,-2.5973,-2.7637,-2.7246,-2.6816,-2.6367,-2.5937,-2.5781,-2.5762,-2.6014,-2.6091,-2.6091,-2.6091,-2.6091,-2.6014,-2.5723,-2.613,-2.642,-2.6207,-2.7033,-2.8015,-2.8365,-2.9821,-3.1112,-3.1632,-3.2413,-3.2842,-3.229,-3.219,-3.1612,-3.008,-2.9854,-2.9829,-2.9829,-2.9804,-2.9804,-2.9804,-2.9804,-2.9804,-2.9804,-2.9804,-2.9528,-2.895,-2.8398,-2.7846,-2.7293,-2.6741,-2.6533,-2.6533,-2.6533,-2.6533,-2.6533,-2.6533,-2.6533,-1.8132,-1.9208,-2.0134,-2.0608,-2.0597,-2.0648,-2.121,-2.1052,-2.0479,-1.9407,-1.8884,-1.7849,0.0,0.0,0.0,-1.5774,-1.6926,0.0,-1.9499,-1.9876,0.0,-2.0027,0.0,-2.2657,-2.3451,-2.389,0.0,0.0,-2.8373,-2.893,-2.9807,-3.07,-3.0964,-3.0481,-3.0393,-3.0086,-2.95,-2.9178,-2.8651,-2.7949,-2.7949,-2.732,-2.6135,-2.5798,-2.5344,-2.4788,-2.4379,-2.4027,-2.3691,-2.3369,-2.3047,-2.2696,-2.2154,-2.1891,-2.1818,-2.173,-2.2443,-2.3403,-2.3889,-2.5267,-2.6967,-2.8037,-2.793,-2.7266,-2.6816,-2.6465,-2.6251,-2.6093,-2.5917,-2.582,-2.6014,-2.5917,-2.582,-2.5742,-2.6368,-2.6801,-2.6267,-2.7276,-2.8768,-2.9764,-3.1639,-3.3079,-3.2711,-3.2546,-3.239,-3.224,-3.1863,-3.1461,-3.1035,-3.0633,-3.0407,-3.0407,-3.003,-2.9804,-2.9804,-2.9804,-2.9804,-2.9804,-2.9804,-2.9528,-2.895,-2.8398,-2.7846,-2.7293,-2.6741,-2.6533,-2.6533,-2.6533,-2.6533,-2.6533,-2.6533,-2.6533,-1.9273,-2.0124,-2.0791,-2.1136,-2.0813,-2.0528,-2.0865,-2.0197,-1.9169,-1.8389,-1.7929,0.0,-1.4746,0.0,0.0,0.0,0.0,0.0,-1.9155,-1.9704,-2.0124,0.0,-2.2168,0.0,-2.4099,-2.4354,-2.5644,0.0,-2.8302,-2.8504,-2.9822,-3.051,-3.0729,-3.0364,-3.0071,-2.9676,-2.9164,-2.8988,-2.8578,-2.7949,-2.7656,-2.6925,-2.5783,-2.5315,-2.4832,-2.4335,0.0,-2.3764,-2.3574,-2.3237,-2.3003,-2.2769,-2.2154,-2.1993,-2.2081,-2.1964,-2.2363,-2.3099,-2.3897,-2.4928,-2.6113,-2.7397,-2.7327,-2.6788,-2.671,-2.6445,-2.6055,-2.5995,-2.582,-2.5723,-2.5917,-2.5977,-2.5977,-2.5781,-2.6349,-2.6903,-2.6349,-2.742,-2.8901,-3.0611,-3.2174,-3.3231,-3.3082,-3.2817,-3.2591,-3.2591,-3.234,-3.2139,-3.2139,-3.1235,-3.0532,-3.0281,-2.998,-2.9804,-2.9804,-2.9804,-2.9804,-2.9804,-2.9804,-2.9654,-2.9327,-2.8775,-2.8197,-2.7645,-2.7092,-2.676,-2.6533,-2.6533,-2.6533,-2.6533,-2.6533,-2.6533,-2.035,-2.0899,-2.1211,-2.1502,-2.0931,-2.032,-2.0221,-1.9014,-1.7815,-1.7249,0.0,-1.6007,-1.4612,-1.4628,-1.4949,-1.5117,0.0,-1.6523,-1.8856,-1.9203,-1.9736,-2.1512,-2.2647,-2.3692,-2.4489,-2.473,-2.5911,-2.8633,-2.8011,-2.8235,-2.9837,-3.0173,-3.0305,-3.0217,-2.9588,-2.912,-2.8827,-2.8783,-2.8447,-2.7817,-2.7217,-2.6398,-2.5388,-2.4774,-2.432,-2.3998,0.0,0.0,-2.3501,-2.3179,-2.3018,-2.293,-2.2345,-2.2301,-2.2535,-2.233,-2.2213,-2.2348,-2.3836,-2.4691,-2.5213,-2.6242,-2.6334,-2.5977,-2.6396,-2.6172,-2.582,-2.5762,-2.5742,-2.5742,-2.5742,-2.6016,-2.623,-2.5898,-2.635,-2.6844,-2.6565,-2.7683,-2.9225,-3.0993,-3.2042,-3.2747,-3.2996,-3.3068,-3.3068,-3.3068,-3.3068,-3.3043,-3.2968,-3.1662,-3.0532,-3.0055,-2.988,-2.9804,-2.9804,-2.9804,-2.9804,-2.9804,-2.9804,-2.9804,-2.9804,-2.9227,-2.8699,-2.8222,-2.7595,-2.7042,-2.6634,-2.6559,-2.6533,-2.6533,-2.6533,-2.6533,-2.0942,-2.1749,-2.2202,-2.1513,-2.106,-2.0637,-1.9841,-1.8337,0.0,0.0,-1.557,-1.4333,-1.329,-1.4099,-1.4813,-1.4603,0.0,0.0,0.0,0.0,-2.0494,0.0,0.0,0.0,0.0,0.0,0.0,0.0,0.0,-2.8235,-2.9837,-3.0173,-3.01,-2.9559,-2.893,-2.8578,-2.852,-2.8242,-2.7788,-2.7144,-2.6764,-2.5944,-2.4715,-2.4335,-2.3984,-2.3676,-2.3618,0.0,-2.3164,-2.2842,-2.2564,-2.2315,-2.1935,-2.1979,-2.2286,-2.2476,-2.2389,-2.2228,-2.2763,-2.3442,-2.4496,-2.6733,-2.736,-2.735,-2.6948,-2.6602,-2.6191,-2.584,-2.5742,-2.5742,-2.5742,-2.5801,-2.5918,-2.6211,-2.6783,-2.728,-2.728,-2.9295,-3.1074,-3.0964,-3.2534,-3.3687,-3.2897,-3.2982,-3.3068,-3.3068,-3.3068,-3.2893,-3.2416,-3.1712,-3.121,-3.111,-3.0331,-2.9804,-2.9804,-2.9804,-2.9804,-2.9804,-2.9804,-2.9804,-2.9804,-2.9227,-2.8875,-2.8775,-2.7795,-2.7243,-2.7143,-2.676,-2.6533,-2.6533,-2.6533,-2.6533,-2.1416,-2.1965,-2.2169,-2.1599,-2.0813,-1.9854,-1.8597,0.0,0.0,0.0,-1.4325,-1.395,-1.341,-1.3973,0.0,0.0,0.0,0.0,0.0,0.0,0.0,0.0,0.0,0.0,0.0,0.0,0.0,0.0,0.0,-2.7647,-3.0086,-2.9939,-2.9704,-2.9508,-2.9194,-2.9093,-2.9366,-2.8432,-2.7789,-2.7296,-2.6202,-2.5242,-2.4305,-2.3984,-2.3735,-2.3588,-2.3413,0.0,-2.3091,-2.2754,-2.2535,-2.2389,-2.2242,-2.2374,-2.2681,-2.2828,-2.2784,-2.2667,-2.2637,-2.3127,-2.421,-2.5863,-2.6664,-2.7005,-2.7001,-2.6719,-2.6348,-2.6133,-2.5918,-2.5801,-2.6016,-2.623,-2.6406,-2.6387,-2.6976,-2.755,-2.7736,-2.988,-3.1562,-3.0504,-3.2132,-3.3339,-3.2422,-3.2259,-3.2525,-3.2982,-3.2817,-3.2516,-3.224,-3.1486,-3.0984,-3.0984,-3.0256,-2.9804,-2.9804,-2.9804,-2.9804,-2.9804,-2.9804,-2.9804,-2.9804,-2.9528,-2.9227,-2.8925,-2.8398,-2.7996,-2.772,-2.7168,-2.6892,-2.6892,-2.6659,-2.6533,-2.1642,-2.2008,-2.2029,-2.1642,-2.0511,-1.9047,-1.7324,-1.5795,0.0,0.0,-1.3578,-1.404,-1.3762,-1.4153,-1.4695,0.0,-1.5311,0.0,0.0,0.0,0.0,0.0,0.0,0.0,0.0,0.0,0.0,0.0,0.0,0.0,-3.01,-2.9615,-2.9323,-2.9641,-2.9563,-2.9617,-2.9945,-2.8542,-2.7717,-2.729,-2.5754,-2.4642,-2.4071,-2.3749,-2.3588,-2.3574,-2.3179,0.0,0.0,-2.2667,-2.2564,-2.2623,-2.2623,-2.2813,-2.3106,-2.3106,-2.3062,-2.2959,-2.2637,-2.3021,-2.3965,-2.4838,-2.5652,-2.6498,-2.6852,-2.6855,-2.6621,-2.6445,-2.6211,-2.6094,-2.6426,-2.6777,-2.6953,-2.6719,-2.7349,-2.8003,-2.8088,-2.9994,-3.1229,-2.9944,-3.133,-3.2464,-3.1828,-3.1783,-3.2089,-3.2896,-3.2692,-3.239,-3.239,-3.1562,-3.0909,-3.0783,-3.0181,-2.9804,-2.9804,-2.9804,-2.9804,-2.9804,-2.9804,-2.9804,-2.9804,-2.9804,-2.9578,-2.9126,-2.9001,-2.8725,-2.8273,-2.772,-2.7394,-2.7268,-2.6841,-2.6634,-2.1394,-2.2126,-2.2406,-2.1523,-2.0393,-1.9004,-1.712,0.0,0.0,-1.3837,-1.395,-1.404,-1.395,-1.4884,-1.5651,-1.5299,0.0,-1.7488,0.0,0.0,0.0,0.0,0.0,0.0,0.0,0.0,0.0,0.0,0.0,0.0,-2.9442,-2.9194,-2.923,-2.961,-2.933,-2.9265,-2.9233,-2.7989,-2.6893,-2.6237,-2.5189,-2.4423,-2.4071,-2.3749,-2.3588,-2.3559,-2.2945,0.0,0.0,-2.2345,-2.2389,-2.2623,-2.2623,-2.2813,-2.3106,-2.3106,-2.2915,-2.2623,-2.233,-2.2822,-2.3713,-2.4452,-2.5533,-2.6587,-2.6852,-2.7266,-2.7383,-2.6602,-2.6641,-2.6914,-2.6953,-2.6992,-2.7109,-2.7461,-2.8121,-2.8562,-2.8349,-2.9493,-3.0305,-2.9332,-3.0745,-3.1902,-3.1391,-3.1985,-3.2636,-3.2723,-3.2932,-3.2993,-3.2993,-3.2441,-3.1863,-3.1361,-3.0407,-2.9804,-2.9804,-2.9804,-2.9804,-2.9804,-2.9804,-2.9804,-2.9804,-2.9804,-2.9754,-2.9704,-2.9202,-2.89,-2.885,-2.8298,-2.777,-2.7293,-2.7243,-2.6942,-2.0684,-2.1502,-2.1879,-2.1222,-1.9844,-1.8261,-1.6786,0.0,-1.351,-1.3437,-1.361,-1.3963,-1.4124,-1.4668,-1.4943,-1.4587,0.0,0.0,0.0,0.0,0.0,0.0,0.0,0.0,0.0,0.0,0.0,0.0,0.0,0.0,-2.8227,-2.8354,-2.8417,-2.874,-2.8434,-2.8334,-2.8344,-2.6966,-2.6218,-2.581,-2.4609,-2.391,-2.3779,-2.3457,-2.3193,-2.2988,-2.274,0.0,0.0,-2.2418,-2.252,-2.2637,-2.2842,-2.2988,-2.3106,-2.3106,-2.2901,-2.2579,-2.2286,-2.2777,-2.3664,-2.4401,-2.5516,-2.6643,-2.7265,-2.7519,-2.7598,-2.7246,-2.709,-2.707,-2.7344,-2.7402,-2.7519,-2.7949,-2.8466,-2.8721,-2.834,-2.9419,-3.0307,-2.9746,-3.0708,-3.1598,-3.1667,-3.2011,-3.239,-3.2686,-3.2596,-3.2566,-3.2566,-3.2064,-3.1512,-3.0984,-3.0532,-3.0156,-2.9829,-2.9804,-2.9804,-2.9804,-2.9804,-2.9804,-2.9804,-2.9804,-2.9804,-2.9804,-2.9578,-2.9453,-2.9453,-2.8875,-2.8323,-2.777,-2.7444,-2.6992,-1.9736,-2.0554,-2.1017,-2.0673,-1.9165,-1.7496,0.0,0.0,-1.3019,-1.2825,-1.329,-1.3796,-1.4024,-1.4405,-1.4682,0.0,0.0,-1.4641,-1.5117,0.0,0.0,0.0,0.0,0.0,0.0,0.0,0.0,0.0,0.0,0.0,0.0,-2.6805,-2.7203,-2.7992,-2.7691,-2.7601,-2.7701,-2.6191,-2.5543,-2.5451,-2.4193,-2.3545,-2.3442,-2.3208,-2.2988,-2.2754,0.0,0.0,0.0,-2.2579,-2.2681,-2.2784,-2.3018,-2.3047,-2.2959,-2.2959,-2.2769,-2.2447,-2.214,-2.2466,-2.3106,-2.4306,-2.5278,-2.6245,-2.7506,-2.7851,-2.7832,-2.7695,-2.7539,-2.7461,-2.7773,-2.7851,-2.793,-2.8223,-2.8516,-2.8652,-2.8359,-2.916,-2.9794,-2.9469,-3.0381,-3.1207,-3.1467,-3.2018,-3.2454,-3.2711,-3.2461,-3.2381,-3.2466,-3.2056,-3.153,-3.0909,-3.0859,-3.0557,-2.9854,-2.9804,-2.9804,-2.9804,-2.9804,-2.9804,-2.9804,-2.9804,-2.9804,-2.9804,-2.9804,-2.9804,-2.9804,-2.9377,-2.8825,-2.8097,-2.772,-2.7143,-1.8541,-1.9327,-1.9865,-1.9854,-1.8422,-1.6829,0.0,0.0,-1.263,-1.2238,-1.2933,-1.3623,-1.3442,-1.4503,-1.5643,-1.6272,-1.636,0.0,0.0,0.0,0.0,0.0,0.0,0.0,0.0,0.0,0.0,0.0,0.0,0.0,0.0,-2.4479,-2.5456,-2.7484,-2.7661,-2.7534,-2.7318,-2.5965,-2.5083,-2.465,-2.3985,-2.3427,-2.312,-2.3106,-2.3106,0.0,0.0,0.0,0.0,-2.2754,-2.2813,-2.3106,-2.3106,-2.2915,-2.2623,-2.2623,-2.2447,-2.214,-2.1818,-2.1701,-2.2094,-2.4082,-2.4727,-2.5168,-2.7618,-2.8281,-2.8203,-2.7793,-2.7969,-2.8281,-2.8281,-2.8281,-2.8281,-2.8301,-2.8301,-2.8301,-2.8301,-2.8301,-2.8301,-2.8301,-2.9663,-3.0712,-3.0383,-3.1926,-3.3104,-3.2711,-3.2698,-3.2785,-3.3068,-3.2871,-3.2361,-3.1486,-3.1386,-3.0959,-2.988,-2.9804,-2.9804,-2.9804,-2.9804,-2.9804,-2.9804,-2.9804,-2.9804,-2.9804,-2.9804,-2.9804,-2.9804,-2.9779,-2.9202,-2.8097,-2.8097,-2.7494,-1.6678,-1.7356,-1.7863,-1.7712,-1.6603,-1.5418,-1.4869,0.0,-1.2363,-1.2484,-1.3012,-1.3579,-1.3997,-1.4824,-1.5459,-1.5539,-1.5548,0.0,0.0,0.0,0.0,0.0,0.0,0.0,0.0,0.0,0.0,0.0,0.0,0.0,0.0,-2.304,-2.4099,-2.6106,-2.5741,-2.5381,-2.5166,-2.4247,-2.3851,-2.3985,-2.3495,-2.3325,-2.3427,-2.3208,0.0,0.0,0.0,0.0,0.0,-2.2667,-2.2681,-2.2769,-2.2769,-2.2593,-2.233,-2.233,-2.2125,-2.1832,-2.173,-2.212,-2.2679,-2.3344,-2.4633,-2.6082,-2.6844,-2.7638,-2.8262,-2.8125,-2.8184,-2.8301,-2.8301,-2.8301,-2.8301,-2.8301,-2.8516,-2.8633,-2.8359,-2.8516,-2.8849,-2.9258,-3.043,-3.1394,-3.1698,-3.3055,-3.382,-3.3374,-3.3482,-3.3662,-3.3931,-3.3518,-3.2934,-3.2064,-3.1612,-3.0959,-2.988,-2.9804,-2.9804,-2.9804,-2.9804,-2.9804,-2.9804,-2.9804,-2.9804,-2.9804,-2.9804,-2.9804,-2.9804,-2.9804,-2.9202,-2.8097,-2.7344,-2.6791,0.0,-1.5871,-1.6334,-1.6269,-1.5365,0.0,0.0,-1.3139,-1.2406,-1.268,-1.3225,-1.3899,-1.4307,-1.4908,-1.543,-1.5486,-1.5567,0.0,0.0,0.0,0.0,0.0,0.0,0.0,0.0,0.0,0.0,0.0,0.0,0.0,0.0,0.0,-2.2409,-2.3927,-2.3955,-2.4012,-2.4086,-2.3427,-2.3208,-2.3413,-2.3208,-2.3149,-2.3223,-2.3018,0.0,0.0,0.0,0.0,0.0,-2.2681,-2.2623,-2.2608,-2.2506,-2.2271,-2.1993,-2.1993,-2.1789,-2.1511,-2.1511,-2.1825,-2.2425,-2.3295,-2.5296,-2.7187,-2.7187,-2.7745,-2.8301,-2.8301,-2.8301,-2.8301,-2.8301,-2.8301,-2.8301,-2.8301,-2.8496,-2.8613,-2.834,-2.8496,-2.881,-2.9258,-3.0245,-3.1003,-3.123,-3.2323,-3.3148,-3.3284,-3.3236,-3.3514,-3.4247,-3.3776,-3.3107,-3.2471,-3.1755,-3.1035,-3.0181,-2.9905,-2.9804,-2.9804,-2.9804,-2.9804,-2.9804,-2.9804,-2.9804,-2.9804,-2.9804,-2.9804,-2.9804,-2.9352,-2.8699,-2.777,-2.7092,-2.6766,0.0,-1.4729,0.0,0.0,0.0,0.0,0.0,0.0,0.0,-1.2709,-1.3643,-1.4405,-1.4419,-1.4922,-1.5555,-1.5921,0.0,0.0,0.0,0.0,0.0,0.0,0.0,0.0,0.0,0.0,0.0,0.0,0.0,0.0,0.0,0.0,-2.0383,-2.1192,-2.2123,-2.3043,-2.3927,-2.3427,-2.3106,-2.3106,-2.3106,-2.2945,-2.2652,-2.2652,0.0,0.0,0.0,0.0,0.0,-2.271,-2.2579,-2.2535,-2.2257,-2.195,-2.1657,-2.1657,-2.1467,-2.1203,-2.1174,-2.1174,-2.1502,-2.3883,-2.61,-2.8009,-2.8203,-2.8223,-2.8262,-2.8281,-2.8262,-2.8262,-2.8281,-2.8301,-2.8301,-2.8301,-2.8301,-2.8301,-2.8301,-2.8301,-2.8301,-2.8301,-2.9217,-2.9787,-2.9557,-3.0486,-3.16,-3.2606,-3.2441,-3.2747,-3.4188,-3.372,-3.3153,-3.2773,-3.1922,-3.121,-3.0608,-3.008,-2.9804,-2.9804,-2.9804,-2.9804,-2.9804,-2.9804,-2.9804,-2.9804,-2.9804,-2.9779,-2.9729,-2.8624,-2.7846,-2.7344,-2.7293,-2.7293,-1.2899,0.0,-1.3491,-1.3007,-1.2813,-1.2651,0.0,0.0,0.0,0.0,0.0,0.0,0.0,-1.5163,-1.5701,0.0,0.0,0.0,0.0,0.0,0.0,0.0,0.0,0.0,0.0,0.0,0.0,0.0,0.0,0.0,0.0,-1.8854,-1.9149,-2.0119,-2.0184,-2.0882,-2.2563,-2.2932,-2.3106,-2.3106,-2.3106,-2.3062,-2.2988,-2.2988,0.0,0.0,0.0,0.0,-2.2403,-2.2315,-2.214,-2.1906,-2.1832,-2.1613,-2.132,-2.132,-2.1276,-2.1174,-2.0925,-2.0837,-2.1115,-2.322,-2.4506,-2.5451,-2.6883,-2.7559,-2.7891,-2.8203,-2.8066,-2.7891,-2.8203,-2.8301,-2.8301,-2.8301,-2.8301,-2.8301,-2.8301,-2.8301,-2.8301,-2.8301,-2.9217,-2.9891,-2.9787,-3.1389,-3.2773,-3.3053,-3.364,-3.4342,-3.4942,-3.4666,-3.3991,-3.2872,-3.2272,-3.1461,-3.0105,-2.9854,-2.9804,-2.9804,-2.9804,-2.9804,-2.9804,-2.9804,-2.9804,-2.9804,-2.9804,-2.9578,-2.9126,-2.8448,-2.8047,-2.7896,-2.7469,-2.7494,-1.2339,-1.2587,-1.2834,-1.2339,-1.2231,-1.2178,-1.1919,0.0,0.0,0.0,0.0,0.0,0.0,0.0,0.0,0.0,0.0,0.0,0.0,0.0,0.0,0.0,0.0,0.0,0.0,0.0,0.0,0.0,0.0,0.0,0.0,-1.844,-1.8265,-1.8564,-1.8962,-1.9866,-2.1407,-2.2131,-2.2355,-2.2355,-2.2856,-2.3106,-2.3106,-2.2959,-2.2784,0.0,0.0,0.0,-2.2169,-2.2023,-2.1862,-2.1686,-2.1525,-2.1364,-2.1203,-2.1203,-2.1115,-2.0955,-2.0779,-2.0952,-2.1541,-2.3151,-2.4297,-2.5326,-2.6845,-2.748,-2.7715,-2.793,-2.7988,-2.8008,-2.8242,-2.8301,-2.8301,-2.8301,-2.8301,-2.8301,-2.8301,-2.8301,-2.8301,-2.8301,-2.8814,-2.9217,-2.9217,-3.0141,-3.1154,-3.1768,-3.2275,-3.2878,-3.3796,-3.3358,-3.2747,-3.1964,-3.1017,-3.0025,-2.8998,-2.8899,-2.9131,-2.9779,-2.9804,-2.9804,-2.9804,-2.9804,-2.9804,-2.9804,-2.9804,-2.9503,-2.8925,-2.8624,-2.8348,-2.8097,-2.8047,-2.8197,-1.2248,-1.2393,-1.2684,-1.2339,-1.2178,-1.2173,-1.2188,0.0,0.0,0.0,0.0,0.0,0.0,-1.576,0.0,0.0,0.0,0.0,0.0,0.0,0.0,0.0,0.0,0.0,0.0,0.0,0.0,0.0,0.0,0.0,0.0,-1.8361,-1.7615,-1.7389,-1.8256,-1.9125,-1.9986,-2.1075,-2.174,-2.1853,-2.2688,-2.3032,-2.3018,-2.2696,-2.2535,0.0,0.0,0.0,-2.2008,-2.173,-2.1628,-2.1584,-2.1262,-2.1159,-2.1203,-2.1101,-2.0911,-2.0706,-2.0603,-2.0997,-2.1767,-2.3022,-2.4439,-2.5835,-2.7052,-2.7461,-2.7559,-2.75,-2.7832,-2.8203,-2.8203,-2.8242,-2.8301,-2.8301,-2.8301,-2.8301,-2.8301,-2.8301,-2.8301,-2.8301,-2.8301,-2.8301,-2.8301,-2.8388,-2.89,-3.012,-3.0224,-3.0618,-3.1961,-3.1448,-3.0845,-3.06,-2.9286,-2.8268,-2.8,-2.7916,-2.8371,-2.9624,-2.9702,-2.9779,-2.9804,-2.9804,-2.9804,-2.9804,-2.9804,-2.9503,-2.8925,-2.8925,-2.8699,-2.8247,-2.8725,-2.8976,-1.2162,-1.2393,-1.2565,-1.1725,-1.1941,-1.2439,-1.2641,-1.3185,0.0,0.0,0.0,0.0,0.0,-1.6052,-1.6184,0.0,0.0,0.0,0.0,0.0,0.0,0.0,0.0,0.0,0.0,0.0,0.0,0.0,0.0,0.0,0.0,0.0,-1.7615,-1.7389,-1.7304,-1.7356,-1.7274,-2.0106,-2.1978,-2.2856,-2.2704,-2.2696,-2.2681,-2.2389,-2.2096,0.0,0.0,-2.1613,-2.135,-2.1306,-2.1276,-2.1247,-2.0925,-2.0969,-2.1145,-2.0589,-2.053,-2.0647,-2.0106,-1.9802,-2.003,-2.2062,-2.3116,-2.3874,-2.5519,-2.6543,-2.7051,-2.668,-2.7148,-2.7754,-2.7754,-2.8027,-2.8301,-2.8301,-2.8301,-2.8301,-2.8301,-2.8301,-2.8301,-2.8301,-2.8301,-2.8301,-2.8301,-2.9006,-2.9723,-2.9932,-3.0742,-3.1331,-3.1118,-3.1219,-3.0741,-2.9404,-2.8924,-2.8581,-2.8333,-2.8197,-2.8426,-2.9419,-2.9419,-2.9599,-2.9779,-2.9804,-2.9804,-2.9804,-2.9804,-2.9503,-2.8925,-2.8925,-2.8875,-2.88,-2.8875,-2.9176,-1.1898,-1.2113,-1.2242,-1.1682,-1.207,-1.2702,-1.317,-1.3603,0.0,0.0,0.0,0.0,0.0,0.0,0.0,0.0,0.0,0.0,0.0,0.0,0.0,0.0,0.0,0.0,0.0,0.0,0.0,0.0,0.0,0.0,0.0,0.0,-1.7748,-1.7001,-1.6754,-1.6822,-1.7326,-1.8802,-1.9983,-2.0985,-2.146,-2.189,-2.2374,-2.2067,-2.1832,-2.1672,0.0,-2.1086,-2.094,-2.075,-2.0794,-2.0925,-2.0779,-2.0925,-2.113,-2.0472,-2.0325,-2.0369,-1.9725,-1.9403,-1.9672,-2.1794,-2.274,-2.3425,-2.5419,-2.6523,-2.6934,-2.6504,-2.7012,-2.7676,-2.7676,-2.7988,-2.8301,-2.8301,-2.8301,-2.8301,-2.8301,-2.8301,-2.8223,-2.7988,-2.7949,-2.7871,-2.7637,-2.7994,-2.8304,-2.8304,-2.8799,-2.9125,-2.8998,-2.8969,-2.8572,-2.7923,-2.7096,-2.67,-2.6955,-2.6909,-2.7626,-2.9521,-2.9599,-2.9702,-2.9779,-2.9804,-2.9804,-2.9804,-2.9804,-2.9654,-2.9402,-2.9402,-2.9402,-2.9402,-2.9402,-2.9528,-1.1747,-1.1876,-1.2097,-1.1822,0.0,-1.2951,-1.3921,-1.4303,-1.4838,0.0,0.0,0.0,0.0,0.0,0.0,0.0,0.0,0.0,0.0,0.0,0.0,0.0,0.0,0.0,0.0,0.0,0.0,0.0,0.0,0.0,0.0,0.0,-1.7577,-1.6581,-1.6355,-1.6563,-1.7341,-1.7283,-1.7792,-1.914,-2.016,-2.0942,-2.1582,-2.138,-2.135,-2.132,-2.0823,-2.0603,-2.0589,-2.034,-2.0384,-2.0603,-2.053,-2.0603,-2.0706,-2.0281,-2.0077,-1.9945,-1.9447,-1.9272,-1.9672,-2.1794,-2.2672,-2.3321,-2.5614,-2.6465,-2.6641,-2.6328,-2.6777,-2.7363,-2.7363,-2.7676,-2.7988,-2.7988,-2.7988,-2.8027,-2.8125,-2.8066,-2.793,-2.7715,-2.7578,-2.7402,-2.707,-2.7012,-2.7012,-2.7012,-2.7012,-2.7074,-2.7159,-2.6863,-2.6626,-2.6527,-2.571,-2.5574,-2.6313,-2.6469,-2.7534,-2.9799,-2.9902,-2.9852,-2.9804,-2.9905,-2.998,-2.998,-2.998,-2.998,-2.998,-2.9854,-2.9804,-2.9804,-2.9804,-2.9804,-1.1704,-1.1876,-1.214,-1.2118,-1.2231,-1.302,-1.5118,-1.5498,0.0,-1.857,0.0,0.0,0.0,0.0,0.0,0.0,0.0,0.0,0.0,0.0,0.0,0.0,0.0,0.0,0.0,0.0,0.0,0.0,0.0,0.0,0.0,0.0,0.0,-1.6344,-1.6108,-1.5991,-1.5764,-1.5547,-1.6598,-1.8967,-1.965,-1.9726,-1.9652,-2.0029,-2.034,-2.034,-2.0296,-2.0267,-2.0267,-2.0237,-2.0252,-2.0237,-1.9945,-1.9667,-1.9447,-1.9696,-1.9608,-1.9345,-1.9286,-1.9272,-1.9672,-2.1794,-2.2501,-2.2937,-2.5077,-2.5801,-2.582,-2.5801,-2.6113,-2.6484,-2.6484,-2.6797,-2.7109,-2.7109,-2.7109,-2.7226,-2.7617,-2.7383,-2.7226,-2.7598,-2.7344,-2.7051,-2.7031,-2.7012,-2.7012,-2.7012,-2.7012,-2.6875,-2.6484,-2.6406,-2.623,-2.582,-2.6148,-2.6939,-2.8035,-2.8545,-2.9248,-3.0189,-3.0189,-3.0044,-2.9804,-3.0281,-3.0557,-3.0557,-3.0557,-3.0557,-3.0557,-3.003,-2.9804,-2.9804,-2.9804,-2.9804,-1.1565,-1.2004,-1.2574,-1.2734,-1.3332,0.0,0.0,-1.6242,-1.7204,-1.8687,-1.8994,0.0,0.0,0.0,0.0,0.0,0.0,0.0,0.0,0.0,0.0,0.0,0.0,0.0,0.0,0.0,0.0,0.0,0.0,0.0,0.0,0.0,0.0,-1.6465,-1.5759,-1.5246,-1.516,-1.5063,-1.5716,-1.6976,-1.739,-1.8155,-1.9167,-1.9388,-1.9676,-2.0223,-2.0033,-1.9945,-1.993,-1.9725,-1.9755,-1.9945,-2.0033,-1.9974,-1.9857,-1.9784,-1.9681,-1.955,-1.9345,-1.9272,-1.9672,-2.1794,-2.2484,-2.2885,-2.502,-2.5742,-2.5742,-2.5742,-2.5859,-2.6055,-2.6309,-2.6699,-2.7012,-2.7012,-2.7226,-2.7383,-2.7285,-2.7344,-2.7305,-2.6953,-2.6738,-2.6543,-2.6269,-2.6211,-2.6211,-2.6211,-2.6211,-2.6172,-2.5996,-2.5977,-2.5918,-2.5762,-2.6168,-2.6795,-2.7651,-2.8665,-2.9558,-3.0294,-3.0381,-3.0578,-3.0783,-3.0984,-3.0934,-3.0633,-3.0608,-3.0457,-3.0105,-2.9905,-2.9804,-2.9804,-2.9804,-2.9804,-1.1935,-1.2295,-1.2916,-1.3181,0.0,0.0,-1.6275,-1.7265,-1.8234,-1.9386,-1.9685,-1.9716,-1.9155,0.0,0.0,0.0,0.0,0.0,0.0,0.0,0.0,0.0,0.0,0.0,0.0,0.0,0.0,0.0,0.0,0.0,0.0,0.0,0.0,0.0,-1.5421,-1.4848,-1.4772,-1.4772,-1.4988,-1.5281,-1.5574,-1.6747,-1.8713,-1.8944,-1.9391,-1.9916,-1.9696,-1.9608,-1.9594,-1.9374,-1.9403,-1.9638,-1.9842,-1.993,-1.9901,-1.9681,-1.9608,-1.9579,-1.936,-1.9272,-1.9583,-2.1387,-2.2181,-2.2785,-2.4609,-2.543,-2.5742,-2.5742,-2.5742,-2.5801,-2.6113,-2.6406,-2.6621,-2.6621,-2.6836,-2.7012,-2.6855,-2.6953,-2.6934,-2.6484,-2.6269,-2.6094,-2.5801,-2.5742,-2.5742,-2.5742,-2.5742,-2.5742,-2.5742,-2.5742,-2.582,-2.6091,-2.6215,-2.6592,-2.7412,-2.812,-2.9017,-3.0132,-3.0153,-3.036,-3.0787,-3.1397,-3.1223,-3.0456,-3.0698,-3.0583,-3.0055,-2.9777,-2.9702,-2.9804,-2.9702,-2.9702,-1.2965,-1.289,-1.2965,-1.3341,0.0,0.0,-1.797,-1.8448,-1.915,-2.09,-2.0629,-2.0015,-1.9817,0.0,0.0,0.0,0.0,0.0,0.0,0.0,0.0,0.0,0.0,0.0,0.0,0.0,0.0,0.0,0.0,0.0,0.0,0.0,0.0,0.0,-1.5321,-1.4762,-1.4536,-1.4536,-1.4417,-1.4191,-1.4191,-1.5565,-1.7989,-1.884,-1.9272,-1.9272,-1.9272,-1.9272,-1.9272,-1.9272,-1.9272,-1.9272,-1.9272,-1.9272,-1.9272,-1.9272,-1.9272,-1.9272,-1.9272,-1.9272,-1.948,-2.0585,-2.1591,-2.2685,-2.3782,-2.4805,-2.5742,-2.5742,-2.5742,-2.5742,-2.5742,-2.5742,-2.5742,-2.5742,-2.5742,-2.5859,-2.6289,-2.6055,-2.5859,-2.6289,-2.6035,-2.5742,-2.5742,-2.5742,-2.5742,-2.5742,-2.5742,-2.5742,-2.5742,-2.5742,-2.6091,-2.7105,-2.6392,-2.6403,-2.7757,-2.7261,-2.7626,-2.9584,-2.9449,-2.9362,-2.964,-3.1245,-3.1521,-3.0062,-3.0869,-3.1135,-3.0608,-2.977,-2.9521,-2.9804,-2.9521,-2.9521,-1.3425,-1.36,0.0,-1.4905,0.0,0.0,0.0,-1.9348,0.0,0.0,-2.1009,-2.0752,-2.0164,0.0,0.0,0.0,0.0,0.0,0.0,0.0,0.0,0.0,0.0,0.0,0.0,0.0,0.0,0.0,0.0,0.0,0.0,0.0,0.0,0.0,-1.579,-1.5006,-1.4299,-1.4299,-1.4581,-1.5137,-1.5137,-1.5779,-1.7041,-1.7371,-1.8108,-1.9272,-1.9272,-1.9272,-1.9272,-1.9272,-1.9272,-1.9272,-1.9272,-1.9272,-1.9272,-1.9272,-1.9272,-1.9272,-1.9272,-1.9272,-1.948,-2.0585,-2.1591,-2.2685,-2.3782,-2.4805,-2.5742,-2.5742,-2.5742,-2.5742,-2.5742,-2.5742,-2.5742,-2.5742,-2.5977,-2.6152,-2.5977,-2.6074,-2.6152,-2.5957,-2.582,-2.5742,-2.5742,-2.5742,-2.5742,-2.5742,-2.5742,-2.5742,-2.5742,-2.5742,-2.582,-2.6091,-2.5873,-2.6229,-2.7348,-2.7189,-2.7731,-2.9412,-2.8987,-2.9358,-3.098,-3.1097,-3.0811,-3.0049,-3.0269,-3.0103,-2.9534,-2.944,-2.9419,-2.9521,-2.9599,-2.9702,-1.4022,-1.4214,0.0,-1.5796,-1.6915,-1.8086,-1.952,0.0,0.0,0.0,0.0,-2.0969,0.0,0.0,0.0,0.0,0.0,0.0,0.0,0.0,0.0,0.0,0.0,0.0,0.0,0.0,0.0,0.0,0.0,0.0,0.0,0.0,0.0,0.0,-1.5559,-1.4733,-1.3911,-1.3997,-1.4316,-1.4733,-1.4836,-1.5247,-1.5977,-1.6832,-1.8003,-1.9272,-1.9272,-1.9272,-1.9272,-1.9272,-1.9272,-1.9272,-1.9272,-1.9272,-1.9272,-1.9272,-1.9272,-1.9272,-1.9272,-1.9272,-1.948,-2.0585,-2.1591,-2.2685,-2.3782,-2.4805,-2.5742,-2.5742,-2.5742,-2.5742,-2.5742,-2.5742,-2.5742,-2.5742,-2.5937,-2.6055,-2.5801,-2.5937,-2.6055,-2.5781,-2.5742,-2.5742,-2.5742,-2.5742,-2.5742,-2.5742,-2.5742,-2.5742,-2.5742,-2.5742,-2.5742,-2.5742,-2.5586,-2.5737,-2.6269,-2.6578,-2.6999,-2.7966,-2.812,-2.8815,-3.0145,-3.0194,-2.9963,-2.9374,-2.9805,-2.9776,-2.9209,-2.9184,-2.9263,-2.9419,-2.9443,-2.9546,-1.4545,-1.475,0.0,-1.6243,-1.7516,0.0,-1.9345,-2.0896,-2.2315,-2.2754,0.0,0.0,0.0,0.0,0.0,0.0,0.0,0.0,0.0,0.0,0.0,0.0,0.0,0.0,0.0,0.0,0.0,0.0,0.0,0.0,0.0,0.0,0.0,0.0,-1.5077,-1.4287,-1.348,-1.3685,-1.3685,0.0,-1.3685,-1.4079,-1.4784,-1.6821,-1.8338,-1.9184,-1.9184,-1.9184,-1.9184,-1.9184,-1.9184,-1.9184,-1.9184,-1.9184,-1.9184,-1.9213,-1.9228,-1.9242,-1.9257,-1.9272,-1.948,-2.0483,-2.1489,-2.2584,-2.3583,-2.4707,-2.5528,-2.5645,-2.5742,-2.5742,-2.5742,-2.5742,-2.5742,-2.5742,-2.5742,-2.5742,-2.5742,-2.5742,-2.5742,-2.5742,-2.5742,-2.5742,-2.5742,-2.5742,-2.5742,-2.5742,-2.5742,-2.5742,-2.5742,-2.5742,-2.5723,-2.5684,-2.5312,-2.5059,-2.5019,-2.5462,-2.5743,-2.5951,-2.6867,-2.7561,-2.7957,-2.8855,-2.9046,-2.8516,-2.9383,-2.9727,-2.9341,-2.8949,-2.9028,-2.9341,-2.9209,-2.9209,-1.5145,-1.5087,0.0,0.0,-1.8862,-2.0369,-2.1028,-2.1701,-2.1935,-2.1042,0.0,0.0,0.0,0.0,0.0,0.0,0.0,0.0,0.0,0.0,0.0,0.0,0.0,0.0,0.0,0.0,0.0,0.0,0.0,0.0,0.0,0.0,0.0,-1.5972,-1.5683,-1.4975,-1.348,-1.3523,-1.3523,0.0,-1.3534,-1.3923,-1.4773,-1.5897,-1.7177,-1.8511,-1.8511,-1.8511,-1.8511,-1.8511,-1.8511,-1.8511,-1.8511,-1.8511,-1.854,-1.8803,-1.8891,-1.8935,-1.9184,-1.9272,-1.9376,-1.9583,-2.038,-2.1489,-2.2484,-2.3583,-2.4609,-2.543,-2.5742,-2.5742,-2.5742,-2.5742,-2.5742,-2.5742,-2.5742,-2.5742,-2.5742,-2.5742,-2.5742,-2.5742,-2.5742,-2.5742,-2.5742,-2.5742,-2.5742,-2.5742,-2.5742,-2.5742,-2.5742,-2.5742,-2.5605,-2.5254,-2.5117,-2.4922,-2.459,-2.4657,-2.5169,-2.6302,-2.53,-2.5441,-2.7286,-2.8197,-2.8602,-2.8506,-2.8667,-2.8778,-2.8657,-2.8816,-2.887,-2.8949,-2.9184,-2.9341,-1.4692,0.0,0.0,-1.7765,0.0,-2.0311,-2.0501,-2.0676,-2.0559,0.0,0.0,0.0,0.0,0.0,0.0,0.0,0.0,0.0,0.0,0.0,0.0,0.0,0.0,0.0,0.0,0.0,0.0,0.0,0.0,0.0,0.0,-1.7925,-1.7173,-1.5866,-1.548,-1.4643,-1.3277,-1.3215,-1.3082,-1.2974,-1.319,-1.3635,-1.4406,-1.5857,-1.7,-1.7796,-1.8108,-1.8306,-1.8306,-1.8306,-1.8306,-1.8306,-1.8306,-1.8306,-1.8321,-1.8496,-1.8555,-1.8584,-1.8745,-1.8803,-1.8934,-1.9592,-2.0233,-2.0958,-2.2733,-2.3683,-2.4295,-2.543,-2.5742,-2.5742,-2.5742,-2.5742,-2.5742,-2.5742,-2.5742,-2.5742,-2.5742,-2.5742,-2.5742,-2.5742,-2.5742,-2.5742,-2.5742,-2.5742,-2.5742,-2.5742,-2.5547,-2.541,-2.541,-2.5234,-2.5019,-2.4785,-2.4746,-2.459,-2.416,-2.4465,-2.4804,-2.4861,-2.484,-2.5081,-2.5841,-2.6753,-2.7244,-2.7244,-2.7672,-2.7914,-2.7995,-2.8498,-2.8736,-2.8791,-2.9028,-2.9106,-1.4033,0.0,-1.614,-1.8057,-1.9067,0.0,-1.933,-1.9272,0.0,0.0,0.0,0.0,0.0,0.0,0.0,0.0,0.0,0.0,0.0,0.0,0.0,0.0,0.0,0.0,0.0,0.0,0.0,0.0,0.0,0.0,-1.7647,-1.7399,-1.6722,-1.5664,-1.493,-1.4093,-1.3144,-1.2825,-1.2544,-1.2361,-1.2737,-1.3202,-1.3695,-1.5778,-1.684,-1.7048,-1.7836,-1.813,-1.813,-1.813,-1.813,-1.813,-1.813,-1.813,-1.8145,-1.8203,-1.8218,-1.8218,-1.8277,-1.8306,-1.8449,-1.9682,-2.0174,-2.0735,-2.3072,-2.3889,-2.4202,-2.5411,-2.5742,-2.5742,-2.5742,-2.5742,-2.5742,-2.5742,-2.5742,-2.5742,-2.5742,-2.5742,-2.5742,-2.5742,-2.5742,-2.5742,-2.5742,-2.5664,-2.5625,-2.5625,-2.5234,-2.4961,-2.4961,-2.4648,-2.4394,-2.4316,-2.4316,-2.4141,-2.3711,-2.4364,-2.4378,-2.3406,-2.4573,-2.5084,-2.4488,-2.5084,-2.5378,-2.546,-2.6461,-2.708,-2.7221,-2.7914,-2.8339,-2.8554,-2.8712,-2.8791,0.0,0.0,-1.6799,0.0,-1.8218,-1.8979,0.0,0.0,0.0,0.0,0.0,0.0,0.0,0.0,0.0,0.0,0.0,0.0,0.0,0.0,0.0,0.0,0.0,0.0,0.0,0.0,0.0,0.0,0.0,0.0,-1.7004,-1.6945,-1.6392,-1.5259,-1.463,-1.3894,-1.3144,-1.2481,-1.2216,-1.2102,-1.2156,-1.2259,-1.2422,-1.3952,-1.5259,-1.6402,-1.7079,-1.7457,-1.7457,-1.7457,-1.7457,-1.7457,-1.7457,-1.7457,-1.7486,-1.7779,-1.7882,-1.7925,-1.8203,-1.8306,-1.8306,-1.8548,-1.914,-2.0167,-2.1786,-2.2886,-2.3851,-2.5334,-2.5742,-2.5742,-2.5742,-2.5742,-2.5742,-2.5742,-2.5742,-2.5742,-2.5742,-2.5742,-2.5742,-2.5742,-2.5742,-2.5742,-2.5742,-2.541,-2.5156,-2.5156,-2.4785,-2.4512,-2.4512,-2.4453,-2.4277,-2.3906,-2.3867,-2.3691,-2.3262,-2.331,-2.362,-2.4251,-2.382,-2.3734,-2.4488,-2.382,-2.3639,-2.3992,-2.529,-2.5986,-2.6069,-2.6917,-2.7348,-2.7429,-2.8395,-2.8791,-1.4296,-1.5116,-1.595,0.0,-1.7384,-1.8013,0.0,0.0,0.0,0.0,0.0,0.0,0.0,0.0,0.0,0.0,0.0,0.0,0.0,0.0,0.0,0.0,0.0,0.0,0.0,0.0,0.0,0.0,0.0,-1.6726,-1.6594,-1.6579,-1.6255,-1.5588,-1.496,-1.4177,-1.3236,-1.2661,-1.2361,-1.214,-1.214,-1.214,-1.214,-1.3132,-1.4163,-1.514,-1.633,-1.6799,-1.6799,-1.6799,-1.6799,-1.6799,-1.6799,-1.6799,-1.6828,-1.715,-1.7282,-1.7326,-1.7647,-1.7765,-1.7794,-1.7969,-1.832,-1.9043,-2.1009,-2.2153,-2.3044,-2.4814,-2.5547,-2.5742,-2.5742,-2.5742,-2.5684,-2.543,-2.5371,-2.5293,-2.5059,-2.5391,-2.5664,-2.541,-2.5156,-2.5,-2.5,-2.4824,-2.4707,-2.4707,-2.4336,-2.4062,-2.4062,-2.3848,-2.3633,-2.3437,-2.3418,-2.334,-2.3164,-2.3144,-2.3319,-2.3734,-2.3299,-2.3201,-2.3393,-2.2945,-2.2748,-2.2649,-2.4304,-2.5187,-2.5343,-2.6041,-2.6423,-2.6423,-2.6894,-2.7406,0.0,0.0,-1.497,-1.5599,-1.6301,-1.6843,0.0,0.0,0.0,0.0,0.0,0.0,0.0,0.0,0.0,0.0,0.0,0.0,0.0,0.0,0.0,0.0,0.0,0.0,0.0,0.0,0.0,0.0,0.0,-1.633,-1.6257,-1.6257,-1.6111,-1.5804,-1.5091,-1.4368,-1.3646,-1.2978,-1.2392,-1.1876,-1.1876,-1.1876,-1.1956,-1.2664,-1.3379,-1.4103,-1.5492,-1.6271,-1.6374,-1.6374,-1.6374,-1.6374,-1.6374,-1.6374,-1.6404,-1.6638,-1.6726,-1.6769,-1.7004,-1.7135,-1.7252,-1.7486,-1.7808,-1.8499,-2.064,-2.1613,-2.2547,-2.4507,-2.5312,-2.5566,-2.5566,-2.5566,-2.5449,-2.5,-2.4902,-2.4844,-2.4629,-2.5019,-2.5332,-2.5117,-2.4707,-2.4414,-2.4414,-2.4336,-2.4258,-2.4258,-2.3887,-2.3633,-2.3633,-2.334,-2.3105,-2.2988,-2.3086,-2.3086,-2.2988,-2.3086,-2.3144,-2.3144,-2.3144,-2.2949,-2.2539,-2.2519,-2.235,-2.2046,-2.318,-2.3991,-2.4214,-2.4802,-2.5204,-2.5311,-2.5727,-2.6371,0.0,-1.4004,0.0,-1.4165,0.0,0.0,0.0,0.0,0.0,0.0,0.0,0.0,0.0,0.0,0.0,0.0,0.0,0.0,0.0,0.0,0.0,0.0,0.0,0.0,0.0,0.0,0.0,0.0,0.0,-1.6243,-1.595,-1.5935,-1.5789,-1.5467,-1.4769,-1.4405,-1.4307,-1.3052,-1.2049,-1.1294,-1.1294,-1.1294,-1.1392,-1.2146,-1.2832,-1.3553,-1.4886,-1.5828,-1.6374,-1.6374,-1.6374,-1.6374,-1.6374,-1.6374,-1.6374,-1.6389,-1.6389,-1.6404,-1.6418,-1.6623,-1.6887,-1.6901,-1.7735,-1.906,-2.0441,-2.1582,-2.2686,-2.4542,-2.5078,-2.5098,-2.5098,-2.5098,-2.5,-2.4551,-2.4453,-2.4551,-2.4941,-2.4746,-2.459,-2.5,-2.4707,-2.4414,-2.4414,-2.4082,-2.3828,-2.3828,-2.3457,-2.3184,-2.3184,-2.3144,-2.2988,-2.2578,-2.2891,-2.2988,-2.2578,-2.291,-2.3144,-2.3144,-2.3144,-2.2949,-2.2539,-2.2519,-2.2443,-2.2364,-2.2108,-2.2016,-2.2079,-2.288,-2.3514,-2.393,-2.5628,-2.6726,0.0,0.0,0.0,-1.3697,0.0,0.0,0.0,0.0,0.0,0.0,0.0,0.0,0.0,0.0,0.0,0.0,0.0,0.0,0.0,0.0,0.0,0.0,0.0,0.0,0.0,0.0,0.0,0.0,0.0,0.0,-1.5013,-1.5174,-1.5233,-1.5116,-1.4871,-1.4627,-1.4391,-1.3039,-1.2283,-1.2026,-1.1521,-1.1262,-1.1348,-1.1607,-1.2283,-1.3404,-1.3952,-1.4733,-1.576,-1.576,-1.576,-1.576,-1.576,-1.576,-1.5789,-1.5994,-1.6082,-1.6111,-1.6301,-1.6448,-1.6579,-1.6784,-1.7204,-1.7979,-1.987,-2.0876,-2.1785,-2.3683,-2.4434,-2.4648,-2.4648,-2.4648,-2.4551,-2.4121,-2.3789,-2.3711,-2.416,-2.4121,-2.4062,-2.4219,-2.3887,-2.3594,-2.3594,-2.3477,-2.3281,-2.3008,-2.3066,-2.3047,-2.2773,-2.2969,-2.2988,-2.2559,-2.2891,-2.2852,-2.2168,-2.2734,-2.3027,-2.2754,-2.2734,-2.2539,-2.2129,-2.1836,-2.1568,-2.1271,-2.1115,-2.1411,-2.225,-2.2291,-2.2675,-2.3391,-2.4041,-2.501,-1.3492,0.0,0.0,0.0,0.0,0.0,0.0,0.0,0.0,0.0,0.0,0.0,0.0,0.0,0.0,0.0,0.0,0.0,0.0,0.0,0.0,0.0,0.0,0.0,0.0,0.0,0.0,0.0,0.0,0.0,-1.4487,-1.4765,-1.4903,-1.5101,-1.5101,-1.4875,-1.4391,-1.3374,-1.2819,-1.2578,-1.1736,-1.1398,-1.1486,-1.1315,-1.19,-1.3252,-1.3252,-1.4058,-1.5423,-1.5423,-1.5423,-1.5423,-1.5423,-1.5423,-1.5452,-1.5672,-1.576,-1.5774,-1.5979,-1.6126,-1.6257,-1.6462,-1.6682,-1.7251,-1.8995,-1.9853,-2.0634,-2.2719,-2.3511,-2.3721,-2.4108,-2.4102,-2.3926,-2.3633,-2.3359,-2.3223,-2.3516,-2.3574,-2.3613,-2.3769,-2.332,-2.293,-2.293,-2.2812,-2.2617,-2.2344,-2.2539,-2.2617,-2.2344,-2.2539,-2.2559,-2.2129,-2.2461,-2.248,-2.1934,-2.2519,-2.2812,-2.2539,-2.2519,-2.2266,-2.1699,-2.1387,-2.1016,-2.0586,-2.0566,-2.1015,-2.1784,-2.153,-2.1828,-2.2453,-2.2775,-2.3874,0.0,0.0,0.0,0.0,0.0,0.0,0.0,0.0,0.0,0.0,0.0,0.0,0.0,0.0,0.0,0.0,0.0,0.0,0.0,0.0,0.0,0.0,0.0,0.0,0.0,0.0,0.0,0.0,0.0,-1.4457,-1.4443,-1.475,-1.5072,-1.5394,-1.5423,-1.5075,-1.4378,-1.409,-1.3532,-1.2877,-1.1954,-1.1642,-1.1875,-1.1222,-1.1721,-1.2877,-1.2877,-1.3857,-1.5394,-1.5409,-1.5409,-1.5423,-1.5423,-1.5423,-1.5423,-1.5423,-1.5423,-1.5423,-1.5423,-1.5643,-1.5906,-1.5906,-1.633,-1.701,-1.7987,-1.851,-1.9304,-2.1588,-2.2263,-2.2537,-2.348,-2.3437,-2.3125,-2.3125,-2.3144,-2.3144,-2.3144,-2.3125,-2.3242,-2.3672,-2.3086,-2.25,-2.25,-2.2148,-2.1875,-2.1875,-2.1875,-2.1875,-2.1875,-2.1875,-2.1719,-2.1289,-2.1621,-2.1875,-2.1855,-2.2246,-2.25,-2.25,-2.25,-2.2129,-2.1289,-2.123,-2.1016,-2.0586,-2.0566,-2.0566,-2.0566,-2.0566,-2.0781,-2.1211,-2.2145,-2.3686,-1.3492,0.0,0.0,0.0,0.0,0.0,0.0,0.0,0.0,0.0,0.0,0.0,0.0,0.0,0.0,0.0,0.0,0.0,0.0,0.0,0.0,0.0,0.0,0.0,0.0,0.0,0.0,0.0,-1.434,-1.4267,-1.3784,-1.4296,-1.4633,-1.4735,-1.5189,-1.5223,-1.4746,-1.4158,-1.3669,-1.3214,-1.2018,-1.1548,-1.1618,-1.0969,-1.1375,-1.2574,-1.2574,-1.3427,-1.475,-1.4984,-1.5072,-1.5101,-1.5335,-1.5423,-1.5423,-1.5423,-1.5423,-1.5423,-1.5423,-1.5496,-1.5599,-1.5833,-1.6038,-1.6433,-1.7846,-1.8335,-1.8929,-2.1195,-2.186,-2.2128,-2.3055,-2.3008,-2.2754,-2.3066,-2.3144,-2.3144,-2.3144,-2.2891,-2.2715,-2.2852,-2.2676,-2.2422,-2.2109,-2.1973,-2.1777,-2.1465,-2.168,-2.1777,-2.1465,-2.1699,-2.1719,-2.1289,-2.1621,-2.1621,-2.0977,-2.1894,-2.2383,-2.207,-2.2051,-2.1953,-2.1719,-2.1094,-2.0684,-2.0566,-2.0566,-2.0566,-2.0566,-2.0566,-2.0936,-2.1655,-2.2476,-2.3444,0.0,0.0,0.0,0.0,0.0,0.0,-1.1706,-1.175,0.0,0.0,0.0,0.0,0.0,0.0,0.0,0.0,0.0,0.0,0.0,0.0,0.0,0.0,0.0,0.0,0.0,0.0,0.0,-1.3784,-1.396,-1.396,-1.3711,-1.4194,-1.4531,-1.4662,-1.516,-1.5277,-1.486,-1.4394,-1.4008,-1.3621,-1.2247,-1.1636,-1.1745,-1.0885,-1.1112,-1.2361,-1.2361,-1.2997,-1.4092,-1.4414,-1.4692,-1.4874,-1.516,-1.5306,-1.5423,-1.5423,-1.5423,-1.5423,-1.5423,-1.5423,-1.5467,-1.5657,-1.5804,-1.6066,-1.7033,-1.7424,-1.7919,-2.0061,-2.12,-2.1911,-2.2446,-2.2441,-2.2305,-2.2559,-2.2617,-2.2617,-2.2617,-2.2422,-2.2305,-2.248,-2.2227,-2.1894,-2.166,-2.1465,-2.125,-2.0996,-2.1172,-2.125,-2.0977,-2.1172,-2.123,-2.0977,-2.1172,-2.1191,-2.0879,-2.1543,-2.1875,-2.1621,-2.1621,-2.1523,-2.1348,-2.084,-2.0566,-2.0566,-2.0566,-2.0566,-2.0566,-2.0566,-2.0857,-2.1318,-2.1756,-2.2585,0.0,0.0,0.0,0.0,0.0,0.0,-1.1765,-1.1414,-1.1297,0.0,0.0,0.0,0.0,0.0,0.0,0.0,0.0,0.0,0.0,0.0,0.0,0.0,0.0,0.0,0.0,-1.3448,-1.3448,-1.3492,-1.3492,-1.3623,-1.3916,-1.4267,-1.4604,-1.4882,-1.5233,-1.5248,-1.4896,-1.4604,-1.4282,-1.3931,-1.2425,-1.184,-1.2069,-1.0939,-1.1016,-1.2145,-1.2145,-1.2695,-1.3521,-1.3814,-1.4311,-1.4896,-1.4926,-1.5145,-1.5423,-1.5423,-1.5423,-1.5423,-1.5423,-1.5423,-1.5423,-1.5423,-1.5628,-1.5862,-1.5906,-1.6111,-1.6668,-1.8423,-2.0214,-2.1569,-2.1709,-2.1671,-2.1734,-2.1875,-2.1894,-2.1894,-2.1894,-2.1855,-2.1934,-2.2305,-2.1758,-2.1211,-2.1172,-2.082,-2.0566,-2.0566,-2.0566,-2.0566,-2.0566,-2.0566,-2.0566,-2.0566,-2.0566,-2.0723,-2.1133,-2.1211,-2.123,-2.123,-2.123,-2.1055,-2.0664,-2.0586,-2.0566,-2.0566,-2.0566,-2.0566,-2.0566,-2.0566,-2.0644,-2.0722,-2.0644,-2.1395,0.0,0.0,0.0,0.0,0.0,0.0,-1.2087,-1.2102,-1.2102,0.0,0.0,0.0,0.0,0.0,0.0,0.0,0.0,0.0,0.0,0.0,0.0,0.0,0.0,0.0,0.0,-1.3097,-1.3214,-1.3477,-1.3492,-1.3521,-1.3594,-1.415,-1.4501,-1.456,-1.5131,-1.5145,-1.4575,-1.4501,-1.4179,-1.3594,-1.2331,-1.1961,-1.2459,-1.1265,-1.134,-1.2533,-1.2533,-1.2875,-1.3506,-1.3565,-1.3975,-1.4589,-1.4838,-1.5145,-1.5423,-1.5423,-1.5423,-1.5423,-1.5423,-1.5423,-1.5423,-1.5423,-1.5467,-1.557,-1.5833,-1.5965,-1.6312,-1.7668,-1.8634,-1.9484,-2.0578,-2.0596,-2.0592,-2.1632,-2.1894,-2.1894,-2.1894,-2.1602,-2.1387,-2.1465,-2.1348,-2.1113,-2.0762,-2.0625,-2.0566,-2.0566,-2.0566,-2.0566,-2.0566,-2.0566,-2.0566,-2.0566,-2.0566,-2.0605,-2.0684,-2.1035,-2.123,-2.123,-2.123,-2.1191,-2.1113,-2.0762,-2.0566,-2.0566,-2.0566,-2.0566,-2.0566,-2.0566,-2.0934,-2.1548,-2.0857,-2.1088,0.0,0.0,0.0,-1.3082,0.0,0.0,0.0,-1.1794,-1.175,0.0,0.0,0.0,0.0,0.0,0.0,0.0,0.0,0.0,0.0,0.0,0.0,0.0,0.0,0.0,0.0,-1.276,-1.2906,-1.3228,-1.3258,-1.3331,-1.3492,-1.396,-1.4296,-1.4457,-1.4779,-1.4794,-1.4472,-1.4311,-1.3989,-1.3492,-1.2599,-1.2305,-1.2599,-1.1626,-1.1713,-1.2599,-1.2599,-1.298,-1.3492,-1.3492,-1.3784,-1.4253,-1.4575,-1.4896,-1.5204,-1.5365,-1.5423,-1.5423,-1.5423,-1.5423,-1.5423,-1.5423,-1.5423,-1.5467,-1.5628,-1.5911,-1.6514,-1.7595,-1.8425,-1.9219,-2.0329,-2.0396,-2.0461,-2.1092,-2.123,-2.123,-2.123,-2.1055,-2.0898,-2.0898,-2.0898,-2.082,-2.0605,-2.0566,-2.0566,-2.0566,-2.0566,-2.0566,-2.0566,-2.0566,-2.0566,-2.0566,-2.0566,-2.0566,-2.0566,-2.0762,-2.0898,-2.0898,-2.0898,-2.0898,-2.0898,-2.0684,-2.0566,-2.0566,-2.0566,-2.0566,-2.0566,-2.0352,-2.0582,-2.1165,-2.0799,-2.0891,0.0,0.0,0.0,0.0,0.0,-1.2467,0.0,0.0,0.0,0.0,0.0,0.0,0.0,0.0,0.0,0.0,0.0,0.0,0.0,0.0,0.0,0.0,0.0,0.0,0.0,-1.2482,-1.2628,-1.2892,-1.2921,-1.3023,-1.3287,-1.3682,-1.4004,-1.4267,-1.4399,-1.4443,-1.437,-1.4106,-1.3814,-1.3492,-1.2893,-1.2673,-1.2746,-1.2157,-1.2231,-1.2746,-1.2746,-1.3053,-1.3492,-1.3492,-1.3653,-1.3916,-1.4253,-1.4604,-1.4889,-1.5233,-1.5379,-1.5423,-1.5423,-1.5423,-1.5423,-1.5423,-1.5394,-1.5321,-1.5262,-1.5755,-1.6522,-1.7171,-1.7946,-1.8736,-1.9608,-1.9844,-1.9923,-2.0255,-2.0275,-2.0275,-2.0449,-2.0449,-2.041,-2.0332,-2.0391,-2.0469,-2.0547,-2.0566,-2.0566,-2.0566,-2.0566,-2.0527,-2.0449,-2.0508,-2.0527,-2.0449,-2.0527,-2.0566,-2.0566,-2.0566,-2.0566,-2.0566,-2.0566,-2.0566,-2.0566,-2.0566,-2.0566,-2.0566,-2.0488,-2.0449,-2.043,-2.0,-2.0059,-2.0566,-2.0469,-2.0615,0.0,0.0,0.0,0.0,-1.3199,0.0,0.0,0.0,0.0,0.0,0.0,0.0,0.0,0.0,0.0,0.0,0.0,0.0,0.0,0.0,0.0,0.0,0.0,0.0,0.0,0.0,-1.2541,-1.257,-1.2584,-1.2599,-1.2628,-1.3214,-1.3565,-1.3609,-1.4165,-1.4326,-1.4033,-1.4004,-1.3814,-1.3492,-1.2893,-1.2893,-1.3346,-1.2746,-1.282,-1.3419,-1.3419,-1.3419,-1.3492,-1.3492,-1.3521,-1.3579,-1.3916,-1.4414,-1.486,-1.4903,-1.5174,-1.5423,-1.5423,-1.5423,-1.5423,-1.5423,-1.5233,-1.494,-1.4662,-1.4844,-1.5161,-1.5227,-1.5517,-1.6072,-1.6944,-1.7172,-1.7496,-1.9054,-1.9095,-1.9068,-1.9829,-1.998,-1.9883,-1.9512,-1.9727,-2.0117,-2.0508,-2.0566,-2.0566,-2.0566,-2.0566,-2.043,-2.0039,-2.0332,-2.041,-2.0019,-2.0332,-2.0566,-2.0566,-2.0566,-2.0566,-2.0566,-2.0566,-2.0566,-2.0566,-2.0566,-2.0566,-2.0566,-2.0195,-1.998,-1.998,-1.957,-1.9766,-2.0547,-2.0176,-2.0036,0.0,0.0,0.0,0.0,0.0,0.0,-1.2262,0.0,-1.178,0.0,0.0,0.0,0.0,0.0,0.0,0.0,0.0,0.0,0.0,0.0,0.0,0.0,0.0,0.0,0.0,0.0,0.0,0.0,0.0,-1.2321,-1.2511,-1.2965,-1.3301,-1.3492,-1.3945,-1.4209,-1.4267,-1.4077,-1.3916,-1.377,-1.3359,-1.3273,-1.3492,-1.3273,-1.3273,-1.3492,-1.3492,-1.3492,-1.3492,-1.3492,-1.3492,-1.3521,-1.3857,-1.415,-1.4414,-1.4604,-1.475,-1.4867,-1.4867,-1.4867,-1.4867,-1.4867,-1.4779,-1.4648,-1.4501,-1.456,-1.4741,-1.5263,-1.5433,-1.5779,-1.6628,-1.6863,-1.7191,-1.8366,-1.8467,-1.8583,-1.9403,-1.9551,-1.9492,-1.9316,-1.9434,-1.9609,-1.9785,-1.9824,-1.9824,-1.9824,-1.9824,-1.9766,-1.957,-1.9707,-1.9746,-1.957,-1.9707,-1.9922,-2.0176,-2.0195,-2.0293,-2.0547,-2.0566,-2.0449,-2.0195,-2.0195,-2.0078,-1.9824,-1.9648,-1.9551,-1.9551,-1.9121,-1.9219,-1.9824,-1.9629,-1.9414,-1.3053,0.0,0.0,0.0,0.0,0.0,0.0,0.0,0.0,0.0,0.0,0.0,0.0,0.0,0.0,0.0,0.0,0.0,0.0,0.0,0.0,0.0,0.0,0.0,0.0,0.0,0.0,0.0,-1.1765,-1.1882,-1.2116,-1.2511,-1.2892,-1.3214,-1.355,-1.3916,-1.4326,-1.4004,-1.3887,-1.3975,-1.3653,-1.3492,-1.3492,-1.3492,-1.3492,-1.3492,-1.3492,-1.3492,-1.3492,-1.3492,-1.3492,-1.3521,-1.3755,-1.3843,-1.3901,-1.4311,-1.4472,-1.4472,-1.4472,-1.4472,-1.4457,-1.437,-1.434,-1.4326,-1.4223,-1.4267,-1.448,-1.5065,-1.528,-1.5496,-1.6185,-1.6337,-1.6489,-1.7336,-1.7415,-1.7548,-1.8356,-1.8667,-1.8774,-1.8658,-1.8879,-1.9062,-1.8965,-1.9121,-1.9297,-1.9297,-1.9297,-1.9238,-1.9121,-1.9219,-1.9238,-1.9121,-1.9219,-1.9414,-1.9707,-1.9746,-1.9883,-2.0195,-2.0215,-2.0078,-1.9746,-1.9746,-1.9609,-1.9297,-1.916,-1.9102,-1.9102,-1.8672,-1.8633,-1.8945,-1.9062,-1.8945,0.0,0.0,0.0,-1.2921,0.0,0.0,0.0,0.0,-1.1622,0.0,0.0,0.0,0.0,0.0,0.0,-1.1121,0.0,0.0,0.0,0.0,0.0,0.0,0.0,0.0,0.0,0.0,0.0,-1.1106,-1.1106,-1.1106,-1.1121,-1.1721,-1.2219,-1.2541,-1.2877,-1.3345,-1.3989,-1.3667,-1.3667,-1.3975,-1.3653,-1.3492,-1.3492,-1.3492,-1.3492,-1.3492,-1.3492,-1.3492,-1.3492,-1.3492,-1.3492,-1.3492,-1.3506,-1.3506,-1.3594,-1.4238,-1.4472,-1.4472,-1.4472,-1.4472,-1.4414,-1.4106,-1.4004,-1.3945,-1.3623,-1.374,-1.4004,-1.4065,-1.43,-1.4535,-1.455,-1.455,-1.4769,-1.5573,-1.5455,-1.5438,-1.6336,-1.7063,-1.7475,-1.7051,-1.7872,-1.8535,-1.8125,-1.873,-1.9297,-1.9297,-1.9297,-1.9141,-1.8711,-1.9023,-1.9121,-1.8711,-1.9043,-1.9297,-1.9297,-1.9316,-1.9316,-1.9336,-1.9336,-1.9316,-1.9316,-1.9316,-1.9297,-1.9297,-1.8867,-1.8582,-1.8652,-1.8242,-1.8047,-1.8066,-1.8457,-1.8582,0.0,0.0,-1.2175,-1.2072,0.0,0.0,0.0,0.0,0.0,0.0,0.0,0.0,0.0,0.0,0.0,0.0,0.0,0.0,0.0,0.0,0.0,0.0,0.0,0.0,0.0,0.0,0.0,-1.077,-1.0946,-1.1077,0.0,-1.1692,-1.2022,-1.2204,-1.2731,-1.3214,-1.3653,-1.355,-1.3653,-1.3975,-1.3653,-1.3492,-1.3492,-1.3492,-1.3492,-1.3492,-1.3492,-1.3492,-1.3492,-1.3492,-1.3492,-1.3521,-1.374,-1.3682,-1.3521,-1.374,-1.3828,-1.3828,-1.3828,-1.3828,-1.3814,-1.3697,-1.3667,-1.3638,-1.3521,-1.3579,-1.3667,-1.3667,-1.374,-1.3828,-1.3828,-1.3828,-1.4037,-1.482,-1.4871,-1.4993,-1.58,-1.6156,-1.6404,-1.6821,-1.719,-1.7593,-1.7959,-1.8242,-1.8437,-1.8437,-1.8437,-1.8379,-1.8242,-1.8359,-1.8379,-1.8242,-1.8359,-1.8555,-1.8828,-1.9121,-1.9297,-1.9297,-1.9297,-1.916,-1.8867,-1.8848,-1.873,-1.8437,-1.8301,-1.8223,-1.8223,-1.8086,-1.8008,-1.8008,-1.8164,-1.8223,-1.2145,-1.1955,0.0,-1.175,-1.1736,0.0,-1.1652,0.0,0.0,0.0,0.0,0.0,0.0,0.0,0.0,0.0,0.0,0.0,0.0,-1.0477,0.0,0.0,0.0,0.0,0.0,0.0,-1.077,-1.0433,-1.0711,-1.0902,0.0,0.0,-1.1911,-1.2028,-1.2438,-1.2877,-1.3316,-1.3316,-1.3492,-1.3814,-1.3594,-1.3492,-1.3492,-1.3492,-1.3492,-1.3492,-1.3492,-1.3492,-1.3492,-1.3492,-1.3492,-1.3521,-1.3726,-1.3682,-1.3506,-1.3623,-1.3594,-1.3492,-1.3492,-1.3492,-1.3492,-1.3492,-1.3492,-1.3492,-1.3492,-1.3492,-1.3492,-1.3492,-1.3492,-1.3492,-1.3492,-1.3492,-1.3637,-1.4129,-1.4186,-1.4402,-1.5171,-1.5525,-1.5948,-1.6733,-1.7079,-1.7442,-1.7784,-1.794,-1.8008,-1.8008,-1.794,-1.794,-1.8008,-1.794,-1.794,-1.8008,-1.8008,-1.8125,-1.8398,-1.8672,-1.8828,-1.8828,-1.8828,-1.8711,-1.8418,-1.8418,-1.8281,-1.8008,-1.8008,-1.8008,-1.8008,-1.8008,-1.8008,-1.8008,-1.8008,-1.8008]}]]